     2              OBSERVATION DATA    GPS                 RINEX VERSION / TYPE
teqc 2002Apr3 20070406 16:16:49UTC                          PGM / RUN BY / DATE
                                                            COMMENT
L2: 1 -> 1; 150 -> 5; 250 -> 9                              COMMENT
L2: 1 -> 1; 150 -> 5; 250 -> 9                              COMMENT
L2: 1 -> 1; 150 -> 5; 250 -> 9                              COMMENT
L2: 1 -> 1; 150 -> 5; 250 -> 9                              COMMENT
L2: 1 -> 1; 150 -> 5; 250 -> 9                              COMMENT
Original Marker Name: MH20                                  COMMENT
Campaign Name: Painted Canyon Array                         COMMENT
4-Character Station Name: MH20                              COMMENT
6-Character Antenna Code: DMRCHT                            COMMENT
Vertical Measurement Point: BCR                             COMMENT
Vertical Offset to Rinex Ref. Point: 0.0348                 COMMENT
Radial Measurement Point: ECF                               COMMENT
Radial Offset to Rinex Ref. Point: 0.1897                   COMMENT
Antenna Height from Field Measurement: 1.1620 m             COMMENT
Additional Antenna Identification Info.:                    COMMENT
Turborogue and Ashtech Choke Ring                           COMMENT
Original XYZ: 0.0000 0.0000 0.0000                          COMMENT
New XYZ position is based on association with SCEC monument COMMENT
E1D0K9W3+0201. Position of that monument is believed to be  COMMENT
valid to within 1 m horizontally; vertical accuracy         COMMENT
should be no worse than 3-times this value.                 COMMENT
                                                            COMMENT
Revised Rinex header created by UCSD GPS archive for        COMMENT
GSAC on 09-Jun-2007 (2007:160) 17:14:46 GMT                 COMMENT
For assistance contact dagnew@ucsd.edu                      COMMENT
or anderson@python.ucsd.edu                                 COMMENT
                                                            COMMENT
MH20                                                        MARKER NAME
-Unknown- SCRIPPS INSTITUTION OF OCEANOGRAPHY               OBSERVER / AGENCY
319 ASHTECH Z-XII3 CC00                                     REC # / TYPE / VERS
409 DORNE-MARGOL. TYPE T                                    ANT # / TYPE
 -2333038.0000 -4778570.0000  3510023.0000                  APPROX POSITION XYZ
        1.1116        0.0000        0.0000                  ANTENNA: DELTA H/E/N
     1     1     0                                          WAVELENGTH FACT L1/2
     7    C1    L1    L2    P1    P2    S1    S2            # / TYPES OF OBSERV
    30                                                      INTERVAL
  2007     2    17    22    41   50.000000                  TIME OF FIRST OBS
  2007     2    18     0     3   40.000000                  TIME OF LAST OBS
                                                            END OF HEADER
 07  2 17 22 41 50.0000000  0  2G 3G 7
                     -3208.64219   1492943.409 1
       221.000
                     13075.86419   1088188.239 1
       221.000
 07  2 17 22 41 55.0000000  0  7G22G21G 3G18G 7G 6G14
                     -4592.15819   1492943.409 1
       240.000
                      1907.95819   1088188.239 1
       243.000
                    -12887.693 9    250010.684 1
       221.000
                      3233.99919    439826.442 1
       241.000
                     30440.35449      9095.44143
       222.0004         74.0004
                     13335.43519    427714.937 1
       211.000
                    -11459.64719   1700678.395 1
       213.000
 07  2 17 22 42  0.0000000  0  7G22G21G 3G18G 7G 6G14
                     -9287.17849     -1694.54343
       240.0004         74.0004
                      4828.09749      1054.19543
       243.0004         74.0004
                    -22553.67449     -3480.72843
       221.0004         74.0004
                      6972.02649      1348.89343
       241.0004         74.0004
                     47811.63749     22631.50843
       222.0004         74.0004
                     32168.50349      6768.46443
       211.0004         74.0004
                    -28656.05449     -6194.05243
       214.0004         74.0004
 07  2 17 22 42  5.0000000  0  8G22G21G 3G24G18G 7G 6G14
                    -13971.82649     -5344.89945                  18033646.2514
       241.0004        157.0004
                      7759.15949      3338.05645                  17447831.1144
       244.0004        162.0004
                    -32205.19349    -11001.36743
       224.0004         74.0004
                     17573.12559      2553.69643
       210.0004         74.0004
                     10719.37049      4268.93246                  17608707.0294
       242.0004        164.0004
                     65191.02349     36173.88943
       222.0004         74.0004
                     51006.90349     21447.78943
       212.0004         74.0004
                    -45846.27649    -19589.08343
       214.0004         74.0004
 07  2 17 22 42 10.0000000  0  8G22G21G 3G24G18G 7G 6G14
                    -18645.15649     -8986.45346                  18032756.7274
       241.0004        176.0004
                     10702.01749      5631.18846                  17448390.8394
       244.0004        182.0004
                    -41841.47349    -18510.15543
       222.0004         74.0004
                     30268.24849     12446.04343
       209.0004         74.0004
                     14476.94649      7196.91346                  17609421.6694
       242.0004        183.0004
                     82579.47049     49723.33043
       221.0004         74.0004
                     69851.50149     36131.89443
       214.0004         74.0004
                    -63029.39949    -32978.52743
       213.0004         74.0004
 07  2 17 22 42 15.0000000  0  8G22G21G 3G24G18G 7G 6G14
                    -23309.95349    -12621.35846                  18031869.3544
       241.0004        185.0004
                     13653.92649      7931.37747                  17448952.7964
       243.0004        191.0004
                    -51465.23149    -26009.18443
       222.0004         74.0004
                     42967.50949     22341.57543
       209.0004         74.0004
                     18242.05349     10130.75647                  17610138.2654
       242.0004        192.0004
                     99974.15949     63277.16443
       220.0004         74.0004
                     88699.51749     50818.66243
       213.0004         74.0004
                    -80208.16849    -46364.57943
       211.0004         74.0004
 07  2 17 22 42 20.0000000  0  8G22G21G 3G24G18G 7G 6G14
                    -27964.51249    -16248.29247                  18030983.2904
       240.0004        190.0004
                     16616.62349     10239.96647                  17449516.6484
       243.0004        196.0004
                    -61074.67849    -33497.18343
       221.0004         74.0004
                     55672.67849     32241.70843
       208.0004         74.0004
                     22016.34349     13071.75847                  17610856.5484
       242.0004        197.0004
                    117376.82449     76837.69543
       220.0004         74.0004
                    107552.59849     65509.24743
       214.0004         74.0004
                    -97380.90949    -59745.78443
       212.0004         74.0004
 07  2 17 22 42 25.0000000  0  9G22G21G 3G24G18G 7G 6G16G14
                    -32605.56649    -19864.69247                  18030100.5454
       240.0004        193.0004
                     19593.34749     12559.49147                  17450083.0054
       243.0004        200.0004
                    -70666.62649    -40971.40443
       223.0004         74.0004
                     68386.95049     42148.93443
       209.0004         74.0004
                     25803.05749     16022.44647                  17611577.1924
       241.0004        201.0004
                    134790.64949     90406.96844                  19525070.4004
       221.0004        127.0004
                    126414.05549     80206.42443
       214.0004         74.0004
                      2330.86819     59745.784 1
       208.000
                   -114544.41649    -73119.85743
       211.0004         74.0004
 07  2 17 22 42 30.0000000  0 10G22G21G 3G24G18G 7G26G 6G16G14
  18029217.1994     -37235.32949    -23472.29847  18029216.8934   18029219.3184
       240.0004        196.0004
  17450649.0094      22581.88149     14888.21947  17450648.1184   17450651.8214
       243.0004        202.0004
                    -80243.20549    -48433.64344                  19677638.0824
       221.0004        123.0004
                     81108.15749     52061.44643
       211.0004         74.0004
  17612296.9194      29600.01149     18981.11447  17612295.9414   17612299.5414
       241.0004        203.0004
                    152213.44849    103983.17445                  19528386.2504
       221.0004        142.0004
                     16518.08119     80206.424 1
       211.000
                    145281.65849     94908.42043
       214.0004         74.0004
                     13531.02249      3972.79943
       208.0004         74.0004
                   -131700.79049    -86488.44443
       212.0004         74.0004
 07  2 17 22 42 35.0000000  0 10G22G21G 3G24G18G 7G26G 6G16G14
  21326055.3154     -41853.38749    -27070.78247  21326055.0894   21326057.6394
       240.0004        197.0004
  20748933.7764      25565.93049     17213.44647  20748933.1424   20748936.7454
       244.0004        204.0004
                    -89793.06849    -55875.08445                  22973537.5524
       222.0004        142.0004
                     93798.54949     61949.86243
       210.0004         74.0004
  20910734.9124      33389.02849     21933.59047  20910734.0104   20910737.6874
       242.0004        205.0004
                    169597.13349    117528.88445                  22829411.3964
       219.0004        150.0004
                     34628.53849      3520.60943
       207.0004         74.0004
                    164104.21049    109575.33343
       215.0004         74.0004
                     24704.53049     12679.48743
       208.0004         74.0004
                   -148821.97549    -99829.66043
       212.0004         74.0004
 07  2 17 22 42 40.0000000  0 10G22G21G 3G24G18G 7G26G 6G16G14
  21325174.1764     -46482.75549    -30678.07947  21325173.9994   21325176.5994
       241.0004        199.0004
  20749503.0834      28555.96349     19543.34747  20749501.9994   20749505.5224
       245.0004        205.0004
                    -99361.12749    -63330.71745                  22971717.3264
       221.0004        150.0004
                    106511.41749     71855.93543
       211.0004         74.0004
  20911456.9744      37184.20549     24890.87247  20911456.1204   20911460.0654
       242.0004        206.0004
                    187015.69549    131101.78145                  22832725.5144
       218.0004        154.0004
                     52778.79949     17663.66943
       208.0004         74.0004
                    182961.97049    124269.69343
       217.0004         74.0004
                     35898.03249     21401.70243
       210.0004         74.0004
                   -165986.16049   -113204.38543
       212.0004         74.0004
 07  2 17 22 42 45.0000000  0 10G22G21G 3G24G18G 7G26G 6G16G14
  21324294.4724     -51108.22649    -34282.34247  21324293.9884   21324296.2114
       240.0004        200.0004
  20750072.5144      31550.42349     21876.68447  20750071.6344   20750075.4274
       243.0004        206.0004
                   -108921.16849    -70780.10045                  22969898.0584
       221.0004        155.0004
                    119223.82149     81761.68243
       212.0004         74.0004
  20912179.7824      40982.21949     27850.36047  20912179.2504   20912182.7044
       242.0004        207.0004
                    204435.76849    144675.86045                  22836040.4494
       219.0004        157.0004
                     70933.96049     31810.54943
       212.0004         74.0004
                    201818.46049    138963.06543
       215.0004         74.0004
                     47091.91949     30124.21243
       208.0004         74.0004
                   -183150.53349   -126579.24044                  23663478.1544
       214.0004        108.0004
 07  2 17 22 42 50.0000000  0 10G22G21G 3G24G18G 7G26G 6G16G14
  21323416.2594     -55721.39049    -37877.00647  21323416.1064   21323418.3844
       241.0004        200.0004
  20750644.6534      34557.76449     24220.07047  20750644.2684   20750647.8984
       244.0004        207.0004
                   -118464.77149    -78216.66345                  22968081.6534
       221.0004        158.0004
                    131944.22149     91673.69243
       212.0004         74.0004
  20912904.6694      44791.48749     30818.62347  20912904.0584   20912907.6334
       242.0004        208.0004
  22839351.8614     221865.86049    158257.72545  22839350.1574   22839357.6744
       219.0004        159.0004
                     89102.48449     45967.84343
       209.0004         74.0004
                    220682.10749    153662.00843                  23879057.9654
       215.0004         90.0004
                     58294.66349     38853.62643
       205.0004         74.0004
                   -200306.63449   -139947.62244                  23660212.2994
       214.0004        125.0004
 07  2 17 22 42 55.0000000  0 10G22G21G 3G24G18G 7G26G 6G16G14
  21322540.5864     -60323.83649    -41463.32747  21322540.1434   21322542.7634
       240.0004        201.0004
  20751219.2764      37576.41649     26572.26547  20751218.5204   20751222.2324
       244.0004        207.0004
  22966263.0284    -127993.53949    -85641.67645  22966262.7974   22966268.9854
       222.0004        161.0004
                    144671.01849    101590.68143
       212.0004         74.0004
  20913631.6534      48610.44149     33794.43347  20913630.6654   20913634.1244
       243.0004        208.0004
  22842669.5354     239304.32349    171846.12345  22842668.9494   22842675.5444
       220.0004        161.0004
                    107282.71849     60134.26143
       208.0004         74.0004
                    239551.21049    168365.19344                  23882649.1654
       216.0004        121.0004
                     69504.60849     47588.81143
       209.0004         74.0004
                   -217456.07849   -153310.81745                  23656949.5744
       214.0004        132.0004
 07  2 17 22 43  0.0000000  0 10G22G21G 3G24G18G 7G26G 6G16G14
  21321666.2874     -64919.42949    -45044.30847  21321665.9184   21321668.3104
       240.0004        201.0004
  20751795.3314      40602.50949     28930.25647  20751794.6024   20751797.9664
       243.0004        207.0004
  22964452.8544    -137511.39049    -93058.17845  22964451.6014   22964457.2154
       222.0004        162.0004
                    157400.31649    111509.63243
       212.0004         74.0004
  20914359.4324      52435.18549     36774.74947  20914358.5314   20914362.2414
       242.0004        209.0004
  22845989.0734     256747.22749    185437.99845  22845988.2214   22845995.6324
       218.0004        162.0004
                    125470.77149     74306.91643
       205.0004         74.0004
                    258422.00649    183069.69744                  23886239.7644
       215.0004        131.0004
                     80717.87949     56326.53843
       209.0004         74.0004
                   -234602.69749   -166671.81145                  23653686.2354
       213.0004        137.0004
 07  2 17 22 43  5.0000000  0 10G22G21G 3G24G18G 7G26G 6G16G14
  21320794.0194     -69503.83049    -48616.55947  21320793.5224   21320796.0044
       242.0004        202.0004
  20752373.2574      43640.37849     31297.42847  20752372.4814   20752376.1894
       245.0004        208.0004
  22962643.4764    -147013.86749   -100462.70846  22962643.4034   22962648.4094
       223.0004        164.0004
                    170136.46249    121433.90844                  24415133.6394
       211.0004        107.0004
  20915089.0184      56270.00849     39762.92747  20915088.2564   20915092.0064
       243.0004        209.0004
  22849311.4994     274198.96449    199036.73746  22849309.7424   22849316.1774
       219.0004        163.0004
                    143670.96049     88489.00043
       209.0004         74.0004
                    277298.79249    197778.87045                  23889832.2194
       215.0004        138.0004
                     91938.79149     65070.15843
       208.0004         74.0004
                   -251742.16449   -180027.22945                  23650424.7044
       213.0004        141.0004
 07  2 17 22 43 10.0000000  0 10G22G21G 3G24G18G 7G26G 6G16G14
  21319923.6684     -74075.73049    -52179.08347  21319923.5244   21319925.8384
       242.0004        202.0004
  20752953.3374      46691.32649     33674.78847  20752953.2694   20752956.6274
       244.0004        208.0004
  22960838.5714    -156499.69149   -107854.25146  22960838.5324   22960843.5434
       221.0004        165.0004
                    182880.75249    131364.52544                  24417560.4834
       207.0004        122.0004
  20915821.1344      60116.25249     42759.99547  20915820.1994   20915823.8544
       243.0004        209.0004
  22852633.0984     291660.79349    212643.33946  22852632.1924   22852638.8674
       219.0004        163.0004
                    161884.59149    102681.46943
       209.0004         74.0004
                    296182.77149    212493.64645                  23893425.8034
       215.0004        142.0004
                    103168.67449     73820.74143
       208.0004         74.0004
  23647159.7604    -268873.16549   -193376.04945  23647159.1024   23647163.7314
       211.0004        143.0004
 07  2 17 22 43 15.0000000  0 11G22G21G 3G24G18G 7G26G 9G 6G16G14
  21319056.0604     -78636.66949    -55733.05547  21319055.8654   21319057.9464
       241.0004        202.0004
  20753536.2284      49753.84649     36061.16747  20753535.6464   20753539.5784
       244.0004        208.0004
  22959036.7764    -165970.42549   -115234.04246  22959035.4014   22959041.7544
       223.0004        165.0004
                    195631.66749    141300.29744                  24419987.5284
       210.0004        130.0004
  20916554.9864      63972.36549     45764.76247  20916554.0014   20916557.6394
       242.0004        209.0004
  22855957.9974     309131.12149    226256.57046  22855956.9204   22855963.7624
       218.0004        164.0004
                    180110.04849    116883.13043
       210.0004         74.0004
                    -29139.81359     -8679.92043
       204.0004         74.0004
  23897012.5824     315072.53449    227212.92845  23897012.8524   23897020.7814
       214.0004        144.0004
                    114405.98049     82577.08343
       208.0004         74.0004
  23643901.1554    -285997.27349   -206719.50045  23643901.2284   23643905.7364
       214.0004        144.0004
 07  2 17 22 43 20.0000000  0 11G22G21G 3G24G18G 7G26G 9G 6G16G14
  21318190.1244     -83185.70649    -59277.75547  21318189.8844   21318192.7354
       241.0004        202.0004
  20754121.4224      52828.85649     38457.27747  20754120.9914   20754124.7224
       243.0004        208.0004
  22957237.0604    -175425.14749   -122601.36246  22957236.7364   22957242.4574
       221.0004        166.0004
                    208390.10449    151241.92945                  24422415.1414
       211.0004        135.0004
  20917290.3474      67839.23549     48777.90647  20917289.6924   20917293.4034
       242.0004        210.0004
  22859284.0864     326610.95749    239877.20746  22859282.9984   22859289.6374
       219.0004        164.0004
                    198348.31349    131094.75743                  23831154.0244
       209.0004         94.0004
                    -39746.80149    -16945.10843
       204.0004         74.0004
  23900608.7214     333968.96949    241937.40545  23900608.7734   23900616.3584
       213.0004        146.0004
                    125651.62149     91339.90143                  24726233.0564
       206.0004         83.0004
  23640644.6904    -303113.47049   -220056.78045  23640643.4734   23640649.5894
       210.0004        146.0004
 07  2 17 22 43 25.0000000  0 11G22G21G 3G24G18G 7G26G 9G 6G16G14
  21317325.8664     -87726.97649    -62816.40347  21317325.6734   21317328.2154
       241.0004        202.0004
  20754708.6694      55912.25049     40859.92147  20754707.7154   20754711.4364
       243.0004        208.0004
  22955440.5754    -184867.86749   -129959.30946  22955439.9604   22955445.5684
       222.0004        166.0004
                    221152.01349    161186.26545                  24424843.2784
       210.0004        138.0004
  20918027.7044      71712.80749     51796.27547  20918026.9114   20918030.4174
       242.0004        210.0004
  22862611.7364     344096.17349    253502.04346  22862610.8744   22862617.6704
       220.0004        164.0004
                    216595.26349    145313.13744                  23834626.7204
       208.0004        116.0004
                    -50347.29549    -25205.23143
       205.0004         74.0004
  23904205.1554     352867.86849    256663.80345  23904205.0534   23904212.2694
       213.0004        148.0004
                    136901.44049    100105.96744                  24728371.4824
       208.0004        105.0004
  23637387.8764    -320225.90149   -233391.12545  23637386.4084   23637392.8374
       212.0004        147.0004
 07  2 17 22 43 30.0000000  0 11G22G21G 3G24G18G 7G26G 9G 6G16G14
  21316463.2504     -92262.37749    -66350.47747  21316462.7204   21316465.1674
       242.0004        203.0004
  20755296.5814      59002.12049     43267.61547  20755295.5784   20755299.2234
       245.0004        208.0004
  22953645.8084    -194300.50749   -137309.42346  22953644.6824   22953651.0224
       222.0004        167.0004
  24427265.3544     233915.42149    171131.76745  24427263.3274   24427272.1114
       210.0004        140.0004
  20918765.6134      75591.17249     54818.37847  20918764.9704   20918768.6714
       243.0004        210.0004
  22865939.9334     361584.80149    267129.53546  22865938.9304   22865945.5924
       220.0004        165.0004
                    234848.97049    159536.77444                  23838100.9054
       211.0004        126.0004
                    -60943.20949    -33461.78543
       206.0004         74.0004
  23907801.9394     371767.43649    271390.72745  23907801.9334   23907808.9504
       214.0004        148.0004
                    148153.54349    108873.80344                  24730511.2734
       209.0004        115.0004
  23634132.4074    -337336.45249   -246724.01245  23634131.1414   23634136.5904
       214.0004        148.0004
 07  2 17 22 43 35.0000000  0 11G22G21G 3G24G18G 7G26G 9G 6G16G14
  21315602.8164     -96784.46549    -69874.18047  21315602.2864   21315604.8434
       242.0004        203.0004
  20755887.3354      62105.91649     45686.15447  20755886.2894   20755889.8864
       244.0004        208.0004
  22951854.2544    -203715.63549   -144645.87746  22951853.5124   22951859.3374
       222.0004        167.0004
  24429695.1574     246687.79749    181084.25745  24429694.8544   24429703.1564
       211.0004        141.0004
  20919506.0984      79481.70649     57849.96047  20919505.3384   20919508.8964
       243.0004        210.0004
  22869270.1234     379084.28649    280765.49146  22869268.9054   22869275.7374
       220.0004        165.0004
                    253116.86149    173771.46645                  23841576.7274
       211.0004        132.0004
                    -71527.10649    -41708.97543
       207.0004         74.0004
  23911399.9424     390675.07549    286123.93845  23911399.1434   23911406.4514
       214.0004        149.0004
                    159415.37549    117649.22344                  24732653.7974
       207.0004        121.0004
  23630878.4154    -354437.63249   -260049.60245  23630877.9744   23630882.7664
       214.0004        148.0004
 07  2 17 22 43 40.0000000  0 11G22G21G 3G24G18G 7G26G 9G 6G16G14
  21314743.4034    -101301.15949    -73393.67847  21314742.8114   21314745.1844
       242.0004        203.0004
  20756479.1924      65215.73949     48109.39647  20756478.1694   20756481.4984
       243.0004        208.0004
  22950064.4424    -213121.18349   -151974.86946  22950063.7214   22950069.4064
       221.0004        167.0004
  24432126.7004     259461.24549    191037.58145  24432125.6614   24432133.3404
       209.0004        142.0004
  20920247.3564      83376.51349     60884.87747  20920246.4254   20920249.9624
       242.0004        210.0004
  22872600.7934     396586.62149    294403.67146  22872599.4194   22872605.7904
       219.0004        165.0004
                    271390.95349    188011.00245                  23845053.3284
       210.0004        136.0004
                    -82106.88149    -49952.28943
       207.0004         74.0004
  23914997.8964     409582.73849    300857.16645  23914997.6124   23915004.0854
       214.0004        149.0004
                    170678.97249    126426.02044                  24734795.8164
       207.0004        125.0004
  23627624.5434    -371537.37749   -273374.07145  23627622.6474   23627628.3584
       213.0004        149.0004
 07  2 17 22 43 45.0000000  0 11G22G21G 3G24G18G 7G26G 9G 6G16G14
  21313885.8684    -105807.83949    -76905.37747  21313885.1944   21313887.5754
       241.0004        203.0004
  20757073.0364      68336.25749     50540.96147  20757072.0884   20757075.6124
       243.0004        208.0004
  22948277.3704    -222512.43849   -159292.72646  22948276.2694   22948282.0374
       221.0004        168.0004
  24434558.7204     272240.42249    200995.37545  24434557.9084   24434565.0194
       208.0004        143.0004
  20920990.2974      87280.27949     63926.76547  20920989.3104   20920992.9144
       242.0004        210.0004
  22875932.8574     414096.58649    308047.78746  22875930.9834   22875938.0564
       219.0004        165.0004
  23848525.4044     289675.93649    202259.03645  23848527.4184   23848531.8224
       208.0004        139.0004
                    -92677.78849    -58189.29743
       206.0004         74.0004
  23918596.8124     428495.18449    315594.12445  23918596.3204   23918603.5414
       213.0004        150.0004
                    181949.01749    135207.84044                  24736939.7744
       207.0004        128.0004
  23624371.6824    -388631.03749   -286693.79245  23624369.8994   23624375.1154
       213.0004        150.0004
 07  2 17 22 43 50.0000000  0 11G22G21G 3G24G18G 7G26G 9G 6G16G14
  21313030.4694    -110302.83749    -80407.96747  21313029.4974   21313032.1454
       241.0004        203.0004
  20757669.2224      71469.07949     52982.12247  20757668.3154   20757671.8254
       244.0004        208.0004
  22946493.3124    -231887.75949   -166598.17846  22946493.1934   22946498.4414
       221.0004        168.0004
  24436991.9174     285027.00749    210958.93345  24436989.6144   24436998.1824
       207.0004        143.0004
  20921735.1994      91194.60549     66976.89347  20921734.1454   20921737.9244
       242.0004        210.0004
  22879266.6174     431615.79949    321699.10746  22879265.0644   22879271.8044
       218.0004        164.0004
  23852008.3504     307973.46349    216516.83545  23852008.5484   23852014.1474
       209.0004        140.0004
                   -103238.23649    -66418.17543
       205.0004         74.0004
  23922196.9994     447414.01049    330336.05745  23922197.0684   23922203.4354
       213.0004        149.0004
  24739080.5064     193227.10649    143995.93844  24739078.9624   24739086.1474
       205.0004        131.0004
  23621120.2634    -405716.87749   -300007.42045  23621118.7404   23621125.0274
       211.0004        150.0004
 07  2 17 22 43 55.0000000  0 11G22G21G 3G24G18G 7G26G 9G 6G16G14
  21143342.0694   -1002021.24849   -775253.48447  21143341.4194   21143343.7854
       241.0004        203.0004
  20589432.6364    -812620.02549   -635918.48447  20589431.8934   20589435.0854
       244.0004        208.0004
  22775877.0124   -1128482.76149   -865243.62946  22775876.0294   22775881.7734
       220.0004        168.0004
  24270591.5384    -589412.22849   -470422.30845  24270590.2304   24270597.7014
       206.0004        143.0004
  20753647.0604    -792114.61649   -621316.01147  20753646.3004   20753649.5164
       242.0004        210.0004
  22713767.3714    -438088.40849   -355992.50646  22713765.1184   22713772.3804
       218.0004        164.0004
  23686658.0634    -560949.02249   -460565.62545  23686658.0184   23686663.6124
       209.0004        142.0004
                  -1001023.98449   -765991.47343
       204.0004         74.0004
  23756963.6234    -420893.22949   -346267.00645  23756964.1464   23756970.0274
       216.0004        150.0004
  24572392.5184    -682720.08749   -538560.32945  24572391.5374   24572397.6994
       208.0004        133.0004
  23449034.8464   -1310031.45849  -1004668.11945  23449033.9124   23449039.0654
       213.0004        150.0004
 07  2 17 22 44  0.0000000  0 11G22G21G 3G24G18G 7G26G 9G 6G16G14
  21142299.3614   -1007500.54949   -779523.06047  21142298.4714   21142300.8524
       241.0004        203.0004
  20589841.7474    -810470.19049   -634243.28147  20589840.7804   20589844.1854
       244.0004        208.0004
  22773907.2614   -1138833.82549   -873309.38146  22773906.5734   22773912.5944
       220.0004        168.0004
  24272835.7224    -577618.60049   -461232.47945  24272834.8964   24272841.2774
       209.0004        143.0004
  20754204.2014    -789186.77249   -619034.56947  20754203.1044   20754206.8954
       242.0004        210.0004
  22716912.8754    -421558.44349   -343112.01546  22716910.8104   22716917.3174
       218.0004        164.0004
  23689952.9354    -543634.17249   -447073.54145  23689952.8874   23689959.2184
       210.0004        143.0004
                  -1012571.08649   -774989.23643
       204.0004         74.0004
  23760374.4534    -402969.28549   -332300.31545  23760374.5254   23760381.1754
       213.0004        150.0004
  24574349.0524    -672433.56949   -530544.87245  24574349.7224   24574354.6024
       204.0004        134.0004
  23445594.6914   -1328109.40749  -1018754.81245  23445593.7034   23445598.2684
       211.0004        151.0004
 07  2 17 22 44  5.0000000  0 10G22G21G 3G24G18G 7G26G 6G16G14
  21141258.3634   -1012970.95249   -783785.70747  21141257.6524   21141260.0804
       241.0004        203.0004
  20590252.6684    -808310.78749   -632560.63047  20590251.9454   20590255.1074
       243.0004        209.0004
  22771940.0034   -1149171.76349   -881364.90646  22771938.7954   22771944.8664
       222.0004        168.0004
  24275080.7954    -565820.41449   -452039.09445  24275079.9224   24275086.2554
       209.0004        143.0004
  20754762.8044    -786251.16249   -616747.08347  20754761.7374   20754765.5534
       242.0004        210.0004
  22720059.5764    -405022.07249   -330226.54946  22720057.5214   22720064.8594
       217.0004        164.0004
  23693249.3244    -526309.60849   -433573.88345  23693249.7654   23693254.8194
       209.0004        143.0004
  23763785.9664    -385041.81749   -318330.86545  23763785.7134   23763792.2344
       214.0004        150.0004
  24576306.6344    -662141.82749   -522525.34645  24576308.1464   24576313.4404
       207.0004        135.0004
  23442155.4434   -1346182.34749  -1032837.60745  23442153.8254   23442159.2144
       212.0004        151.0004
 07  2 17 22 44 10.0000000  0 11G22G21G 3G24G18G 7G26G 9G 6G16G14
  21140218.7044   -1018434.16949   -788042.75647  21140217.8824   21140220.3994
       241.0004        203.0004
  20590665.0524    -806143.53349   -630871.85847  20590663.9204   20590667.6634
       244.0004        209.0004
  22769974.9494   -1159498.10649   -889411.39746  22769973.7754   22769979.4034
       222.0004        168.0004
  24277326.4514    -554019.31849   -442843.44345  24277326.1474   24277332.7034
       211.0004        144.0004
  20755322.5814    -783309.47849   -614454.85647  20755321.3004   20755325.4044
       242.0004        210.0004
  22723207.1364    -388481.07249   -317337.45546  22723205.1924   22723212.3524
       218.0004        163.0004
  23696547.0564    -508977.07749   -420068.02345  23696547.6914   23696553.6694
       205.0004        143.0004
                  -1035643.86149   -792968.09044                  24170676.6694
       203.0004         95.0004
  23767197.8394    -367112.37949   -304359.87945  23767197.5024   23767203.4554
       214.0004        150.0004
  24578265.2364    -651846.60849   -514503.10145  24578266.1204   24578272.4114
       206.0004        135.0004
  23438716.8274   -1364251.97049  -1046917.82445  23438715.0854   23438721.1274
       213.0004        151.0004
 07  2 17 22 44 15.0000000  0 11G22G21G 3G24G18G 7G26G 9G 6G16G14
  21139180.7254   -1023888.73549   -792293.06447  21139179.9404   21139182.3654
       241.0004        203.0004
  20591079.2294    -803966.91649   -629175.79547  20591078.1434   20591081.6964
       244.0004        209.0004
  22768012.3754   -1169811.53549   -897447.83746  22768011.0944   22768017.8794
       221.0004        169.0004
  24279572.9274    -542213.89249   -433644.42045  24279572.9714   24279579.4384
       209.0004        144.0004
  20755883.8064    -780360.24649   -612156.75447  20755882.7814   20755886.4474
       243.0004        210.0004
  22726355.9124    -371933.93849   -304443.60446  22726354.2424   22726362.1604
       220.0004        163.0004
  23699846.8264    -491635.06749   -406554.77745  23699848.3764   23699853.3964
       206.0004        143.0004
                  -1047169.67549   -801949.28444                  24168481.2054
       205.0004        112.0004
  23770610.3364    -349179.71049   -290386.37645  23770609.4994   23770616.6054
       214.0004        150.0004
  24580225.0794    -641546.37049   -506476.94545  24580227.2134   24580232.1694
       208.0004        136.0004
  23435279.1484   -1382316.74849  -1060994.26245  23435277.5454   23435284.1624
       214.0004        151.0004
 07  2 17 22 44 20.0000000  0 11G22G21G 3G24G18G 7G26G 9G 6G16G14
  21138144.2324   -1029335.41349   -796537.21647  21138143.6184   21138145.7474
       241.0004        203.0004
  20591495.0614    -801781.72649   -627473.04247  20591493.9854   20591497.6044
       243.0004        209.0004
  22766052.0394   -1180112.84149   -905474.81246  22766050.8714   22766056.8994
       221.0004        169.0004
  24281820.0954    -530404.87149   -424442.58945  24281819.6464   24281826.2664
       206.0004        144.0004
  20756446.2814    -777404.29049   -609853.40547  20756445.2224   20756448.8504
       242.0004        210.0004
  22729505.7104    -355381.42649   -291545.55446  22729504.4324   22729510.4624
       218.0004        163.0004
  23703148.3414    -474284.42049   -393034.80045  23703149.7814   23703155.1204
       209.0004        142.0004
                  -1058688.73149   -810925.20344                  24166287.8334
       204.0004        122.0004
  23774023.3274    -331244.50349   -276410.90545  23774022.4274   23774029.5084
       213.0004        150.0004
  24582185.9854    -631241.94349   -498447.52645  24582187.1964   24582193.4104
       208.0004        136.0004
  23431842.2774   -1400377.45849  -1075067.52345  23431840.2454   23431846.9594
       211.0004        151.0004
 07  2 17 22 44 25.0000000  0 11G22G21G 3G24G18G 7G26G 9G 6G16G14
  21137109.3664   -1034773.39549   -800774.60647  21137108.4944   21137110.8464
       241.0004        203.0004
  20591912.6714    -799587.12549   -625762.97047  20591911.6264   20591915.3084
       244.0004        209.0004
  22764094.2024   -1190401.14649   -913491.67646  22764092.8964   22764099.3144
       220.0004        169.0004
  24284068.0594    -518591.44349   -415237.32345  24284068.0894   24284074.2234
       208.0004        144.0004
  20757010.2194    -774440.71949   -607544.13547  20757009.1324   20757012.9774
       242.0004        210.0004
  22732656.6574    -338822.73349   -278642.67946  22732655.0104   22732662.3434
       217.0004        163.0004
  23706451.8934    -456924.32949   -379507.45545  23706453.6144   23706458.8664
       206.0004        142.0004
                  -1070200.18749   -819895.18544                  24164096.3794
       204.0004        127.0004
  23777436.9234    -313305.95749   -262432.82945  23777435.5944   23777443.6364
       214.0004        150.0004
  24584148.0354    -620932.54049   -490414.23645  24584149.3384   24584155.1804
       209.0004        136.0004
  23428406.3024   -1418433.33649  -1089137.02245  23428404.8634   23428410.7254
       211.0004        152.0004
 07  2 17 22 44 30.0000000  0 11G22G21G 3G24G18G 7G26G 9G 6G16G14
  21136075.9654   -1040203.81249   -805006.09647  21136075.3794   21136077.6534
       241.0004        203.0004
  20592331.8444    -797384.26149   -624046.44947  20592330.8264   20592334.5904
       244.0004        209.0004
  22762138.6204   -1200677.47949   -921499.19846  22762137.4704   22762143.2904
       220.0004        169.0004
  24286316.6654    -506774.76949   -406029.53345  24286316.0834   24286323.6264
       209.0004        144.0004
  20757575.3834    -771470.74249   -605229.86047  20757574.2704   20757578.2764
       242.0004        210.0004
  22735808.5794    -322259.04049   -265735.90546  22735806.6394   22735814.2134
       219.0004        163.0004
  23709757.0564    -439555.93549   -365973.63745  23709757.7164   23709763.0094
       206.0004        141.0004
                  -1081705.12649   -828860.07744                  24161906.4624
       204.0004        131.0004
  23780850.9204    -295365.26349   -248453.07545  23780849.9004   23780858.1224
       212.0004        150.0004
  24586110.8664    -610619.25249   -482377.91445  24586112.3194   24586117.8814
       208.0004        137.0004
  23424971.0714   -1436485.44549  -1103203.59045  23424970.2614   23424975.7114
       211.0004        152.0004
 07  2 17 22 44 35.0000000  0 11G22G21G 3G24G18G 7G26G 9G 6G16G14
  21135044.2194   -1045625.53549   -809230.81347  21135043.7344   21135046.1324
       240.0004        203.0004
  20592752.7924    -795171.98649   -622322.60247  20592752.0044   20592755.5724
       243.0004        209.0004
  22760185.5324   -1210940.68549   -929496.49846  22760184.4724   22760190.5364
       221.0004        169.0004
  24288566.1294    -494953.74149   -396818.34545  24288565.4864   24288571.9494
       209.0004        143.0004
  20758141.9644    -768493.24649   -602909.73947  20758141.0884   20758144.8644
       242.0004        210.0004
  22738961.6394    -305689.20149   -252824.36546  22738961.3254   22738966.6524
       218.0004        163.0004
  23713063.9894    -422178.11649   -352432.48745  23713064.3674   23713070.6154
       204.0004        140.0004
  24159712.3774   -1093202.39649   -837818.98645  24159712.5294   24159718.3234
       206.0004        135.0004
  23784265.5204    -277421.21649   -234470.70845  23784264.6564   23784272.7104
       212.0004        149.0004
  24588074.6354    -600301.03149   -474337.75045  24588075.4204   24588081.8964
       205.0004        136.0004
  23421536.7814   -1454532.60049  -1117266.29545  23421535.8684   23421541.4614
       213.0004        151.0004
 07  2 17 22 44 40.0000000  0 11G22G21G 3G24G18G 7G26G 9G 6G16G14
  21134013.9714   -1051039.41949   -813449.41947  21134013.4674   21134015.8734
       240.0004        203.0004
  20593175.3754    -792951.17049   -620592.09547  20593174.4424   20593178.0284
       243.0004        209.0004
  22758234.7854   -1221191.69149   -937484.28546  22758233.6034   22758240.1664
       220.0004        169.0004
  24290816.2524    -483129.17249   -387604.40345  24290815.6984   24290822.7584
       209.0004        143.0004
  20758709.8414    -765509.06249   -600584.40047  20758708.8654   20758712.7004
       242.0004        210.0004
  22742115.7484    -289114.07949   -239908.68846  22742114.6924   22742121.0704
       220.0004        163.0004
  23716372.5674    -404791.80249   -338884.71845  23716373.0874   23716380.0474
       205.0004        140.0004
  24157527.6354   -1104692.88749   -846772.60445  24157526.4124   24157531.4884
       210.0004        137.0004
  23787680.6194    -259474.61749   -220486.35445  23787679.8924   23787687.5234
       211.0004        149.0004
  24590039.1094    -589978.69449   -466294.37945  24590040.0204   24590046.9504
       206.0004        135.0004
  23418103.2434   -1472575.72149  -1131325.85745  23418101.9554   23418107.8354
       210.0004        151.0004
 07  2 17 22 44 45.0000000  0 11G22G21G 3G24G18G 7G26G 9G 6G16G14
  21132985.3914   -1056444.49149   -817661.15947  21132984.8194   21132987.4454
       240.0004        203.0004
  20593599.7874    -790720.82949   -618854.17147  20593599.1884   20593602.2764
       243.0004        209.0004
  22756286.5734   -1231429.50049   -945461.80146  22756285.2824   22756291.9874
       220.0004        169.0004
  24293067.2244    -471300.10349   -378386.95845  24293067.5594   24293072.5134
       208.0004        143.0004
  20759279.1594    -762517.19949   -598253.07847  20759278.2614   20759281.9884
       242.0004        210.0004
  22745271.0634    -272532.74349   -226988.17446  22745270.4574   22745276.6014
       219.0004        163.0004
  23719682.9464    -387395.94149   -325329.51145  23719682.6754   23719690.2914
       205.0004        139.0004
  24155342.6854   -1116175.56949   -855720.13045  24155341.7654   24155346.7674
       211.0004        140.0004
  23791096.3734    -241524.66449   -206499.39545  23791096.0574   23791103.2464
       211.0004        149.0004
  24592004.5134    -579651.25749   -458247.04545  24592004.6794   24592011.6174
       206.0004        135.0004
  23414670.6934   -1490613.77749  -1145381.46345  23414668.7624   23414675.5024
       212.0004        151.0004
 07  2 17 22 44 50.0000000  0 11G22G21G 3G24G18G 7G26G 9G 6G16G14
  21131958.2144   -1061842.27549   -821867.22247  21131957.6704   21131960.1344
       242.0004        203.0004
  20594025.7094    -788482.46849   -617109.99347  20594024.8034   20594028.5124
       244.0004        209.0004
  22754340.5674   -1241655.68749   -953430.24946  22754340.0484   22754345.8704
       222.0004        169.0004
  24295318.7954    -459467.99349   -369167.15045  24295318.3114   24295325.8784
       208.0004        142.0004
  20759849.6444    -759519.15849   -595916.94347  20759848.7964   20759852.6114
       243.0004        210.0004
  22748427.2874    -255946.65749   -214063.95646  22748425.8324   22748433.1714
       219.0004        163.0004
  23722994.8894    -369992.11949   -311768.09445  23722994.6334   23723001.1144
       206.0004        139.0004
  24153159.0104   -1127651.93549   -864662.74045  24153157.6574   24153162.9434
       211.0004        142.0004
  23794512.4554    -223572.83949   -192510.97145  23794512.2824   23794519.4844
       211.0004        148.0004
  24593970.5124    -569320.26749   -450196.93545  24593970.7784   24593977.0034
       207.0004        135.0004
  23411238.8074   -1508648.27249  -1159434.29945  23411237.4584   23411243.4034
       212.0004        151.0004
 07  2 17 22 44 55.0000000  0 11G22G21G 3G24G18G 7G26G 9G 6G16G14
  21130932.6424   -1067231.62649   -826066.70447  21130932.0504   21130934.6194
       241.0004        203.0004
  20594453.4154    -786234.92049   -615358.65347  20594452.7274   20594455.9544
       244.0004        209.0004
  22752397.0114   -1251869.07549   -961388.73046  22752396.3744   22752402.5274
       223.0004        169.0004
  24297571.1234    -447631.74249   -359944.10645  24297570.2924   24297577.5174
       206.0004        142.0004
  20760421.5314    -756513.84949   -593575.13847  20760420.6504   20760424.3264
       242.0004        210.0004
  22751584.6114    -239354.75649   -201135.19546  22751583.9064   22751590.4754
       219.0004        163.0004
  23726308.5304    -352579.15649   -298199.55745  23726308.7184   23726313.9464
       207.0004        138.0004
  24150976.5844   -1139120.83249   -873599.53145  24150975.8274   24150981.2934
       210.0004        144.0004
  23797929.1594    -205617.97549   -178520.17945  23797929.0174   23797936.2344
       211.0004        148.0004
  24595937.4184    -558984.60649   -442143.18645  24595936.8474   24595943.0984
       207.0004        135.0004
  23407807.8304   -1526678.05349  -1173483.46945  23407806.3634   23407811.9854
       211.0004        151.0004
 07  2 17 22 45  0.0000000  0 11G22G21G 3G24G18G 7G26G 9G 6G16G14
  21129908.6654   -1072612.52449   -830259.61347  21129908.2294   21129910.6614
       241.0004        203.0004
  20594882.8414    -783978.20949   -613600.17947  20594882.1804   20594885.7014
       244.0004        209.0004
  22750455.9094   -1262069.62349   -969337.20146  22750455.4274   22750461.2864
       221.0004        169.0004
  24299824.2634    -435791.34449   -350717.83145  24299823.9524   24299830.0634
       207.0004        141.0004
  20760994.7964    -753501.24949   -591227.65947  20760993.8834   20760997.7484
       243.0004        210.0004
  22754743.0664    -222757.00049   -188201.89646  22754742.2804   22754749.3254
       219.0004        163.0004
  23729623.8494    -335157.10149   -284623.94145  23729624.1534   23729629.0444
       204.0004        137.0004
  24148795.5044   -1150582.26949   -882530.51545  24148794.8974   24148801.0944
       210.0004        146.0004
  23801346.4244    -187660.12649   -164527.06445  23801346.6814   23801353.5184
       212.0004        148.0004
  24597905.1874    -548644.21649   -434085.74845  24597905.0154   24597910.5634
       208.0004        135.0004
  23404377.7514   -1544703.13349  -1187528.97545  23404376.5574   23404382.1384
       210.0004        151.0004
 07  2 17 22 45  5.0000000  0 11G22G21G 3G24G18G 7G26G 9G 6G16G14
  21128886.2234   -1077985.51349   -834446.34947  21128885.6374   21128888.2934
       242.0004        203.0004
  20595313.9284    -781712.81249   -611834.93247  20595313.0714   20595316.5754
       245.0004        209.0004
  22748517.1914   -1272257.82849   -977276.06246  22748516.4604   22748521.9294
       222.0004        169.0004
  24302078.1274    -423947.30949   -341488.72445  24302078.1214   24302084.2404
       210.0004        141.0004
  20761569.3844    -750481.87149   -588874.89847  20761568.4054   20761572.0234
       243.0004        210.0004
  22757902.5244    -206153.92949   -175264.44346  22757901.6734   22757908.3574
       218.0004        163.0004
  23732940.7804    -317726.47449   -271041.64145  23732940.8474   23732947.5514
       208.0004        138.0004
  24146615.7094   -1162036.73849   -891456.06845  24146614.7464   24146621.5974
       210.0004        147.0004
  23804764.1504    -169699.74749   -150531.97245  23804764.7944   23804771.2834
       212.0004        148.0004
  24599873.7584    -538299.74249   -426025.12345  24599874.0824   24599878.9794
       208.0004        135.0004
  23400948.4894   -1562723.96249  -1201571.16945  23400947.6214   23400953.0164
       211.0004        151.0004
 07  2 17 22 45 10.0000000  0 11G22G21G 3G24G18G 7G26G 9G 6G16G14
  21127865.3454   -1083350.16649   -838626.59147  21127864.8744   21127867.4774
       241.0004        203.0004
  20595746.7734    -779438.27749   -610062.56547  20595745.9424   20595749.3044
       244.0004        209.0004
  22746580.8504   -1282433.27549   -985204.97246  22746579.8604   22746586.2844
       222.0004        169.0004
  24304332.7904    -412099.21449   -332256.44545  24304333.6104   24304339.5404
       209.0004        140.0004
  20762145.3184    -747455.29949   -586516.52347  20762144.5164   20762148.0984
       243.0004        210.0004
  22761063.0354    -189545.20349   -162322.59046  22761062.0554   22761069.4024
       217.0004        163.0004
  23736259.4964    -300286.83649   -257452.31945  23736259.4304   23736266.8314
       208.0004        138.0004
  24144437.2844   -1173483.81549   -900375.86345  24144436.3054   24144443.5564
       207.0004        147.0004
  23808182.4674    -151736.48149   -136534.63245  23808182.6084   23808188.9564
       211.0004        148.0004
  24601843.1694    -527950.76449   -417960.98845  24601843.2984   24601848.5174
       208.0004        135.0004
  23397520.0924   -1580740.13749  -1215609.73245  23397518.8054   23397525.1194
       213.0004        151.0004
 07  2 17 22 45 15.0000000  0 11G22G21G 3G24G18G 7G26G 9G 6G16G14
  21126846.0594   -1088706.57449   -842800.41047  21126845.3994   21126848.1074
       241.0004        203.0004
  20596181.3164    -777154.75249   -608283.19747  20596180.5214   20596183.9224
       244.0004        209.0004
  22744646.9604   -1292595.95449   -993123.93546  22744645.9894   22744652.3634
       221.0004        170.0004
  24306588.1754    -400247.19149   -323021.11245  24306590.3284   24306594.3484
       207.0004        140.0004
  20762722.5944    -744421.66749   -584152.65347  20762721.7374   20762725.2874
       243.0004        210.0004
  22764224.6234    -172930.84849   -149376.35346  22764223.5764   22764231.3164
       220.0004        163.0004
  23739579.8764    -282838.37449   -243856.11645  23739581.3104   23739587.3504
       212.0004        138.0004
  24142260.2454   -1184923.58549   -909289.96045  24142258.9424   24142266.7894
       206.0004        148.0004
  23811601.3024    -133770.34549   -122535.05345  23811600.7224   23811607.3784
       213.0004        147.0004
  24603813.4604    -517597.32349   -409893.37745  24603813.8044   24603820.0304
       207.0004        136.0004
  23394092.5834   -1598751.76549  -1229644.74845  23394091.0984   23394097.2954
       213.0004        151.0004
 07  2 17 22 45 20.0000000  0 11G22G21G 3G24G18G 7G26G 9G 6G16G14
  21125828.3014   -1094054.79849   -846967.85447  21125827.9644   21125830.3834
       240.0004        203.0004
  20596617.5674    -774862.26949   -606496.84647  20596616.8394   20596620.1354
       243.0004        209.0004
  22742715.4764   -1302746.04249  -1001033.09046  22742715.3864   22742721.0164
       222.0004        170.0004
  24308844.3044    -388391.27549   -313782.73645  24308844.4074   24308850.4824
       206.0004        140.0004
  20763301.1924    -741381.06349   -581783.35347  20763300.0964   20763304.1474
       242.0004        210.0004
  22767387.2734    -156310.97649   -136425.82246  22767384.9774   22767393.3334
       218.0004        163.0004
  23742901.9224    -265381.16549   -230253.10145  23742903.5204   23742909.0234
       208.0004        139.0004
  24140084.6254   -1196356.07249   -918198.38145  24140082.8384   24140091.4654
       207.0004        148.0004
  23815020.6354    -115801.60349   -108533.44145  23815020.3054   23815027.2634
       209.0004        147.0004
  24605784.5304    -507239.59349   -401822.42045  24605784.8204   24605791.1734
       207.0004        136.0004
  23390665.9354   -1616758.87449  -1243676.24845  23390665.4594   23390671.1024
       211.0004        151.0004
 07  2 17 22 45 25.0000000  0 11G22G21G 3G24G18G 7G26G 9G 6G16G14
  21124812.1344   -1099394.91949   -851128.98447  21124811.7574   21124814.3514
       241.0004        203.0004
  20597055.4914    -772560.89649   -604703.56647  20597054.7464   20597058.1014
       244.0004        209.0004
  22740786.3494   -1312883.55249  -1008932.43746  22740785.6824   22740792.0754
       221.0004        170.0004
  24311101.1384    -376531.55249   -304541.39645  24311101.5154   24311107.6694
       207.0004        139.0004
  20763881.1384    -738333.52749   -579408.65047  20763880.3154   20763883.9714
       243.0004        210.0004
  22770550.9254    -139685.67249   -123471.05146  22770550.0064   22770557.0744
       217.0004        163.0004
  23746225.6254    -247915.28349   -216643.32045  23746226.3304   23746232.0634
       208.0004        139.0004
  24137910.3434   -1207781.30849   -927101.14645  24137908.7734   24137916.7774
       208.0004        148.0004
  23818440.4854     -97830.22149    -94529.78545  23818440.4574   23818447.4794
       211.0004        147.0004
  24607756.3784    -496877.61549   -393748.15845  24607757.6944   24607763.0694
       207.0004        136.0004
  23387240.1324   -1634761.52249  -1257704.27245  23387239.5514   23387245.3384
       212.0004        151.0004
 07  2 17 22 45 30.0000000  0 11G22G21G 3G24G18G 7G26G 9G 6G16G14
  21123797.4834   -1104726.89249   -855283.76147  21123797.0804   21123799.6274
       241.0004        203.0004
  20597495.1304    -770250.57249   -602903.31547  20597494.2714   20597497.7684
       244.0004        209.0004
  22738859.6704   -1323008.36249  -1016821.90246  22738859.3954   22738865.6224
       222.0004        170.0004
  24313358.6834    -364667.89549   -295296.98745  24313358.6824   24313364.5654
       209.0004        139.0004
  20764462.3974    -735278.98249   -577028.48647  20764461.5524   20764465.2414
       242.0004        210.0004
  22773715.6674    -123054.80649   -110511.94046  22773714.5854   22773721.6324
       217.0004        163.0004
  23749550.9724    -230440.55849   -203026.66445  23749551.3884   23749558.0514
       209.0004        139.0004
  24135737.5404   -1219199.12049   -935998.12545  24135736.8674   24135743.7544
       208.0004        148.0004
  23821860.8684     -79856.05049    -80523.95445  23821860.0994   23821867.5684
       207.0004        147.0004
  24609729.0414    -486511.29149   -385670.51445  24609729.9684   24609736.4774
       207.0004        137.0004
  23383815.1924   -1652759.57449  -1271728.71945  23383814.2124   23383820.1894
       212.0004        152.0004
 07  2 17 22 45 35.0000000  0 11G22G21G 3G24G18G 7G26G 9G 6G16G14
  21122784.3564   -1110050.80249   -859432.26047  21122783.9014   21122786.5444
       242.0004        203.0004
  20597936.4744    -767931.37449   -601096.14847  20597935.8064   20597939.0614
       245.0004        209.0004
  22736935.3424   -1333120.68349  -1024701.61846  22736934.5484   22736940.3844
       222.0004        170.0004
  24315617.0224    -352800.40949   -286049.59045  24315615.8194   24315621.5404
       209.0004        138.0004
  20765044.9454    -732217.56649   -574642.96347  20765044.1994   20765047.5094
       243.0004        210.0004
  22776881.4604    -106418.53749    -97548.62745  22776879.8544   22776887.2644
       218.0004        162.0004
  23752877.9704    -212957.22649   -189403.29445  23752878.4844   23752885.6764
       211.0004        140.0004
  24133566.1204   -1230609.72349   -944889.49045  24133566.0404   24133572.4614
       212.0004        149.0004
  23825281.7214     -61879.34049    -66516.14045  23825281.9014   23825288.3114
       209.0004        146.0004
  24611702.4824    -476140.80449   -377589.61645  24611703.0234   24611708.9694
       206.0004        137.0004
  23380391.1184   -1670753.19549  -1285749.71045  23380390.2534   23380396.1064
       212.0004        152.0004
 07  2 17 22 45 40.0000000  0 11G22G21G 3G24G18G 7G26G 9G 6G16G14
  21121772.8874   -1115366.20549   -863574.12747  21121772.2814   21121775.1004
       241.0004        203.0004
  20598379.5724    -765602.83449   -599281.70447  20598378.8694   20598382.1864
       244.0004        209.0004
  22735013.5014   -1343219.97449  -1032571.19546  22735013.1784   22735018.9374
       223.0004        170.0004
  24317876.1584    -340928.68849   -276798.89545  24317875.6554   24317881.1664
       207.0004        138.0004
  20765628.9424    -729148.77849   -572251.70147  20765628.1054   20765631.8514
       242.0004        210.0004
  22780048.3214     -89776.44249    -84580.77045  22780046.7424   22780054.0284
       218.0004        162.0004
  23756206.7034    -195464.83549   -175772.86845  23756207.4404   23756214.2434
       212.0004        140.0004
  24131396.2164   -1242012.62649   -953774.85545  24131396.4124   24131402.6334
       212.0004        151.0004
  23828703.1294     -43899.60649    -52505.96745  23828702.4434   23828709.2044
       208.0004        146.0004
  24613676.8244    -465765.65049   -369505.09345  24613677.2464   24613683.2874
       208.0004        138.0004
  23376967.9664   -1688741.87649  -1299766.85145  23376967.1924   23376972.7514
       212.0004        152.0004
 07  2 17 22 45 45.0000000  0 11G22G21G 3G24G18G 7G26G 9G 6G16G14
  21120762.8294   -1120674.00549   -867710.06647  21120762.0114   21120765.1144
       242.0004        204.0004
  20598824.2604    -763265.89749   -597460.70747  20598823.5214   20598826.8804
       244.0004        209.0004
  22733093.9524   -1353307.21249  -1040431.37046  22733093.0974   22733099.1634
       223.0004        171.0004
  24320135.9174    -329053.61849   -267545.59545  24320135.5804   24320141.7574
       204.0004        137.0004
  20766214.1314    -726073.56949   -569855.42447  20766213.3004   20766216.8304
       243.0004        210.0004
  22783216.1674     -73129.40649    -71609.07245  22783214.9484   22783222.8114
       218.0004        162.0004
  23759536.9844    -177964.30449   -162136.09745  23759538.1644   23759544.1734
       212.0004        141.0004
  24129227.6244   -1253408.74049   -962654.92945  24129227.4434   24129233.7174
       212.0004        151.0004
  23832124.9754     -25917.70249    -38494.11245  23832125.1434   23832131.3944
       208.0004        146.0004
  24615651.8684    -455386.79249   -361417.68545  24615652.3094   24615658.6174
       209.0004        137.0004
  23373545.5614   -1706726.51549  -1313780.83545  23373543.9224   23373550.4484
       211.0004        152.0004
 07  2 17 22 45 50.0000000  0 11G22G21G 3G24G18G 7G26G 9G 6G16G14
  21119754.3484   -1125973.57349   -871839.59847  21119753.8394   21119756.2104
       243.0004        203.0004
  20599270.7084    -760919.92349   -595632.67647  20599269.8824   20599273.2554
       245.0004        209.0004
  22731176.8264   -1363381.68149  -1048281.60246  22731176.3444   22731182.0844
       224.0004        171.0004
  24322396.4464    -317174.56249   -258289.19545  24322394.9664   24322403.5734
       203.0004        137.0004
  20766800.6564    -722991.32549   -567453.67447  20766799.7544   20766803.5754
       244.0004        210.0004
  22786385.0054     -56476.89749    -58633.09746  22786384.1744   22786391.3574
       218.0004        163.0004
  23762868.9384    -160454.98649   -148492.47245  23762870.2074   23762875.5564
       211.0004        141.0004
  24127060.4364   -1264797.43949   -971529.23145  24127060.2144   24127066.6454
       213.0004        152.0004
  23835547.3064      -7933.12649    -24480.16845  23835547.3944   23835554.0014
       209.0004        146.0004
  24617627.7604    -445003.65449   -353326.93345  24617628.5404   24617634.4494
       208.0004        138.0004
  23370124.0294   -1724706.54449  -1327791.23145  23370122.6314   23370128.0144
       212.0004        152.0004
 07  2 17 22 45 55.0000000  0 11G22G21G 3G24G18G 7G26G 9G 6G16G14
  21118747.6004   -1131264.18849   -875962.15647  21118747.2564   21118749.6874
       241.0004        203.0004
  20599718.9764    -758564.19249   -593797.04647  20599717.9824   20599721.8074
       243.0004        209.0004
  22729262.2944   -1373442.75449  -1056121.39846  22729262.4994   22729266.7494
       224.0004        171.0004
  24324657.8054    -305290.87149   -249029.18545  24324656.9604   24324664.5334
       202.0004        137.0004
  20767388.6764    -719901.30349   -565045.87447  20767387.8874   20767391.6304
       242.0004        210.0004
  22789555.0454     -39818.11849    -45652.24946  22789553.5504   22789561.1844
       218.0004        163.0004
  23766202.6654    -142936.18349   -134841.46345  23766204.0494   23766208.4854
       213.0004        141.0004
  24124894.7864   -1276177.91649   -980397.12945  24124894.7534   24124901.8264
       211.0004        153.0004
  23838970.3184      10054.93449    -10463.51145  23838969.8854   23838977.4464
       206.0004        146.0004
  24619604.6074    -434615.41849   -345232.21345  24619604.2634   24619611.3744
       207.0004        138.0004
  23366703.5414   -1742681.14049  -1341797.39545  23366702.9284   23366708.3334
       213.0004        152.0004
 07  2 17 22 46  0.0000000  0 11G22G21G 3G24G18G 7G26G 9G 6G16G14
  21117742.2114   -1136547.51449   -880079.02747  21117741.6024   21117744.2764
       240.0004        204.0004
  20600168.8194    -756200.35449   -591955.09447  20600168.0004   20600171.7424
       243.0004        209.0004
  22727349.9944   -1383491.92649  -1063951.91646  22727349.6134   22727355.0294
       224.0004        171.0004
  24326919.7654    -293404.07449   -239766.76745  24326917.9954   24326928.0424
       201.0004        136.0004
  20767977.8424    -716805.18049   -562633.30647  20767976.8894   20767980.7614
       242.0004        210.0004
  22792725.9664     -23154.73549    -32667.80746  22792724.8454   22792732.5524
       217.0004        163.0004
  23769537.9124    -125409.59649   -121184.38345  23769539.5704   23769543.8514
       215.0004        142.0004
  24122730.3874   -1287551.86349   -989259.93745  24122729.9524   24122737.5384
       212.0004        153.0004
  23842393.6114      28044.61949      3554.41045  23842393.3354   23842401.2884
       205.0004        146.0004
  24621582.1004    -424223.78349   -337134.84045  24621582.3534   24621588.6684
       208.0004        138.0004
  23363283.7754   -1760651.97249  -1355800.61645  23363282.7764   23363288.1964
       213.0004        152.0004
 07  2 17 22 46  5.0000000  0 11G22G21G 3G24G18G 7G26G 9G 6G16G14
  21116738.4744   -1141822.24349   -884189.19947  21116738.0164   21116740.4884
       242.0004        204.0004
  20600620.4254    -753827.06849   -590105.78347  20600619.8184   20600623.1484
       244.0004        209.0004
  22725440.2544   -1393527.88449  -1071772.13346  22725439.7554   22725445.3144
       225.0004        172.0004
  24329182.5264    -281512.98849   -230501.00245  24329180.4694   24329188.3884
       204.0004        136.0004
  20768568.4194    -713701.64049   -560214.96247  20768567.6904   20768571.1354
       242.0004        210.0004
  22795898.0054      -6485.47849    -19678.78646  22795897.3094   22795904.7064
       218.0004        163.0004
  23772874.9314    -107873.92449   -107520.22245  23772876.8004   23772881.1254
       216.0004        143.0004
  24120567.4694   -1298917.92149   -998116.59945  24120567.1594   24120574.9584
       211.0004        154.0004
  23845817.5144      46037.48049     17574.80445  23845816.5454   23845824.6144
       207.0004        145.0004
  24623560.5044    -413827.43849   -329033.79345  24623560.5944   24623567.3984
       208.0004        138.0004
  23359864.9734   -1778617.74649  -1369799.91545  23359864.9024   23359869.8764
       214.0004        152.0004
 07  2 17 22 46 10.0000000  0 11G22G21G 3G24G18G 7G26G 9G 6G16G14
  21115736.3134   -1147088.59949   -888292.85247  21115735.6904   21115738.4044
       241.0004        203.0004
  20601073.8024    -751444.56049   -588249.28247  20601072.8044   20601076.6834
       244.0004        209.0004
  22723532.9374   -1403550.96449  -1079582.32346  22723533.0154   22723538.2204
       224.0004        172.0004
  24331446.0524    -269617.70249   -221231.96645  24331443.5424   24331452.4254
       201.0004        135.0004
  20769160.3724    -710590.93849   -557791.03847  20769159.5404   20769163.3304
       242.0004        210.0004
  22799071.1234      10189.38849     -6685.38746  22799070.1324   22799077.3204
       218.0004        163.0004
  23776213.6404     -90329.36749    -93849.14445  23776215.6484   23776219.7554
       215.0004        143.0004
  24118406.0114   -1310276.33849  -1006967.30745  24118405.4154   24118413.8764
       212.0004        154.0004
  23849241.9304      64033.13949     31597.38245  23849242.0934   23849249.2214
       207.0004        146.0004
  24625539.7584    -403426.66349   -320929.30145  24625540.0034   24625546.5414
       208.0004        139.0004
  23356447.1314   -1796578.67649  -1383795.43345  23356447.2384   23356451.3954
       212.0004        152.0004
 07  2 17 22 46 15.0000000  0 11G22G21G 3G24G18G 7G26G 9G 6G16G14
  21114735.6554   -1152347.17949   -892390.44547  21114735.1634   21114737.7144
       241.0004        203.0004
  20601528.8064    -749053.44149   -586386.07947  20601527.9794   20601531.7094
       244.0004        209.0004
  22721628.0194   -1413561.63349  -1087382.83846  22721627.8044   22721633.4194
       222.0004        172.0004
  24333710.2904    -257718.89949   -211960.18945  24333709.0744   24333717.0704
       205.0004        135.0004
  20769753.5754    -707473.66449   -555361.99647  20769752.7694   20769756.4884
       242.0004        210.0004
  22802245.1944      26869.29549      6311.92446  22802244.0054   22802250.5394
       218.0004        163.0004
  23779553.9054     -72776.61749    -80171.68045  23779555.3064   23779559.4854
       213.0004        143.0004
  24116245.9154   -1321627.65949  -1015812.49145  24116245.5314   24116253.1774
       212.0004        154.0004
  23852666.7934      82031.02849     45621.69445  23852666.8924   23852674.2204
       207.0004        145.0004
  24627519.7494    -393022.06349   -312821.83045  24627520.8224   24627526.8114
       209.0004        139.0004
  23353030.0914   -1814535.28949  -1397787.58845  23353029.4244   23353034.8964
       213.0004        153.0004
 07  2 17 22 46 20.0000000  0 11G22G21G 3G24G18G 7G26G 9G 6G16G14
  21113736.5234   -1157597.50949   -896481.60447  21113736.3154   21113738.6984
       241.0004        204.0004
  20601985.5604    -746653.18249   -584515.74447  20601984.7434   20601988.7264
       244.0004        209.0004
  22719725.5004   -1423559.49349  -1095173.37846  22719724.5424   22719730.6194
       225.0004        172.0004
  24335975.2834    -245816.10649   -202685.30845  24335976.8244   24335982.6274
       205.0004        136.0004
  20770348.0974    -704349.34449   -552927.45647  20770347.3484   20770350.9844
       242.0004        210.0004
  22805420.3324      43554.74649     19313.57246  22805419.6474   22805426.6464
       220.0004        163.0004
  23782895.8404     -55215.06849    -66487.35545  23782897.3934   23782901.5174
       214.0004        143.0004
  24114087.2804   -1332971.33749  -1024651.71745  24114087.1454   24114093.9564
       211.0004        153.0004
  23856092.1954     100031.58049     59648.08245  23856091.8714   23856099.2784
       207.0004        145.0004
  24629500.5604    -382613.16549   -304711.00545  24629501.4614   24629507.4394
       209.0004        140.0004
  23349613.9674   -1832487.12549  -1411776.02245  23349612.4504   23349618.9004
       213.0004        153.0004
 07  2 17 22 46 25.0000000  0 11G22G21G 3G24G18G 7G26G 9G 6G16G14
  21112738.9144   -1162840.10449   -900566.73947  21112738.6054   21112740.9704
       243.0004        204.0004
  20602443.9334    -744244.29349   -582638.68847  20602442.9764   20602446.7354
       245.0004        209.0004
  22717825.3584   -1433545.00849  -1102954.28946  22717824.9374   22717830.5124
       226.0004        172.0004
  24338240.9754    -233909.79849   -193407.67745  24338242.2954   24338247.7164
       206.0004        136.0004
  20770943.8794    -701218.44949   -550487.79747  20770942.9754   20770946.5794
       244.0004        210.0004
  22808596.4264      60245.17849     32319.09746  22808595.3784   22808603.0214
       221.0004        163.0004
  23786239.3354     -37645.35749    -52796.68445  23786241.3384   23786244.9834
       218.0004        143.0004
  24111930.0284   -1344307.91849  -1033485.41145  24111929.9284   24111936.2944
       213.0004        153.0004
  23859518.0194     118034.35949     73676.20145  23859518.1094   23859525.3954
       209.0004        145.0004
  24631482.0864    -372200.46349   -296597.22245  24631482.7894   24631488.8864
       208.0004        140.0004
  23346198.6584   -1850434.67749  -1425761.11745  23346197.8744   23346203.3954
       214.0004        153.0004
 07  2 17 22 46 30.0000000  0 11G22G21G 3G24G18G 7G26G 9G 6G16G14
  21111742.9354   -1168073.95349   -904645.05947  21111742.7254   21111745.1954
       241.0004        204.0004
  20602904.1544    -741825.80049   -580754.15347  20602903.4574   20602907.2914
       243.0004        209.0004
  22715927.7314   -1443517.14949  -1110724.78746  22715927.2214   22715932.6364
       223.0004        173.0004
  24340507.5624    -221999.04249   -184126.57745  24340508.9964   24340515.0654
       206.0004        137.0004
  20771541.0984    -698080.03349   -548042.27947  20771540.3124   20771544.0594
       242.0004        210.0004
  22811773.6364      76941.51449     45329.21646  22811772.5194   22811779.7574
       219.0004        163.0004
  23789584.5354     -20066.59649    -39098.94845  23789585.8824   23789590.4994
       216.0004        143.0004
  24109774.2984   -1355636.40649  -1042312.79745  24109774.0014   24109780.5264
       211.0004        152.0004
  23862944.4174     136040.19649     87706.71045  23862944.6474   23862951.3604
       208.0004        145.0004
  24633464.4904    -361783.04949   -288479.76445  24633464.6274   24633471.6564
       209.0004        140.0004
  23342784.3384   -1868376.91949  -1439742.07245  23342783.4174   23342789.5124
       213.0004        153.0004
 07  2 17 22 46 35.0000000  0 11G22G21G 3G24G18G 7G26G 9G 6G16G14
  21110748.4024   -1173300.19149   -908717.45147  21110747.7734   21110750.5354
       241.0004        204.0004
  20603366.0094    -739398.78649   -578862.97347  20603365.3774   20603369.1474
       244.0004        209.0004
  22714032.3974   -1453477.06649  -1118485.75646  22714031.5734   22714037.9504
       223.0004        173.0004
  24342774.7484    -210084.89049   -174842.83445  24342774.4684   24342781.4704
       207.0004        137.0004
  20772139.5194    -694935.23149   -545591.78247  20772138.6084   20772142.5374
       242.0004        210.0004
  22814951.7754      93642.68149     58343.10446  22814950.8284   22814958.1944
       220.0004        163.0004
  23792931.2984      -2479.69649    -25394.87345  23792932.8554   23792937.9124
       214.0004        143.0004
  24107619.8994   -1366957.90749  -1051134.73745  24107619.1834   24107626.3574
       210.0004        152.0004
  23866371.2524     154048.08749    101738.80845  23866371.9944   23866378.7774
       209.0004        145.0004
  24635447.5904    -351361.95549   -280359.43945  24635447.0354   24635454.2754
       208.0004        140.0004
  23339370.8274   -1886314.98649  -1453719.76745  23339370.3404   23339375.2674
       214.0004        153.0004
 07  2 17 22 46 40.0000000  0 11G22G21G 3G24G18G 7G26G 9G 6G16G14
  21109755.5074   -1178517.85949   -912783.16047  21109755.0714   21109757.6734
       242.0004        204.0004
  20603829.6564    -736962.30649   -576964.41747  20603828.8264   20603832.4984
       245.0004        209.0004
  22712139.5974   -1463423.75749  -1126236.41946  22712138.8334   22712144.9744
       225.0004        173.0004
  24345042.7594    -198166.32649   -165555.65045  24345042.5484   24345050.2784
       206.0004        137.0004
  20772739.3564    -691783.04149   -543135.52847  20772738.6124   20772742.2784
       243.0004        210.0004
  22818131.0594     110349.71249     71361.55746  22818130.3674   22818136.9134
       221.0004        163.0004
  23796279.7644      15116.22849    -11683.76745  23796280.6084   23796286.1824
       211.0004        143.0004
  24105467.0244   -1378271.40949  -1059950.44845  24105466.4934   24105473.4964
       211.0004        151.0004
  23869798.6374     172059.00849    115773.27745  23869798.8324   23869805.5444
       207.0004        145.0004
  24637431.5924    -340936.19349   -272235.47545  24637430.5524   24637438.0594
       207.0004        139.0004
  23335958.3144   -1904247.87249  -1467693.43345  23335957.6534   23335963.0864
       213.0004        153.0004
 07  2 17 22 46 45.0000000  0 11G22G21G 3G24G18G 7G26G 9G 6G16G14
  21108764.1174   -1183727.72349   -916842.78847  21108763.6274   21108766.1534
       240.0004        204.0004
  20604294.9664    -734517.10349   -575059.06147  20604294.1644   20604297.7984
       243.0004        209.0004
  22710249.1864   -1473357.94849  -1133977.34046  22710248.2824   22710253.9364
       223.0004        173.0004
  24347311.4474    -186244.19449   -156265.68545  24347310.6884   24347318.8874
       205.0004        137.0004
  20773340.4514    -688624.25949   -540674.13847  20773339.6664   20773343.3044
       242.0004        210.0004
  22821311.2704     127061.76949     84383.94146  22821310.8954   22821316.9484
       220.0004        163.0004
  23799629.7254      32720.38149      2033.73845  23799629.4094   23799636.3624
       212.0004        143.0004
  24103315.5284   -1389577.66949  -1068760.51345  24103315.3024   24103321.6714
       212.0004        151.0004
  23873226.4624     190072.13149    129809.46145  23873225.4904   23873233.8574
       208.0004        145.0004
  24639416.3144    -330506.60649   -264108.53245  24639415.3284   24639422.9584
       206.0004        139.0004
  23332546.6304   -1922176.33249  -1481663.64345  23332545.5954   23332551.4324
       214.0004        153.0004
 07  2 17 22 46 50.0000000  0 11G22G21G 3G24G18G 7G26G 9G 6G16G14
  21107774.2164   -1188929.57649   -920896.17747  21107773.8624   21107776.3864
       242.0004        204.0004
  20604761.9684    -732062.98149   -573146.76647  20604761.2114   20604764.6834
       245.0004        209.0004
  22708361.1534   -1483279.52549  -1141708.44046  22708360.3394   22708365.8044
       224.0004        173.0004
  24349580.8784    -174318.27949   -146972.76845  24349581.4364   24349587.9114
       204.0004        137.0004
  20773942.8604    -685458.68649   -538207.45647  20773941.9794   20773945.9314
       244.0004        210.0004
  22824492.4714     143778.98249     97410.33746  22824491.8734   22824498.6954
       221.0004        163.0004
  23802981.3254      50332.97449     15757.81145  23802981.2394   23802987.9674
       216.0004        144.0004
  24101165.4444   -1400876.48349  -1077564.78045  24101165.6704   24101171.8704
       214.0004        151.0004
  23876654.7574     208087.69649    143847.54845  23876655.3554   23876662.0334
       210.0004        145.0004
  24641401.7654    -320073.06649   -255978.51645  24641401.0034   24641408.3174
       208.0004        139.0004
  23329135.8174   -1940100.16349  -1495630.24945  23329135.0664   23329140.4954
       214.0004        153.0004
 07  2 17 22 46 55.0000000  0 11G22G21G 3G24G18G 7G26G 9G 6G16G14
  21106785.9074   -1194123.20349   -924943.15747  21106785.4764   21106788.0174
       242.0004        204.0004
  20605230.7024    -729599.69849   -571227.32247  20605229.9364   20605233.4434
       245.0004        209.0004
  22706475.5644   -1493188.26049  -1149429.52746  22706475.3344   22706481.3794
       223.0004        173.0004
  24351851.0534    -162388.33349   -137676.71245  24351850.3254   24351858.0204
       204.0004        137.0004
  20774546.5774    -682286.01049   -535735.24447  20774545.7314   20774549.3074
       243.0004        210.0004
  22827674.6904     160501.66849    110440.98746  22827674.4104   22827680.2094
       221.0004        163.0004
  23806334.5164      67954.11049     29488.54745  23806334.8074   23806340.9434
       215.0004        144.0004
  24099016.8474   -1412167.62349  -1086363.06745  24099016.9384   24099023.3694
       214.0004        151.0004
  23880083.5574     226105.86549    157887.66745  23880084.6214   23880090.7224
       209.0004        145.0004
  24643388.0114    -309635.27249   -247845.18145  24643386.6184   24643394.3204
       208.0004        139.0004
  23325725.9664   -1958019.14549  -1509593.08545  23325724.9874   23325730.8214
       212.0004        153.0004
 07  2 17 22 47  0.0000000  0 11G22G21G 3G24G18G 7G26G 9G 6G16G14
  21105799.1314   -1199308.67549   -928983.78047  21105798.7404   21105801.0134
       241.0004        204.0004
  20605701.1814    -727127.37749   -569300.84147  20605700.5804   20605703.9364
       244.0004        209.0004
  22704592.4324   -1503084.08249  -1157140.55446  22704591.6184   22704597.9574
       225.0004        173.0004
  24354121.9814    -150454.42649   -128377.56445  24354120.1734   24354128.9514
       202.0004        137.0004
  20775151.6594    -679106.40749   -533257.63047  20775150.9224   20775154.7284
       242.0004        210.0004
  22830857.9484     177229.68749    123475.78846  22830857.5464   22830863.4374
       219.0004        163.0004
  23809689.3704      85583.79849     43225.95645  23809689.9954   23809694.9704
       214.0004        144.0004
  24096869.6884   -1423451.16349  -1095155.43045  24096869.3744   24096875.9274
       212.0004        150.0004
  23883512.8354     244126.56649    171929.76945  23883513.0784   23883519.3214
       211.0004        144.0004
  24645375.0574    -299193.41949   -239708.68345  24645373.7934   24645382.4744
       206.0004        139.0004
  23322316.9864   -1975933.33849  -1523552.18045  23322315.2374   23322322.0154
       212.0004        153.0004
 07  2 17 22 47  5.0000000  0 11G22G21G 3G24G18G 7G26G 9G 6G16G14
  21104813.8484   -1204486.33949   -933018.31747  21104813.4724   21104815.9214
       241.0004        204.0004
  20606173.3174    -724646.35349   -567367.57647  20606172.6644   20606176.0264
       244.0004        209.0004
  22702711.6984   -1512967.43549  -1164841.86046  22702710.9604   22702716.9094
       223.0004        173.0004
  24356393.5674    -138517.06849   -119075.73645  24356390.5924   24356399.8934
       197.0004        136.0004
  20775757.9444    -675920.25949   -530774.91147  20775757.2534   20775760.8594
       242.0004        210.0004
  22834042.1484     193962.58549    136514.40946  22834040.9824   22834048.4984
       219.0004        163.0004
  23813045.7564     103221.56349     56969.66445  23813046.1714   23813050.5794
       211.0004        144.0004
  24094723.8994   -1434727.47049  -1103942.15545  24094723.3704   24094729.7904
       211.0004        150.0004
  23886942.5094     262149.33849    185973.47745  23886942.3744   23886950.0614
       211.0004        144.0004
  24647362.7854    -288747.89149   -231569.32245  24647361.6874   24647369.5804
       207.0004        139.0004
  23318908.8934   -1993843.11149  -1537507.83345  23318907.7064   23318913.7774
       213.0004        154.0004
 07  2 17 22 47 10.0000000  0 11G22G21G 3G24G18G 7G26G 9G 6G16G14
  21103830.1884   -1209655.54349   -937046.26347  21103829.7634   21103832.1074
       241.0004        204.0004
  20606647.2274    -722155.96749   -565427.01547  20606646.6954   20606649.9624
       244.0004        208.0004
  22700833.4574   -1522837.59549  -1172532.89246  22700832.9104   22700838.7084
       224.0004        173.0004
  24358665.9494    -126575.41349   -109770.56945  24358663.4684   24358673.6294
       201.0004        136.0004
  20776365.6314    -672726.89149   -528286.57447  20776364.8424   20776368.4754
       242.0004        210.0004
  22837227.4054     210701.08249    149557.38346  22837226.5774   22837233.1934
       219.0004        163.0004
  23816403.7884     120868.11449     70720.22345  23816404.5964   23816408.6584
       212.0004        143.0004
  24092579.5944   -1445995.81549  -1112722.67645  24092579.4344   24092585.3904
       212.0004        150.0004
  23890372.6874     280174.93349    200019.38845  23890372.8994   23890379.8364
       209.0004        144.0004
  24649351.3494    -278297.97349   -223426.54345  24649351.0494   24649356.9414
       207.0004        138.0004
  23315501.7434   -2011747.75049  -1551459.48245  23315501.3144   23315506.7984
       212.0004        154.0004
 07  2 17 22 47 15.0000000  0 11G22G21G 3G24G18G 7G26G 9G 6G16G14
  21102848.0524   -1214816.77949   -941068.00247  21102847.5234   21102849.9944
       241.0004        204.0004
  20607122.8374    -719656.66949   -563479.51247  20607122.1064   20607125.5214
       244.0004        208.0004
  22698957.6254   -1532695.12449  -1180214.07446  22698956.5394   22698963.3974
       224.0004        173.0004
  24360939.0504    -114630.02349   -100462.49445  24360939.9424   24360946.7994
       200.0004        135.0004
  20776974.5944    -669526.79749   -525792.99747  20776973.6604   20776977.6534
       243.0004        210.0004
  22840413.6244     227444.71649    162604.36446  22840412.8914   22840419.9344
       219.0004        163.0004
  23819763.4384     138522.96849     84477.24845  23819763.9514   23819768.4334
       212.0004        144.0004
  24090436.7314   -1457256.62849  -1121497.32745  24090436.1284   24090442.1294
       211.0004        149.0004
  23893803.3394     298202.87549    214067.12245  23893803.9944   23893809.9244
       212.0004        144.0004
  24651340.6674    -267844.13049   -215280.70545  24651340.5324   24651346.3084
       207.0004        139.0004
  23312095.4994   -2029647.67749  -1565407.46945  23312095.5524   23312100.4524
       214.0004        154.0004
 07  2 17 22 47 20.0000000  0 11G22G21G 3G24G18G 7G26G 9G 6G16G14
  21101867.5034   -1219969.50849   -945083.11147  21101866.9614   21101869.3864
       241.0004        204.0004
  20607600.2524    -717147.87649   -561524.60947  20607599.4364   20607602.9164
       244.0004        208.0004
  22697084.3504   -1542539.36749  -1187884.90946  22697083.4964   22697089.7554
       224.0004        173.0004
  24363213.0164    -102680.25549    -91151.00645  24363213.1494   24363219.7834
       201.0004        135.0004
  20777584.9434    -666319.38449   -523293.71147  20777584.1884   20777587.8934
       242.0004        210.0004
  22843600.9344     244194.00649    175655.74945  22843599.9854   22843606.6404
       219.0004        162.0004
  23823124.7424     156186.65349     98241.14645  23823125.5834   23823129.9924
       213.0004        143.0004
  24088295.4124   -1468509.32549  -1130265.64745  24088294.4714   24088300.8164
       211.0004        149.0004
  23897234.5234     316233.60349    228117.03245  23897234.8194   23897240.5194
       210.0004        143.0004
  24653330.8044    -257385.84649   -207131.40545  24653330.7344   24653336.5304
       207.0004        139.0004
  23308690.2754   -2047542.37249  -1579351.36945  23308690.5394   23308695.1534
       214.0004        154.0004
 07  2 17 22 47 25.0000000  0 11G22G21G 3G24G18G 7G26G 9G 6G16G14
  21100888.4514   -1225114.52649   -949092.21447  21100887.7194   21100890.3364
       240.0004        204.0004
  20608079.3044    -714630.44849   -559562.97747  20608078.5044   20608082.2364
       243.0004        208.0004
  22695213.4164   -1552371.18049  -1195546.06346  22695212.6114   22695218.5624
       223.0004        173.0004
  24365487.6184     -90727.03249    -81836.82545  24365487.0744   24365493.7314
       201.0004        135.0004
  20778196.5274    -663105.52549   -520789.40347  20778195.8244   20778199.5124
       242.0004        210.0004
  22846789.1694     260948.15749    188710.92445  22846787.7984   22846795.8974
       219.0004        162.0004
  23826487.6164     173858.29449    112011.24645  23826488.6554   23826492.8684
       213.0004        144.0004
  24086155.4484   -1479754.76249  -1139028.31845  24086154.7024   24086161.0774
       212.0004        149.0004
  23900666.0824     334266.38549    242168.54245  23900665.4944   23900673.3724
       213.0004        143.0004
  24655321.6284    -246923.93149   -198979.27445  24655321.2964   24655327.0634
       207.0004        139.0004
  23305285.8834   -2065432.65749  -1593291.83945  23305285.5574   23305291.1634
       213.0004        154.0004
 07  2 17 22 47 30.0000000  0 11G22G21G 3G24G18G 7G26G 9G 6G16G14
  21099910.9594   -1230251.17549   -953094.79847  21099910.6064   21099912.9384
       240.0004        203.0004
  20608560.1244    -712103.67049   -557594.06147  20608559.4014   20608562.8524
       243.0004        208.0004
  22693344.9974   -1562189.82749  -1203196.94046  22693344.4854   22693350.5504
       223.0004        173.0004
  24367763.0204     -78769.63949    -72519.38545  24367761.7504   24367769.3894
       203.0004        135.0004
  20778809.4384    -659884.51149   -518279.52847  20778808.7504   20778812.2204
       242.0004        210.0004
  22849978.4524     277707.78149    201770.36145  22849977.8894   22849984.7874
       218.0004        162.0004
  23829852.1244     191538.69249    125788.17845  23829852.7164   23829857.3574
       213.0004        144.0004
  24084017.0124   -1490992.21049  -1147784.76345  24084016.4324   24084023.0124
       213.0004        150.0004
  23904098.1834     352301.89849    256222.17245  23904098.0574   23904105.4104
       213.0004        143.0004
  24657313.2624    -236457.74349   -190823.81145  24657312.6084   24657318.8034
       206.0004        139.0004
  23301882.4764   -2083317.79449  -1607228.29245  23301882.3734   23301886.8174
       213.0004        154.0004
 07  2 17 22 47 35.0000000  0 11G22G21G 3G24G18G 7G26G 9G 6G16G14
  21098934.9544   -1235380.05449   -957091.31847  21098934.3024   21098937.1114
       241.0004        203.0004
  20609042.5984    -709568.16149   -555618.33947  20609041.9774   20609045.2234
       244.0004        208.0004
  22691478.9584   -1571995.98149  -1210838.10146  22691478.5764   22691484.1984
       223.0004        173.0004
  24370039.0974     -66808.69349    -63199.16945  24370038.9134   24370045.9524
       207.0004        136.0004
  20779423.6254    -656656.98749   -515764.57147  20779422.7254   20779426.5294
       242.0004        210.0004
  22853168.6584     294472.31349    214833.61446  22853167.2624   22853174.3974
       218.0004        163.0004
  23833218.1834     209227.13149    139571.37245  23833217.5874   23833223.3654
       213.0004        144.0004
  24081880.0264   -1502222.25749  -1156535.44445  24081880.0814   24081886.4394
       214.0004        150.0004
  23907530.6244     370339.47249    270277.41345  23907531.0114   23907536.3404
       213.0004        143.0004
  24659305.5964    -225987.88949   -182665.49345  24659305.2084   24659310.9284
       206.0004        139.0004
  23298479.8964   -2101198.39749  -1621161.21445  23298478.8894   23298483.8874
       213.0004        154.0004
 07  2 17 22 47 40.0000000  0 11G22G21G 3G24G18G 7G26G 9G 6G16G14
  21097960.5054   -1240500.63749   -961081.37847  21097960.0364   21097962.5704
       241.0004        203.0004
  20609526.8574    -707023.42949   -553635.43247  20609526.2024   20609529.6554
       243.0004        208.0004
  22689615.4194   -1581788.99549  -1218469.02746  22689614.7974   22689620.8864
       223.0004        173.0004
  24372315.9514     -54843.64549    -53875.76345  24372315.4174   24372324.3024
       204.0004        137.0004
  20780039.1404    -653422.41749   -513244.12747  20780038.5594   20780041.9214
       242.0004        210.0004
  22856359.8394     311242.21749    227901.06245  22856359.1224   22856365.9984
       218.0004        162.0004
  23836585.8434     226924.16449    153361.26345  23836585.0364   23836591.1404
       212.0004        144.0004
  24079744.5434   -1513444.38249  -1165279.94945  24079744.2704   24079751.0054
       214.0004        151.0004
  23910963.5704     388379.61649    284334.66745  23910963.1554   23910969.6224
       213.0004        143.0004
  24661298.7404    -215513.86849   -174503.92845  24661297.6894   24661304.1554
       206.0004        138.0004
  23295078.2834   -2119073.97749  -1635090.21845  23295077.6834   23295082.4134
       213.0004        154.0004
 07  2 17 22 47 45.0000000  0 11G22G21G 3G24G18G 7G26G 9G 6G16G14
  21096987.5834   -1245613.37049   -965065.32447  21096987.0904   21096989.7264
       241.0004        204.0004
  20610012.7674    -704469.87149   -551645.64747  20610012.0764   20610015.7264
       244.0004        208.0004
  22687754.2914   -1591569.39849  -1226090.10546  22687753.8954   22687759.8124
       224.0004        173.0004
  24374593.5084     -42874.99449    -44549.55645  24374593.9604   24374602.0594
       206.0004        137.0004
  20780655.8994    -650181.27349   -510718.55947  20780655.2624   20780658.6164
       242.0004        210.0004
  22859551.9694     328017.05649    240972.35145  22859551.1024   22859558.3544
       218.0004        162.0004
  23839954.9974     244629.22249    167157.40345  23839955.0334   23839960.3604
       216.0004        144.0004
  24077610.4814   -1524659.01849  -1174018.61845  24077610.0474   24077617.2094
       213.0004        152.0004
  23914396.9234     406421.93549    298393.61545  23914397.9374   23914403.2534
       212.0004        142.0004
  24663292.5714    -205036.14749   -166339.48345  24663291.9384   24663299.1554
       205.0004        138.0004
  23291677.5354   -2136944.86449  -1649015.57145  23291677.0184   23291682.7624
       215.0004        154.0004
 07  2 17 22 47 50.0000000  0 11G22G21G 3G24G18G 7G26G 9G 6G16G14
  21096016.2504   -1250717.67349   -969042.70047  21096016.0924   21096018.3054
       241.0004        204.0004
  20610500.4964    -701906.87649   -549648.51447  20610499.9284   20610503.7084
       244.0004        208.0004
  22685895.6624   -1601336.57049  -1233700.89246  22685895.2424   22685901.3604
       224.0004        173.0004
  24376871.9124     -30902.05849    -35220.00545  24376873.1624   24376879.6384
       205.0004        138.0004
  20781274.0454    -646932.93549   -508187.38847  20781273.4944   20781276.9084
       242.0004        210.0004
  22862745.1604     344797.44749    254047.97945  22862744.3414   22862750.8544
       218.0004        162.0004
  23843325.8444     262342.97549    180960.32845  23843326.2594   23843331.8384
       218.0004        145.0004
  24075477.9544   -1535865.55049  -1182750.96645  24075477.2944   24075484.1444
       212.0004        152.0004
  23917830.8164     424466.92349    312454.64245  23917831.3104   23917837.2124
       211.0004        142.0004
  24665287.2604    -194554.11349   -158171.67345  24665286.4284   24665293.5844
       207.0004        137.0004
  23288277.8234   -2154810.51549  -1662936.84545  23288277.2214   23288283.1034
       215.0004        155.0004
 07  2 17 22 47 55.0000000  0 11G22G21G 3G24G18G 7G26G 9G 6G16G14
  21095046.3124   -1255814.80549   -973014.48147  21095045.9044   21095048.1614
       241.0004        204.0004
  20610989.7974    -699335.69449   -547644.98747  20610989.0394   20610992.6684
       244.0004        209.0004
  22684039.3334   -1611091.74549  -1241302.31746  22684038.9274   22684044.1184
       224.0004        173.0004
  24379150.9074     -18926.18149    -25888.16145  24379150.8954   24379158.5774
       205.0004        138.0004
  20781893.3094    -643678.67749   -505651.59547  20781892.3554   20781895.8964
       242.0004        210.0004
  22865939.1594     361582.04349    267126.87345  22865938.4504   22865944.4994
       218.0004        162.0004
  23846698.0904     280064.11449    194769.00545  23846698.6844   23846704.4674
       215.0004        146.0004
  24073346.7174   -1547065.25449  -1191477.99345  24073345.9194   24073352.5214
       213.0004        153.0004
  23921264.9584     442513.38849    326516.81345  23921265.7624   23921270.9544
       209.0004        142.0004
  24667282.5254    -184069.10549   -150001.54545  24667281.6064   24667289.3094
       206.0004        137.0004
  23284878.8214   -2172672.17649  -1676855.01145  23284878.0544   23284883.7514
       213.0004        155.0004
 07  2 17 22 48  0.0000000  0 11G22G21G 3G24G18G 7G26G 9G 6G16G14
  21094078.1434   -1260902.46249   -976978.89247  21094078.0844   21094080.4184
       241.0004        204.0004
  20611481.0824    -696753.99849   -545633.28547  20611480.5794   20611484.2114
       244.0004        209.0004
  22682185.7014   -1620832.63549  -1248892.61546  22682185.3104   22682190.6674
       223.0004        173.0004
  24381430.8904      -6945.01649    -16552.19645  24381431.0274   24381437.4294
       205.0004        138.0004
  20782514.1354    -640416.20049   -503109.41047  20782513.3754   20782517.1374
       243.0004        210.0004
  22869134.3754     378373.15549    280210.84345  22869133.6684   22869141.1184
       219.0004        162.0004
  23850072.1684     297794.95049    208585.22945  23850072.4884   23850078.2204
       215.0004        146.0004
  24071217.2154   -1558255.79849  -1200197.88745  24071216.5244   24071222.9124
       214.0004        153.0004
  23924699.8074     460563.60549    340581.91045  23924700.7244   23924706.0114
       210.0004        141.0004
  24669278.7994    -173578.78849   -141827.28145  24669277.2954   24669285.7964
       206.0004        137.0004
  23281481.0604   -2190527.54949  -1690768.27545  23281480.0874   23281485.2854
       214.0004        155.0004
 07  2 17 22 48  5.0000000  0 11G22G21G 3G24G18G 7G26G 9G 6G16G14
  21093111.3994   -1265982.84149   -980937.62547  21093111.1034   21093113.4234
       241.0004        204.0004
  20611973.9504    -694164.03449   -543615.13547  20611973.3484   20611976.7934
       244.0004        209.0004
  22680334.3764   -1630561.43349  -1256473.48846  22680333.0424   22680338.8464
       224.0004        173.0004
  24383711.4764       5039.26649     -7213.80345  24383710.4694   24383718.2584
       206.0004        138.0004
  20783136.1274    -637147.69949   -500562.52247  20783135.4754   20783139.0844
       242.0004        210.0004
  22872330.4734     395168.65449    293298.23145  22872329.9054   22872336.7324
       218.0004        162.0004
  23853447.6834     315533.24649    222407.26245  23853447.8524   23853452.8834
       215.0004        146.0004
  24069089.0484   -1569439.36349  -1208912.34145  24069088.7174   24069095.1154
       211.0004        153.0004
  23928134.9874     478615.33949    354648.18745  23928135.2974   23928141.4224
       206.0004        141.0004
  24671275.6424    -163085.34749   -133650.57845  24671275.3514   24671282.8744
       207.0004        136.0004
  23278084.0674   -2208378.81349  -1704678.33745  23278083.1384   23278088.6714
       213.0004        155.0004
 07  2 17 22 48 10.0000000  0 11G22G21G 3G24G18G 7G26G 9G 6G16G14
  21092146.2064   -1271055.00549   -984889.95847  21092145.9814   21092148.2524
       241.0004        204.0004
  20612468.5494    -691564.86749   -541589.81347  20612468.0354   20612471.3234
       244.0004        209.0004
  22678485.5284   -1640277.20149  -1264044.21146  22678484.7024   22678490.5124
       223.0004        173.0004
  24385992.7884      17027.53549      2127.69545  24385992.0694   24385999.5604
       203.0004        139.0004
  20783759.4104    -633872.25249   -498010.23247  20783758.7434   20783762.5734
       243.0004        210.0004
  22875527.5454     411969.35449    306389.67845  22875527.8824   22875533.5054
       219.0004        162.0004
  23856824.7744     333279.92149    236235.83345  23856824.9844   23856829.8134
       217.0004        146.0004
  24066962.3674   -1580615.02249  -1217620.64145  24066961.7494   24066968.4994
       211.0004        153.0004
  23931570.5684     496669.49349    368716.33945  23931570.8284   23931576.5294
       207.0004        140.0004
  24673273.2734    -152587.88649   -125470.74745  24673273.2884   24673280.7094
       208.0004        137.0004
  23274688.0314   -2226225.02149  -1718584.45945  23274686.8804   23274692.2154
       215.0004        155.0004
 07  2 17 22 48 15.0000000  0 11G22G21G 3G24G18G 7G26G 9G 6G16G14
  21091182.5374   -1276119.08649   -988835.98947  21091182.3884   21091184.5164
       242.0004        204.0004
  20612964.8904    -688956.59649   -539557.39247  20612964.3424   20612967.7254
       245.0004        209.0004
  22676639.1224   -1649980.02649  -1271604.84646  22676638.7304   22676643.6564
       225.0004        173.0004
  24388274.8384      29019.71949     11472.24545  24388274.6894   24388281.5354
       208.0004        139.0004
  20784384.0214    -630590.00049   -495452.62847  20784383.3614   20784387.0104
       243.0004        210.0004
  22878725.6274     428775.19449    319485.12645  22878724.2994   22878731.8384
       218.0004        162.0004
  23860203.4644     351034.83849    250070.82345  23860204.2744   23860207.8394
       218.0004        147.0004
  24064837.1954   -1591782.89449  -1226322.87445  24064836.2514   24064843.8224
       212.0004        153.0004
  23935006.6434     514725.98249    382786.33045  23935006.1204   23935012.9084
       207.0004        139.0004
  24675271.6304    -142086.57749   -117287.91645  24675272.0954   24675277.9024
       208.0004        137.0004
  23271292.9414   -2244066.26649  -1732486.71445  23271291.8804   23271298.3274
       214.0004        155.0004
 07  2 17 22 48 20.0000000  0 11G22G21G 3G24G18G 7G26G 9G 6G16G14
  21090220.3494   -1281175.44849   -992776.00647  21090219.9354   21090222.4094
       242.0004        204.0004
  20613462.9144    -686339.58049   -537518.15647  20613462.1174   20613465.5914
       244.0004        209.0004
  22674795.1504   -1659670.25949  -1279155.67146  22674794.1974   22674799.8374
       224.0004        173.0004
  24390557.5684      41015.42749     20819.53645  24390558.3884   24390565.0524
       208.0004        139.0004
  20785009.8494    -627301.27749   -492889.98347  20785009.0284   20785012.5384
       243.0004        210.0004
  22881924.5754     445585.75649    332584.26245  22881923.3844   22881931.0674
       217.0004        162.0004
  23863583.6594     368797.67749    263912.00345  23863584.4644   23863588.2284
       218.0004        148.0004
  24062713.4504   -1602943.26149  -1235019.25145  24062713.0904   24062720.0194
       211.0004        152.0004
  23938443.0444     532784.43649    396857.83545  23938444.3504   23938448.6604
       204.0004        139.0004
  24677270.6714    -131581.71349   -109102.31445  24677270.5414   24677277.2184
       207.0004        137.0004
  23267898.7194   -2261902.89149  -1746385.36545  23267897.3904   23267903.5664
       214.0004        155.0004
 07  2 17 22 48 25.0000000  0 11G22G21G 3G24G18G 7G26G 9G 6G16G14
  21089259.8024   -1286223.21749   -996709.32847  21089259.2804   21089261.8894
       242.0004        204.0004
  20613962.7624    -683712.93049   -535471.41847  20613962.1114   20613965.5544
       244.0004        209.0004
  22672953.7214   -1669347.00649  -1286695.99646  22672952.8714   22672958.8244
       224.0004        173.0004
  24392841.1814      53015.58949     30170.29745  24392841.6674   24392849.5884
       207.0004        139.0004
  20785637.0734    -624005.21949   -490321.62547  20785636.4334   20785639.8614
       243.0004        210.0004
  22885124.6344     462401.97249    345687.79045  22885123.3694   22885131.1464
       218.0004        162.0004
  23866965.5244     386569.29649    277760.02345  23866966.2434   23866970.9274
       217.0004        149.0004
  24060591.3204   -1614095.14749  -1243709.01845  24060591.0994   24060598.1004
       212.0004        152.0004
  23941879.9704     550845.66349    410931.52145  23941879.3424   23941886.5644
       202.0004        138.0004
  24679270.5684    -121072.46449   -100913.29445  24679270.3074   24679276.8394
       207.0004        137.0004
  23264505.5564   -2279734.00149  -1760279.72345  23264505.0884   23264510.9824
       215.0004        155.0004
 07  2 17 22 48 30.0000000  0 11G22G21G 3G24G18G 7G26G 9G 6G16G14
  21088300.7634   -1291263.07849  -1000636.49047  21088300.3334   21088302.7604
       241.0004        204.0004
  20614464.2994    -681077.28749   -533417.67647  20614463.6344   20614466.9794
       244.0004        209.0004
  22671114.7294   -1679010.96649  -1294226.35146  22671113.3754   22671119.4464
       224.0004        173.0004
  24395125.4894      65019.50649     39523.99245  24395126.0264   24395133.5174
       204.0004        139.0004
  20786265.5564    -620702.51349   -487748.08747  20786264.9184   20786268.4804
       243.0004        210.0004
  22888325.6084     479223.10849    358795.15145  22888324.9424   22888332.0904
       219.0004        162.0004
  23870348.9324     404348.97749    291614.32045  23870348.9814   23870354.2914
       214.0004        149.0004
  24058470.6494   -1625239.33849  -1252392.79645  24058470.2484   24058476.7524
       210.0004        151.0004
  23945317.2984     568909.04849    425006.87445  23945316.9124   23945323.3404
       203.0004        137.0004
  24681271.1294    -110559.52849    -92721.39545  24681270.2224   24681277.7054
       206.0004        137.0004
  23261113.3254   -2297560.33249  -1774170.35445  23261112.9974   23261118.2764
       215.0004        155.0004
 07  2 17 22 48 35.0000000  0 11G22G21G 3G24G18G 7G26G 9G 6G16G14
  21087343.2044   -1296295.08849  -1004557.53447  21087342.8864   21087345.2054
       241.0004        204.0004
  20614967.5464    -678432.74649   -531356.99347  20614966.9554   20614970.4764
       244.0004        209.0004
  22669278.1454   -1688662.18949  -1301746.77146  22669277.7764   22669283.5854
       225.0004        173.0004
  24397410.4744      77027.09849     48880.54945  24397411.1044   24397416.5674
       204.0004        138.0004
  20786895.3054    -617393.21649   -485169.41647  20786894.7524   20786898.1654
       243.0004        210.0004
  22891527.4984     496049.12349    371906.32545  22891527.2054   22891534.0014
       217.0004        162.0004
  23873733.8344     422136.63549    305474.82045  23873733.4584   23873739.5734
       215.0004        149.0004
  24056351.4204   -1636375.86149  -1261070.59745  24056350.4154   24056357.2634
       209.0004        151.0004
  23948755.0204     586974.55549    439083.88445  23948752.9534   23948762.4524
       203.0004        137.0004
  24683272.4104    -100042.99349    -84526.69845  24683271.0074   24683278.9264
       206.0004        136.0004
  23257721.9904   -2315381.85449  -1788057.23845  23257721.5944   23257727.1534
       216.0004        155.0004
 07  2 17 22 48 40.0000000  0 11G22G21G 3G24G18G 7G26G 9G 6G16G14
  21086387.2644   -1301318.61349  -1008471.96147  21086386.7884   21086389.1994
       241.0004        204.0004
  20615472.6324    -675778.60649   -529288.83247  20615472.0764   20615475.6124
       243.0004        209.0004
  22667444.1024   -1698300.02249  -1309256.77146  22667443.7654   22667448.5954
       223.0004        173.0004
  24399696.2494      89038.98649     58240.44845  24399695.7924   24399701.5904
       205.0004        137.0004
  20787526.4274    -614076.70949   -482585.12347  20787525.7854   20787529.3184
       242.0004        210.0004
  22894730.4354     512880.57549    385021.73245  22894729.7384   22894736.6824
       217.0004        162.0004
  23877120.3204     439932.81549    319341.95245  23877119.2244   23877126.1554
       213.0004        149.0004
  24054233.7914   -1647504.03349  -1269741.89045  24054233.0114   24054239.8084
       210.0004        150.0004
  23952193.2634     605042.75249    453162.98345  23952191.2434   23952201.0994
       202.0004        136.0004
  24685274.4964     -89522.19049    -76328.68045  24685273.5614   24685280.9584
       204.0004        136.0004
  23254331.6894   -2333197.97949  -1801939.92245  23254331.0324   23254336.9974
       214.0004        155.0004
 07  2 17 22 48 45.0000000  0 11G22G21G 3G24G18G 7G26G 9G 6G16G14
  21085432.7624   -1306334.46449  -1012380.41647  21085432.4294   21085434.7044
       242.0004        204.0004
  20615979.3724    -673115.64149   -527213.79847  20615978.5154   20615982.0934
       244.0004        208.0004
  22665612.4744   -1707925.25149  -1316756.94746  22665611.5244   22665617.3924
       224.0004        173.0004
  24401982.6974     101054.41349     67603.11345  24401981.8594   24401987.7834
       206.0004        137.0004
  20788158.7804    -610753.80449   -479995.84647  20788157.9584   20788161.6354
       243.0004        210.0004
  22897934.2394     529716.67049    398140.75245  22897933.1414   22897940.8524
       217.0004        162.0004
  23880508.3184     457736.87449    333215.22745  23880507.9584   23880513.6004
       215.0004        149.0004
  24052117.5964   -1658624.69449  -1278407.32945  24052116.8364   24052123.6854
       209.0004        150.0004
  23955631.8264     623112.70649    467243.45245  23955631.1224   23955638.3064
       201.0004        136.0004
  24687277.1764     -78998.02049    -68128.03745  24687276.7444   24687283.0424
       203.0004        136.0004
  23250942.2754   -2351009.45649  -1815818.98145  23250941.2784   23250946.9634
       215.0004        156.0004
 07  2 17 22 48 50.0000000  0 11G22G21G 3G24G18G 7G26G 9G 6G16G14
  21084479.7904   -1311342.29249  -1016282.61747  21084479.4794   21084481.7914
       242.0004        204.0004
  20616487.8444    -670443.63149   -525131.71747  20616487.2334   20616490.6644
       244.0004        208.0004
  22663783.3284   -1717537.54149  -1324247.05046  22663782.2504   22663788.2804
       223.0004        173.0004
  24404269.8534     113073.67849     76968.76945  24404269.3064   24404275.4914
       208.0004        137.0004
  20788792.3874    -607424.11049   -477401.28147  20788791.4194   20788795.3274
       242.0004        210.0004
  22901138.9844     546557.76049    411263.66245  22901138.0724   22901145.2604
       218.0004        162.0004
  23883897.8614     475548.96949    347094.77345  23883897.6824   23883903.4824
       215.0004        150.0004
  24050002.8794   -1669737.47649  -1287066.62945  24050002.4004   24050009.3524
       210.0004        149.0004
  23959070.8524     641184.87349    481325.64745  23959070.3714   23959078.0634
       204.0004        136.0004
  24689280.5884     -68470.07949    -59924.45945  24689280.5274   24689286.1744
       203.0004        135.0004
  23247553.8244   -2368815.89849  -1829694.11645  23247553.0844   23247558.5844
       216.0004        156.0004
 07  2 17 22 48 55.0000000  0 11G22G21G 3G24G18G 7G26G 9G 6G16G14
  21083528.4354   -1316341.78349  -1020178.31747  21083528.2974   21083530.7664
       243.0004        204.0004
  20616998.0684    -667762.23449   -523042.31247  20616997.5704   20617000.9294
       245.0004        208.0004
  22661956.6724   -1727136.55949  -1331726.78446  22661956.6644   22661961.4764
       227.0004        173.0004
  24406557.8284     125097.14349     86337.69145  24406557.8924   24406563.9194
       208.0004        137.0004
  20789427.3524    -604087.35249   -474801.20747  20789426.7094   20789430.4164
       244.0004        210.0004
  22904344.7854     563404.18549    424390.73645  22904344.8624   22904350.4664
       219.0004        162.0004
  23887289.0334     493369.50849    360980.90245  23887289.2044   23887294.2184
       217.0004        150.0004
  24047889.7224   -1680842.00949  -1295719.50345  24047889.4034   24047896.1764
       211.0004        149.0004
  23962510.3204     659259.56749    495409.80645  23962510.9094   23962517.8524
       206.0004        136.0004
  24691284.7584     -57938.07849    -51717.72245  24691284.9394   24691290.1534
       204.0004        135.0004
  23244166.3784   -2386617.00949  -1843565.09445  23244165.7594   23244170.9784
       218.0004        156.0004
 07  2 17 22 49  0.0000000  0 11G22G21G 3G24G18G 7G26G 9G 6G16G14
  21082578.6014   -1321333.20349  -1024067.73447  21082578.2854   21082580.5524
       240.0004        204.0004
  20617510.0614    -665071.70549   -520945.79847  20617509.1354   20617512.7344
       243.0004        208.0004
  22660132.5304   -1736722.38549  -1339196.26246  22660132.1274   22660137.1724
       223.0004        173.0004
  24408846.5724     137124.47949     95709.62645  24408846.7174   24408851.7734
       208.0004        137.0004
  20790063.5944    -600743.85749   -472195.88647  20790062.8094   20790066.6524
       242.0004        210.0004
  22907551.5344     580255.59449    437521.69945  22907550.4834   22907557.7424
       217.0004        162.0004
  23890681.7434     511198.17749    374873.36345  23890682.1054   23890686.9324
       212.0004        151.0004
  24045778.0694   -1691938.59349  -1304366.18445  24045777.7844   24045783.5214
       208.0004        148.0004
  23965950.2674     677336.52349    509495.73445  23965949.5884   23965957.1924
       206.0004        137.0004
  24693289.6134     -47402.36549    -43508.09145  24693289.5614   24693295.9684
       200.0004        134.0004
  23240779.9344   -2404413.07249  -1857432.14945  23240779.1834   23240784.2664
       214.0004        156.0004
 07  2 17 22 49  5.0000000  0 11G22G21G 3G24G18G 7G26G 9G 6G16G14
  21081630.2534   -1326316.90849  -1027951.13947  21081629.8914   21081632.2464
       241.0004        204.0004
  20618023.7144    -662372.38949   -518842.44047  20618022.9804   20618026.5254
       243.0004        208.0004
  22658310.8524   -1746295.47949  -1346655.81646  22658310.4984   22658315.7644
       224.0004        173.0004
  24411135.9664     149155.39749    105084.35145  24411135.9624   24411141.7524
       209.0004        137.0004
  20790701.0804    -597393.94649   -469585.56847  20790700.3184   20790703.9544
       242.0004        210.0004
  22910759.1594     597111.68549    450656.30245  22910758.2324   22910765.5264
       218.0004        161.0004
  23894075.9254     529034.60849    388771.86445  23894075.9054   23894081.0704
       213.0004        151.0004
  24043667.8994   -1703027.50349  -1313006.88445  24043667.2764   24043673.6024
       210.0004        148.0004
  23969390.5774     695415.36649    523583.12845  23969390.4264   23969398.5934
       204.0004        137.0004
  24695295.1404     -36863.17149    -35295.74445  24695295.1434   24695301.8894
       202.0004        134.0004
  23237394.3684   -2422204.35849  -1871295.47545  23237393.2974   23237398.6604
       216.0004        156.0004
 07  2 17 22 49 10.0000000  0 11G22G21G 3G24G18G 7G26G 9G 6G16G14
  21080683.5224   -1331292.05149  -1031827.86847  21080683.2374   21080685.5874
       243.0004        204.0004
  20618539.2394    -659663.41849   -516731.55247  20618538.5634   20618542.2284
       245.0004        208.0004
  22656491.6864   -1755855.15649  -1354104.90846  22656491.7174   22656496.4064
       225.0004        174.0004
  24413426.2404     161190.73149    114462.52945  24413425.5074   24413432.4664
       210.0004        138.0004
  20791339.9384    -594036.76049   -466969.57947  20791339.3254   20791342.9164
       244.0004        210.0004
  22913967.8234     613973.27149    463795.18345  22913967.7804   22913973.6214
       220.0004        162.0004
  23897471.7264     546879.64049    402677.06845  23897471.8054   23897477.3234
       216.0004        151.0004
  24041559.3454   -1714107.91649  -1321640.96745  24041558.4454   24041564.8494
       209.0004        147.0004
  23972831.4014     713496.84249    537672.57845  23972831.2044   23972838.2994
       204.0004        138.0004
  24697301.4664     -26319.75049    -27080.10845  24697301.8044   24697308.8854
       205.0004        134.0004
  23234009.8594   -2439990.05249  -1885154.44645  23234009.5704   23234014.7274
       218.0004        156.0004
 07  2 17 22 49 15.0000000  0 11G22G21G 3G24G18G 7G26G 9G 6G16G14
  21079738.2304   -1336259.57649  -1035698.66547  21079737.8414   21079740.1914
       242.0004        204.0004
  20619056.3994    -656945.69949   -514613.85247  20619055.6154   20619059.2984
       244.0004        208.0004
  22654674.9434   -1765402.23549  -1361544.18946  22654674.4354   22654680.0254
       225.0004        174.0004
  24415717.1904     173229.53249    123843.40945  24415716.6114   24415724.2204
       210.0004        138.0004
  20791979.9924    -590673.25449   -464348.66647  20791979.0824   20791982.8204
       243.0004        210.0004
  22917177.3674     630839.40049    476937.61945  22917176.3994   22917183.6554
       219.0004        162.0004
  23900868.9964     564732.31649    416588.23445  23900869.5324   23900874.7724
       213.0004        151.0004
  24039452.2064   -1725180.75149  -1330269.14345  24039450.8444   24039458.2514
       211.0004        147.0004
  23976272.5564     731580.17049    551763.47345  23976273.0024   23976278.9034
       203.0004        138.0004
  24699308.4324     -15773.05949    -18861.91945  24699308.7044   24699314.8744
       204.0004        134.0004
  23230626.2324   -2457771.07549  -1899009.77245  23230626.5624   23230630.9354
       215.0004        156.0004
 07  2 17 22 49 20.0000000  0 11G22G21G 3G24G18G 7G26G 9G 6G16G14
  21078794.4914   -1341218.94449  -1039563.10147  21078794.1244   21078796.5324
       241.0004        204.0004
  20619575.3284    -654218.70949   -512488.92547  20619574.7054   20619578.2134
       243.0004        208.0004
  22652860.6864   -1774936.07549  -1368973.15046  22652860.1814   22652866.4414
       225.0004        174.0004
  24418008.9044     185272.34549    133227.41145  24418008.6144   24418016.0214
       210.0004        139.0004
  20792621.3654    -587302.86449   -461722.38247  20792620.6984   20792624.1694
       242.0004        210.0004
  22920387.8544     647710.57349    490083.97745  22920387.2664   22920393.9314
       218.0004        162.0004
  23904267.8264     582593.18449    430505.77945  23904268.4294   23904273.8734
       212.0004        151.0004
  24037346.6574   -1736245.43949  -1338890.97045  24037345.7924   24037352.7034
       211.0004        147.0004
  23979714.1134     749665.73949    565856.10245  23979714.4394   23979722.1534
       204.0004        138.0004
  24701316.1304      -5222.55649    -10640.76545  24701315.6354   24701322.3474
       202.0004        134.0004
  23227243.6054   -2475546.88549  -1912861.04445  23227242.7744   23227248.3364
       215.0004        156.0004
 07  2 17 22 49 25.0000000  0 11G22G21G 3G24G18G 7G26G 9G 6G16G14
  21077852.2554   -1346170.56749  -1043421.50647  21077852.0874   21077854.3044
       241.0004        204.0004
  20620095.9504    -651482.85049   -510357.09047  20620095.3854   20620098.7084
       243.0004        208.0004
  22651048.8934   -1784457.18549  -1376392.19246  22651048.5354   22651054.1844
       224.0004        174.0004
  24420301.3024     197318.80249    142614.25545  24420300.6184   24420308.0644
       210.0004        139.0004
  20793263.9714    -583926.01949   -459091.07747  20793263.1834   20793266.9474
       242.0004        210.0004
  22923599.2324     664586.40549    503233.97245  22923598.8534   22923604.9824
       219.0004        162.0004
  23907668.1404     600461.79349    444429.36545  23907668.1064   23907673.3924
       212.0004        151.0004
  24035242.5624   -1747302.40449  -1347506.77545  24035242.0584   24035248.4514
       211.0004        147.0004
  23983156.0184     767753.11549    579950.14345  23983154.3184   23983163.9214
       202.0004        138.0004
  24703324.5004       5331.30849     -2416.98545  24703324.3044   24703329.6874
       205.0004        135.0004
  23223861.9054   -2493317.85749  -1926708.53845  23223860.6964   23223866.1304
       215.0004        156.0004
 07  2 17 22 49 30.0000000  0 11G22G21G 3G24G18G 7G26G 9G 6G16G14
  21076911.5424   -1351114.01749  -1047273.53847  21076910.8584   21076913.6234
       241.0004        204.0004
  20620618.3164    -648737.66249   -508217.97747  20620617.4444   20620621.1364
       244.0004        208.0004
  22649239.5574   -1793965.09849  -1383800.94146  22649239.0784   22649244.8654
       225.0004        174.0004
  24422594.4484     209369.28449    152004.24145  24422593.7304   24422601.1824
       210.0004        140.0004
  20793907.8634    -580542.29749   -456454.40447  20793907.1384   20793910.4434
       243.0004        210.0004
  22926811.5494     681467.31449    516387.91245  22926811.3094   22926817.9144
       220.0004        162.0004
  23911069.9494     618338.53149    458359.27645  23911069.5514   23911075.2714
       212.0004        151.0004
  24033140.0754   -1758351.14149  -1356116.16945  24033139.4644   24033145.7474
       212.0004        147.0004
  23986598.3304     785842.76449    594045.94945  23986596.2954   23986605.4324
       204.0004        139.0004
  24705333.6074      15889.07549      5809.83645  24705333.5144   24705339.1594
       204.0004        135.0004
  23220481.1944   -2511083.57249  -1940551.93945  23220480.6264   23220485.3644
       215.0004        156.0004
 07  2 17 22 49 35.0000000  0 11G22G21G 3G24G18G 7G26G 9G 6G16G14
  21075972.4674   -1356048.87549  -1051118.88747  21075972.2384   21075974.3324
       241.0004        204.0004
  20621142.5714    -645982.78749   -506071.33247  20621142.0204   20621145.5604
       244.0004        208.0004
  22647432.8594   -1803459.38849  -1391199.09546  22647432.4394   22647437.8374
       224.0004        175.0004
  24424888.4644     221424.19449    161397.67245  24424886.8434   24424894.8784
       209.0004        140.0004
  20794553.1464    -577151.32349   -453812.09347  20794552.3514   20794556.2004
       242.0004        210.0004
  22930024.9564     698353.68449    529546.11346  22930025.3244   22930030.5504
       220.0004        163.0004
  23914473.3924     636223.82349    472295.84645  23914472.2554   23914479.4154
       212.0004        151.0004
  24031039.2194   -1769391.28649  -1364718.87245  24031038.5184   24031045.1124
       210.0004        147.0004
  23990041.1554     803935.06849    608143.84045  23990039.6514   23990048.4044
       204.0004        139.0004
  24707343.5164      26451.14649     14040.00545  24707343.7124   24707350.0864
       202.0004        135.0004
  23217101.5574   -2528843.58449  -1954390.89945  23217101.2454   23217105.9544
       215.0004        156.0004
 07  2 17 22 49 40.0000000  0 11G22G21G 3G24G18G 7G26G 9G 6G16G14
  21075034.8434   -1360976.14249  -1054958.30747  21075034.3674   21075036.9984
       240.0004        204.0004
  20621668.4494    -643219.15749   -503917.85347  20621668.0364   20621671.2284
       243.0004        208.0004
  22645628.5814   -1812940.98449  -1398587.34646  22645629.0074   22645633.4554
       225.0004        175.0004
  24427183.0754     233482.53649    170793.77345  24427182.2044   24427190.1354
       209.0004        141.0004
  20795199.6274    -573754.07949   -451164.88847  20795198.8234   20795202.5364
       242.0004        210.0004
  22933239.1654     715244.52049    542707.79146  22933239.3394   22933245.0864
       219.0004        163.0004
  23917878.2794     654116.75249    486238.37345  23917877.5084   23917883.5634
       211.0004        151.0004
  24028939.8214   -1780423.76649  -1373315.59145  24028939.0424   24028945.4914
       211.0004        148.0004
  23993484.3154     822029.09849    622243.07545  23993483.6374   23993491.2704
       204.0004        140.0004
  24709354.0444      37016.46049     22272.71245  24709353.1314   24709360.5434
       204.0004        135.0004
  23213722.8234   -2546598.86149  -1968226.16645  23213722.3144   23213727.3364
       215.0004        156.0004
 07  2 17 22 49 45.0000000  0 11G22G21G 3G24G18G 7G26G 9G 6G16G14
  21074098.5914   -1365896.14249  -1058792.07147  21074098.2054   21074100.7034
       241.0004        204.0004
  20622195.9694    -640447.13749   -501757.83747  20622195.4314   20622198.8444
       244.0004        208.0004
  22643826.6154   -1822410.28149  -1405966.00846  22643826.1754   22643831.8574
       226.0004        175.0004
  24429478.2774     245544.01549    180192.31945  24429477.6854   24429485.3534
       208.0004        141.0004
  20795847.2074    -570350.88649   -448513.04347  20795846.2854   20795850.1674
       242.0004        210.0004
  22936454.1904     732139.50249    555872.69546  22936453.9534   22936460.2224
       219.0004        163.0004
  23921284.5414     672016.86049    500186.49745  23921283.9604   23921289.6334
       213.0004        151.0004
  24026841.8054   -1791448.88349  -1381906.58045  24026840.8544   24026847.3414
       210.0004        147.0004
  23996927.7134     840124.44949    636343.33145  23996927.3534   23996934.3974
       206.0004        140.0004
  24711365.1524      47584.65649     30507.66745  24711364.4984   24711371.8264
       203.0004        135.0004
  23210344.9204   -2564349.76849  -1982058.02645  23210344.6734   23210349.8414
       214.0004        155.0004
 07  2 17 22 49 50.0000000  0 11G22G21G 3G24G18G 7G26G 9G 6G16G14
  21073164.1814   -1370806.45149  -1062618.28447  21073163.6324   21073166.3384
       241.0004        204.0004
  20622725.5414    -637664.27349   -499589.37847  20622724.8654   20622728.3914
       244.0004        208.0004
  22642027.4874   -1831864.87549  -1413333.23246  22642027.2414   22642032.7304
       227.0004        175.0004
  24431774.5374     257611.08249    189595.21445  24431774.2454   24431782.2374
       210.0004        142.0004
  20796496.4184    -566939.28349   -445854.65647  20796495.6064   20796499.2964
       242.0004        210.0004
  22939670.4694     749041.04249    569042.72446  22939670.1874   22939677.2264
       220.0004        163.0004
  23924692.6654     689926.61449    514142.13745  23924692.6004   23924697.5264
       213.0004        151.0004
  24024745.6334   -1802464.16249  -1390489.91345  24024745.3654   24024751.5424
       212.0004        147.0004
  24000371.8544     858223.57849    650446.52845  24000371.1294   24000379.5694
       205.0004        140.0004
  24713377.2214      58158.11749     38746.72145  24713377.2454   24713384.4234
       204.0004        135.0004
  23206968.2994   -2582093.76249  -1995884.50245  23206967.3614   23206973.3494
       214.0004        155.0004
 07  2 17 22 49 55.0000000  0 11G22G21G 3G24G18G 7G26G 9G 6G16G14
  21072231.1454   -1375709.45749  -1066438.81247  21072231.0684   21072233.2014
       240.0004        204.0004
  20623256.7244    -634872.93949   -497414.31947  20623256.2474   20623259.7254
       244.0004        208.0004
  22640230.7064   -1841307.12749  -1420690.82146  22640230.0754   22640236.3444
       226.0004        175.0004
  24434071.4364     269681.32349    199000.58845  24434071.1354   24434079.7914
       210.0004        142.0004
  20797146.7614    -563521.71149   -443191.61847  20797146.2754   20797149.7394
       242.0004        210.0004
  22942887.5224     765946.74049    582215.98446  22942886.7204   22942893.3514
       218.0004        163.0004
  23928102.1314     707843.56149    528103.38145  23928102.0204   23928107.6994
       211.0004        151.0004
  24022650.9004   -1813472.07849  -1399067.51445  24022650.8354   24022657.1024
       212.0004        147.0004
  24003816.2834     876324.10449    664550.81645  24003816.5244   24003824.2704
       204.0004        141.0004
  24715389.8274      68734.40949     46987.98245  24715389.8724   24715396.7514
       202.0004        135.0004
  23203592.5574   -2599833.33049  -2009707.52345  23203591.4884   23203596.6594
       215.0004        155.0004
 07  2 17 22 50  0.0000000  0 11G22G21G 3G24G18G 7G26G 9G 6G16G14
  21071299.6964   -1380604.32849  -1070252.98347  21071299.1034   21071301.7734
       241.0004        204.0004
  20623789.6804    -632072.30249   -495231.99947  20623788.9184   20623792.6264
       243.0004        208.0004
  22638436.4734   -1850736.08449  -1428038.05346  22638436.0274   22638441.5704
       226.0004        175.0004
  24436369.1224     281755.61949    208409.12345  24436369.0144   24436377.2854
       211.0004        142.0004
  20797798.4124    -560097.24749   -440523.19947  20797797.3354   20797801.5244
       242.0004        210.0004
  22946105.5274     782857.44549    595393.13746  22946105.5924   22946111.5704
       218.0004        163.0004
  23931513.1384     725768.57549    542070.90945  23931512.6994   23931518.9284
       213.0004        151.0004
  24020557.7254   -1824471.73049  -1407638.66745  24020557.4444   24020564.0834
       212.0004        147.0004
  24007261.1454     894426.77949    678656.78445  24007260.0004   24007268.2934
       204.0004        141.0004
  24717403.1754      79314.41649     55232.13245  24717403.3384   24717409.5574
       204.0004        136.0004
  23200217.8414   -2617567.55749  -2023526.39045  23200216.9044   23200222.3564
       216.0004        155.0004
 07  2 17 22 50  5.0000000  0 11G22G21G 3G24G18G 7G26G 9G 6G16G14
  21070369.5694   -1385491.98849  -1074061.54847  21070368.9974   21070371.4454
       241.0004        204.0004
  20624324.2334    -629263.25949   -493043.13647  20624323.5384   20624327.0734
       244.0004        208.0004
  22636644.5664   -1860152.70349  -1435375.67546  22636643.8084   22636650.2934
       226.0004        175.0004
  24438667.3384     293832.96649    217820.03545  24438666.7734   24438674.8654
       209.0004        142.0004
  20798451.1734    -556666.87749   -437850.18147  20798450.6124   20798454.1804
       242.0004        210.0004
  22949324.3214     799772.19049    608573.45846  22949323.9544   22949330.6834
       218.0004        163.0004
  23934925.5104     743700.78449    556044.05345  23934925.2964   23934930.8984
       212.0004        151.0004
  24018465.9654   -1835464.00849  -1416204.07245  24018466.2724   24018472.3114
       211.0004        147.0004
  24010706.2284     912530.74749    692763.75545  24010705.1854   24010713.5874
       205.0004        141.0004
  24719417.0634      89897.27349     63478.49845  24719416.7744   24719422.9434
       204.0004        136.0004
  23196843.9494   -2635297.33749  -2037341.79545  23196842.8304   23196848.9314
       214.0004        156.0004
 07  2 17 22 50 10.0000000  0 11G22G21G 3G24G18G 7G26G 9G 6G16G14
  21069441.1284   -1390371.04449  -1077863.40447  21069440.4204   21069442.8704
       241.0004        204.0004
  20624860.6554    -626444.43449   -490846.64947  20624859.9874   20624863.5114
       244.0004        208.0004
  22634855.3024   -1869555.51149  -1442702.53746  22634854.7064   22634860.0334
       225.0004        176.0004
  24440966.4724     305914.83149    227234.46545  24440965.2524   24440974.2344
       209.0004        142.0004
  20799105.3354    -553229.24849   -435171.51147  20799104.4904   20799108.0954
       242.0004        210.0004
  22952544.1384     816692.32849    621757.97346  22952543.0354   22952549.5624
       217.0004        163.0004
  23938339.5154     761641.47549    570023.80745  23938339.3034   23938345.5634
       212.0004        151.0004
  24016375.8954   -1846447.49149  -1424762.61145  24016375.4594   24016381.1954
       211.0004        147.0004
  24014151.8164     930637.40049    706872.81845  24014151.0294   24014159.5784
       204.0004        141.0004
  24721431.7354     100484.18949     71728.03745  24721430.6604   24721437.0654
       205.0004        136.0004
  23193471.1834   -2653021.30949  -2051152.66945  23193470.5244   23193475.8354
       216.0004        156.0004
 07  2 17 22 50 15.0000000  0 11G22G21G 3G24G18G 7G26G 9G 6G16G14
  21068514.1854   -1395242.05149  -1081658.99447  21068513.9414   21068516.2004
       241.0004        204.0004
  20625398.8154    -623616.36449   -488642.96647  20625398.2944   20625401.8374
       244.0004        208.0004
  22633068.4884   -1878945.22149  -1450019.19446  22633068.2134   22633073.3324
       226.0004        176.0004
  24443266.2884     318000.61349    236651.94845  24443264.5704   24443273.5104
       209.0004        141.0004
  20799760.7694    -549784.91549   -432487.61647  20799760.1364   20799763.7244
       243.0004        210.0004
  22955764.8674     833617.32749    634946.25645  22955764.0054   22955771.0384
       217.0004        162.0004
  23941755.0194     779590.12349    584009.75745  23941754.8984   23941760.7234
       213.0004        151.0004
  24014287.3624   -1857422.77849  -1433314.77445  24014287.0154   24014293.0064
       210.0004        147.0004
  24017597.7994     948746.17349    720983.53645  24017596.1844   24017605.4054
       204.0004        142.0004
  24723447.0704     111074.70549     79980.38345  24723446.1344   24723452.5104
       208.0004        137.0004
  23190099.4144   -2670740.02449  -2064959.44545  23190099.0294   23190104.2034
       216.0004        156.0004
 07  2 17 22 50 20.0000000  0 11G22G21G 3G24G18G 7G26G 9G 6G16G14
  21067588.6354   -1400105.86149  -1085448.97047  21067588.2424   21067590.6034
       241.0004        204.0004
  20625938.6124    -620779.86449   -486432.70447  20625938.1304   20625941.5984
       244.0004        208.0004
  22631284.0624   -1888322.55949  -1457326.20546  22631283.5784   22631288.5174
       225.0004        176.0004
  24445566.7244     330089.47649    246071.82945  24445565.3274   24445573.9844
       207.0004        141.0004
  20800417.3304    -546334.71449   -429799.14647  20800416.6514   20800420.2734
       241.0004        209.0004
  22958986.3644     850546.36849    648137.71045  22958985.8454   22958993.1754
       216.0004        162.0004
  23945171.8654     797545.82949    598001.19445  23945171.9624   23945176.8644
       214.0004        151.0004
  24012200.2564   -1868390.72049  -1441861.21845  24012199.9804   24012206.0194
       210.0004        147.0004
  24021043.9704     966856.10749    735095.15945  24021042.4184   24021051.0654
       205.0004        141.0004
  24725462.9524     121667.93649     88234.84545  24725461.9094   24725468.6714
       204.0004        138.0004
  23186728.5224   -2688454.27849  -2078762.74545  23186727.6824   23186733.0094
       216.0004        156.0004
 07  2 17 22 50 25.0000000  0 11G22G21G 3G24G18G 7G26G 9G 6G16G14
  21066664.6904   -1404961.22249  -1089232.36247  21066664.3424   21066666.6694
       241.0004        204.0004
  20626480.2164    -617933.69949   -484214.91447  20626479.5854   20626483.0484
       244.0004        208.0004
  22629502.1924   -1897686.34649  -1464622.65946  22629501.6124   22629507.2224
       225.0004        176.0004
  24447867.9414     342182.70049    255495.10745  24447867.8534   24447875.1394
       209.0004        141.0004
  20801075.2274    -542877.37949   -427105.11547  20801074.3664   20801078.1764
       242.0004        209.0004
  22962208.8864     867480.65749    661333.24345  22962207.7444   22962214.6304
       217.0004        162.0004
  23948590.2734     815509.80149    611999.08745  23948590.0464   23948594.9264
       211.0004        151.0004
  24010114.8034   -1879349.95149  -1450400.88045  24010114.0244   24010120.2494
       211.0004        147.0004
  24024490.6234     984968.51249    749208.70245  24024490.0324   24024498.2104
       204.0004        142.0004
  24727479.5574     132265.17249     96492.42345  24727478.5234   24727485.7294
       206.0004        138.0004
  23183358.7144   -2706162.78849  -2092561.57345  23183358.1054   23183363.2544
       216.0004        156.0004
 07  2 17 22 50 30.0000000  0 11G22G21G 3G24G18G 7G26G 9G 6G16G14
  21065742.2704   -1409808.48349  -1093009.45047  21065741.9104   21065744.5784
       241.0004        204.0004
  20627023.5974    -615078.23849   -481989.88247  20627022.8694   20627026.5284
       244.0004        208.0004
  22627722.8054   -1907036.92449  -1471908.82346  22627723.0634   22627728.0624
       225.0004        175.0004
  24450169.9674     354279.89149    264921.48045  24450170.0794   24450177.0024
       209.0004        141.0004
  20801734.4124    -539413.31949   -424405.84847  20801733.6094   20801737.1424
       241.0004        209.0004
  22965432.2824     884419.81449    674532.57045  22965431.4434   22965438.8384
       215.0004        161.0004
  23952010.2194     833481.71749    626003.15945  23952010.2884   23952015.7364
       213.0004        152.0004
  24008030.8824   -1890300.85949  -1458934.04445  24008029.7474   24008036.8784
       210.0004        148.0004
  24027937.6914    1003083.05149    763323.90445  24027937.9454   24027945.3264
       203.0004        142.0004
  24729496.8314     142866.00949    104752.80245  24729496.1564   24729503.6354
       203.0004        138.0004
  23179989.9224   -2723865.95749  -2106356.23545  23179989.6374   23179994.9434
       215.0004        156.0004
 07  2 17 22 50 35.0000000  0 11G22G21G 3G24G18G 7G26G 9G 6G16G14
  21064821.4684   -1414647.32349  -1096779.97247  21064821.0984   21064823.6154
       241.0004        204.0004
  20627568.8154    -612213.13949   -479757.34247  20627568.1924   20627571.6744
       243.0004        208.0004
  22625946.0224   -1916373.92449  -1479184.40846  22625945.5644   22625951.6634
       225.0004        175.0004
  24452472.8204     366381.36849    274351.19745  24452472.9954   24452479.8194
       210.0004        140.0004
  20802394.9654    -535942.16449   -421701.05447  20802394.2024   20802397.8824
       242.0004        209.0004
  22968656.6674     901364.14949    687735.92845  22968655.9204   22968663.2664
       216.0004        161.0004
  23955431.7314     851461.87649    640013.65845  23955431.4304   23955438.1254
       212.0004        151.0004
  24005948.6144   -1901243.06749  -1467460.42945  24005947.8684   24005954.6794
       211.0004        148.0004
  24031385.2324    1021199.99849    777440.98345  24031384.5094   24031392.8744
       205.0004        143.0004
  24731514.8554     153470.78249    113016.24845  24731514.3594   24731521.8114
       202.0004        138.0004
  23176622.1994   -2741563.43349  -2120146.46245  23176620.8094   23176626.9274
       214.0004        157.0004
 07  2 17 22 50 40.0000000  0 11G22G21G 3G24G18G 7G26G 9G 6G16G14
  21063902.1584   -1419478.38549  -1100544.43147  21063901.7544   21063904.5294
       241.0004        204.0004
  20628115.7424    -609339.00049   -477517.75647  20628114.9234   20628118.6334
       243.0004        208.0004
  22624171.6984   -1925697.96749  -1486449.88846  22624171.2724   22624176.8704
       225.0004        175.0004
  24454776.3944     378486.56849    283783.80745  24454776.4814   24454783.5364
       209.0004        141.0004
  20803056.7304    -532464.56449   -418991.24147  20803055.9344   20803059.5994
       240.0004        209.0004
  22971881.9384     918313.05649    700942.87145  22971880.3684   22971888.1714
       215.0004        160.0004
  23958854.7214     869449.72049    654030.15445  23958854.4004   23958860.6824
       212.0004        151.0004
  24003867.8954   -1912177.23449  -1475980.55245  24003867.5784   24003874.6174
       210.0004        148.0004
  24034833.1004    1039318.65949    791559.40445  24034832.9314   24034840.4904
       207.0004        143.0004
  24733533.5064     164078.80349    121282.22445  24733532.9214   24733540.5724
       201.0004        138.0004
  23173255.4294   -2759255.83549  -2133932.73345  23173254.3504   23173259.9004
       217.0004        157.0004
 07  2 17 22 50 45.0000000  0 11G22G21G 3G24G18G 7G26G 9G 6G16G14
  21062984.2424   -1424302.06249  -1104303.13347  21062983.7004   21062986.3624
       242.0004        204.0004
  20628664.2874    -606456.26749   -475271.46447  20628663.5434   20628667.0514
       245.0004        208.0004
  22622399.7934   -1935009.42449  -1493705.56646  22622399.0194   22622404.7774
       225.0004        175.0004
  24457080.5784     390595.00949    293218.94545  24457080.6254   24457087.3444
       212.0004        141.0004
  20803719.6424    -528980.94149   -416276.72047  20803718.6854   20803722.5004
       241.0004        209.0004
  22975107.9984     935266.12449    714153.03345  22975107.2744   22975114.5104
       215.0004        160.0004
  23962279.0464     887444.63449    668052.15645  23962279.3794   23962284.5104
       212.0004        151.0004
  24001788.6554   -1923103.74049  -1484494.70445  24001788.4584   24001795.0524
       211.0004        149.0004
  24038281.2054    1057438.68349    805678.89045  24038280.3354   24038288.4654
       204.0004        143.0004
  24735552.6544     174689.68349    129550.43845  24735551.3944   24735559.1794
       204.0004        138.0004
  23169889.5554   -2776943.53249  -2147715.33545  23169888.6704   23169894.2854
       216.0004        157.0004
 07  2 17 22 50 50.0000000  0 10G22G21G 3G24G18G 7G26G 9G 6G14
  21062068.2454   -1429115.75549  -1108054.06747  21062067.8344   21062070.3874
       241.0004        204.0004
  20629215.0054    -603562.31149   -473016.44147  20629214.3524   20629217.8934
       243.0004        208.0004
  22620630.7534   -1944305.75949  -1500949.46246  22620629.7944   22620635.4744
       225.0004        175.0004
  24459385.8844     402709.29049    302658.63745  24459386.0894   24459392.9204
       210.0004        141.0004
  20804384.1804    -525488.71749   -413555.50847  20804383.5054   20804387.0814
       240.0004        209.0004
  22978335.2794     952225.83749    727368.38045  22978334.4804   22978341.4674
       214.0004        159.0004
  23965705.2404     905449.36149    682081.79945  23965705.9174   23965711.3974
       213.0004        151.0004
  23999711.3894   -1934019.97549  -1493000.84645  23999711.2864   23999717.2084
       212.0004        149.0004
  24041730.0754    1075562.57749    819801.38745  24041728.9674   24041737.0844
       205.0004        143.0004
  23166525.0674   -2794623.91049  -2161492.24045  23166523.7694   23166530.2234
       216.0004        157.0004
 07  2 17 22 50 55.0000000  0 10G22G21G 3G24G18G 7G26G 9G 6G14
  21061153.7064   -1433921.58649  -1111798.86247  21061153.2574   21061155.7664
       242.0004        204.0004
  20629767.4274    -600659.26949   -470754.32947  20629766.7204   20629770.2144
       245.0004        208.0004
  22618864.2314   -1953588.93949  -1508183.10246  22618862.9674   22618869.0174
       226.0004        175.0004
  24461691.8904     414827.36349    312101.28945  24461691.6734   24461698.3374
       213.0004        141.0004
  20805049.9484    -521990.00249   -410829.23547  20805049.1944   20805052.7664
       242.0004        209.0004
  22981563.4744     969190.16249    740587.32345  22981562.5854   22981570.3604
       216.0004        159.0004
  23969132.8754     923461.71849    696117.39345  23969133.5344   23969139.1884
       213.0004        151.0004
  23997635.6544   -1944927.99249  -1501500.58745  23997634.8034   23997642.0014
       211.0004        148.0004
  24045179.2694    1093688.34849    833925.35145  24045178.7994   24045186.0544
       207.0004        143.0004
  23163161.5894   -2812299.08549  -2175265.08445  23163160.9374   23163165.8384
       217.0004        157.0004
 07  2 17 22 51  0.0000000  0 10G22G21G 3G24G18G 7G26G 9G 6G14
  21060240.6234   -1438719.78049  -1115537.71747  21060240.1794   21060242.6754
       241.0004        204.0004
  20630321.5704    -597747.30649   -468485.27347  20630320.8864   20630324.3584
       244.0004        208.0004
  22617100.1634   -1962859.20549  -1515406.68646  22617099.8884   22617105.5104
       224.0004        175.0004
  24463998.6114     426948.98549    321546.70445  24463998.5164   24464005.4604
       211.0004        141.0004
  20805716.9484    -518484.99849   -408098.06447  20805716.1424   20805719.7884
       240.0004        209.0004
  22984792.5224     986158.90449    753809.71345  22984791.7404   22984798.8364
       215.0004        159.0004
  23972561.9584     941481.49649    710158.77145  23972561.9614   23972567.9544
       210.0004        151.0004
  23995561.4734   -1955827.99349  -1509994.08545  23995560.5694   23995567.4834
       208.0004        148.0004
  24048628.8104    1111815.68649    848050.53945  24048628.0614   24048636.0424
       206.0004        144.0004
  23159799.0344   -2829969.23249  -2189034.01645  23159798.0154   23159803.6774
       216.0004        157.0004
 07  2 17 22 51  5.0000000  0 10G22G21G 3G24G18G 7G26G 9G 6G14
  21059329.0294   -1443510.22049  -1119270.52247  21059328.6604   21059331.2324
       242.0004        204.0004
  20630877.4054    -594826.30949   -466209.17347  20630876.7614   20630880.3194
       245.0004        208.0004
  22615338.5464   -1972116.52249  -1522620.17146  22615337.5584   22615343.9784
       225.0004        175.0004
  24466305.9634     439074.25749    330994.96745  24466306.0494   24466313.0344
       213.0004        141.0004
  20806385.1374    -514973.54449   -405361.86647  20806384.2904   20806387.9234
       241.0004        209.0004
  22988022.4124    1003132.06749    767035.54045  22988021.8244   22988029.2234
       216.0004        158.0004
  23975992.4394     959508.83849    724206.04145  23975992.3364   23975997.0024
       215.0004        151.0004
  23993488.8354   -1966719.86249  -1518481.24845  23993488.3144   23993494.2144
       209.0004        147.0004
  24052078.6664    1129944.80449    862177.10545  24052078.2234   24052085.6734
       209.0004        144.0004
  23156437.4844   -2847634.22249  -2202798.93345  23156436.3234   23156442.0404
       215.0004        157.0004
 07  2 17 22 51 10.0000000  0 10G22G21G 3G24G18G 7G26G 9G 6G14
  21058419.0224   -1448292.29249  -1122996.80847  21058418.6104   21058421.2204
       241.0004        204.0004
  20631435.1044    -591895.66449   -463925.55647  20631434.5854   20631437.8624
       244.0004        208.0004
  22613579.5094   -1981360.25449  -1529823.07546  22613579.0054   22613584.4994
       225.0004        175.0004
  24468614.1494     451203.80649    340446.56745  24468615.2004   24468621.5184
       213.0004        142.0004
  20807054.7084    -511455.04549   -402620.17847  20807053.8464   20807057.6454
       241.0004        209.0004
  22991253.2834    1020110.38149    780265.38545  22991251.8784   22991259.4884
       215.0004        158.0004
  23979424.5044     977544.27549    738259.62045  23979424.3604   23979429.7324
       210.0004        150.0004
  23991417.8694   -1977602.98549  -1526961.60245  23991417.1084   23991423.4804
       208.0004        146.0004
  24055528.9204    1148076.15449    876305.41545  24055528.5044   24055536.4054
       205.0004        145.0004
  23153076.9984   -2865293.44749  -2216559.35645  23153075.3494   23153081.5254
       215.0004        156.0004
 07  2 17 22 51 15.0000000  0 10G22G21G 3G24G18G 7G26G 9G 6G14
  21057510.4084   -1453067.22849  -1126717.53047  21057510.1194   21057512.6404
       242.0004        204.0004
  20631994.3894    -588956.56449   -461635.34247  20631993.7584   20631997.1284
       244.0004        208.0004
  22611822.8464   -1990591.50749  -1537016.25046  22611821.5024   22611828.2494
       225.0004        175.0004
  24470922.9224     463336.46049    349900.58645  24470923.1224   24470930.1134
       212.0004        141.0004
  20807725.3634    -507930.74549   -399873.96747  20807724.6324   20807728.1624
       241.0004        209.0004
  22994484.8624    1037092.55649    793498.23445  22994483.3704   22994491.9854
       215.0004        158.0004
  23982857.8824     995586.58549    752318.56145  23982858.1834   23982863.4394
       210.0004        150.0004
  23989348.3214   -1988478.57949  -1535436.08045  23989347.4904   23989354.0554
       207.0004        145.0004
  24058979.4264    1166208.67549    890434.63445  24058979.5354   24058986.9954
       205.0004        145.0004
  23149717.4134   -2882948.08249  -2230316.20045  23149716.1454   23149721.5494
       217.0004        156.0004
 07  2 17 22 51 20.0000000  0 10G22G21G 3G24G18G 7G26G 9G 6G14
  21056603.4014   -1457833.61349  -1130431.59947  21056602.9774   21056605.5384
       241.0004        204.0004
  20632555.5704    -586007.59949   -459337.45447  20632554.9694   20632558.5454
       244.0004        208.0004
  22610068.8204   -1999808.88049  -1544198.62146  22610068.0764   22610073.7244
       224.0004        175.0004
  24473232.5314     475473.55549    359358.05945  24473233.2034   24473239.1014
       209.0004        141.0004
  20808397.4054    -504399.22849   -397122.13847  20808396.6474   20808400.4244
       241.0004        209.0004
  22997717.4654    1054079.92849    806735.13445  22997716.8124   22997723.6664
       215.0004        158.0004
  23986292.8164    1013637.17249    766383.94945  23986292.8754   23986298.6104
       210.0004        149.0004
  23987280.4864   -1999345.22549  -1543903.58545  23987279.8224   23987285.6754
       207.0004        145.0004
  24062430.3904    1184343.61749    904565.74645  24062430.6864   24062438.3894
       210.0004        145.0004
  23146358.9434   -2900596.75149  -2244068.39545  23146357.9004   23146363.2814
       216.0004        157.0004
 07  2 17 22 51 25.0000000  0 10G22G21G 3G24G18G 7G26G 9G 6G14
  21055697.8224   -1462592.41449  -1134139.75247  21055697.5744   21055699.8764
       241.0004        204.0004
  20633118.4264    -583049.83649   -457032.70647  20633117.8004   20633121.1794
       244.0004        208.0004
  22608317.2714   -2009013.39349  -1551370.96646  22608316.8084   22608322.4844
       224.0004        174.0004
  24475542.8114     487614.15149    368818.26245  24475542.7744   24475549.8954
       209.0004        141.0004
  20809070.5974    -500861.51949   -394365.48047  20809069.6814   20809073.4024
       241.0004        209.0004
  23000950.8694    1071071.55249    819975.35145  23000950.6134   23000957.0594
       216.0004        159.0004
  23989729.1564    1031695.06649    780455.02645  23989728.2874   23989735.6984
       206.0004        148.0004
  23985214.1484   -2010203.84449  -1552364.84045  23985214.1624   23985219.3774
       211.0004        144.0004
  24065881.6574    1202480.05649    918698.01545  24065881.6274   24065889.1534
       210.0004        146.0004
  23143001.4374   -2918240.41249  -2257816.67845  23143000.4644   23143006.3984
       216.0004        157.0004
 07  2 17 22 51 30.0000000  0 10G22G21G 3G24G18G 7G26G 9G 6G14
  21054793.8044   -1467343.13249  -1137841.60747  21054793.4904   21054795.5824
       242.0004        204.0004
  20633683.0944    -580082.67249   -454720.63447  20633682.2794   20633685.9734
       243.0004        208.0004
  22606568.2324   -2018204.53549  -1558532.89746  22606567.4294   22606572.6614
       225.0004        174.0004
  24477853.8514     499758.72449    378281.56745  24477853.6654   24477861.0374
       212.0004        141.0004
  20809745.0964    -497317.07749   -391603.57847  20809744.3044   20809748.1894
       240.0004        209.0004
  23004185.1764    1088067.92149    833219.25745  23004184.8644   23004191.7264
       216.0004        159.0004
  23993166.9484    1049760.75749    794532.16845  23993166.3674   23993173.0844
       207.0004        148.0004
  23983149.4354   -2021053.93649  -1560819.45145  23983149.2514   23983155.6754
       208.0004        144.0004
  24069333.3034    1220618.44449    932831.80945  24069333.6474   24069340.7204
       210.0004        146.0004
  23139645.0024   -2935878.56349  -2271560.67845  23139645.2174   23139649.2794
       217.0004        157.0004
 07  2 17 22 51 35.0000000  0 10G22G21G 3G24G18G 7G26G 9G 6G14
  21053891.2174   -1472086.28049  -1141537.55947  21053890.6654   21053893.1174
       242.0004        205.0004
  20634249.4184    -577106.59049   -452401.60447  20634248.7374   20634252.0854
       245.0004        208.0004
  22604821.6854   -2027382.75349  -1565684.74446  22604821.0784   22604827.0584
       226.0004        174.0004
  24480165.5754     511906.83549    387747.61845  24480165.8444   24480173.0604
       211.0004        142.0004
  20810420.7784    -493766.37949   -388836.79547  20810419.9164   20810423.3924
       242.0004        209.0004
  23007420.3264    1105068.56249    846466.50945  23007419.9254   23007426.6084
       217.0004        159.0004
  23996606.0934    1067833.65849    808614.93645  23996606.0654   23996611.6384
       209.0004        148.0004
  23981086.2734   -2031895.94249  -1569267.75845  23981086.0204   23981092.6104
       210.0004        144.0004
  24072785.2364    1238758.31549    946966.76245  24072785.6974   24072792.9974
       209.0004        146.0004
  23136289.5394   -2953511.62749  -2285300.72345  23136289.3104   23136293.8744
       218.0004        157.0004
 07  2 17 22 51 40.0000000  0 10G22G21G 3G24G18G 7G26G 9G 6G14
  21052990.2134   -1476821.15549  -1145227.07747  21052989.8184   21052992.3694
       241.0004        205.0004
  20634817.5874    -574120.94549   -450075.13447  20634816.9634   20634820.3804
       243.0004        208.0004
  22603077.6844   -2036547.41149  -1572826.04746  22603077.0054   22603082.5004
       223.0004        174.0004
  24482478.1034     524059.13949    397216.93445  24482477.9934   24482485.6184
       210.0004        142.0004
  20811097.7814    -490208.81349   -386064.67447  20811097.0874   20811100.7874
       240.0004        209.0004
  23010656.4284    1122074.17949    859717.62245  23010655.4354   23010663.0554
       217.0004        159.0004
  24000046.7974    1085914.53249    822703.90945  24000046.7834   24000053.4134
       209.0004        148.0004
  23979024.7954   -2042729.15449  -1577709.22445  23979024.2874   23979030.2024
       208.0004        145.0004
  24076237.5714    1256900.30949    961103.36945  24076238.0174   24076245.6644
       208.0004        147.0004
  23132935.1764   -2971138.92849  -2299036.26745  23132934.7824   23132939.6834
       217.0004        157.0004
 07  2 17 22 51 45.0000000  0 10G22G21G 3G24G18G 7G26G 9G 6G14
  21052090.6544   -1481548.35249  -1148910.60547  21052090.3814   21052092.6724
       241.0004        205.0004
  20635387.4384    -571126.31149   -447741.65247  20635386.5694   20635390.2494
       244.0004        208.0004
  22601336.1924   -2045699.01749  -1579957.15446  22601334.7324   22601340.8904
       224.0004        174.0004
  24484791.3094     536215.03249    406689.04845  24484791.0424   24484798.2684
       210.0004        142.0004
  20811775.9544    -486644.95849   -383287.64547  20811775.0984   20811778.9734
       241.0004        209.0004
  23013893.3174    1139084.09449    872972.10145  23013892.4444   23013899.8984
       216.0004        159.0004
  24003488.8874    1104002.75749    836798.62445  24003489.5404   24003494.9204
       205.0004        147.0004
  23976964.8374   -2053554.17949  -1586144.30845  23976964.4734   23976970.0404
       208.0004        145.0004
  24079690.2064    1275043.90049    975241.22045  24079691.1474   24079698.3824
       213.0004        147.0004
  23129581.7954   -2988761.03949  -2312767.76745  23129581.7244   23129586.6044
       217.0004        157.0004
 07  2 17 22 51 50.0000000  0 10G22G21G 3G24G18G 7G26G 9G 6G14
  21051192.5374   -1486267.91949  -1152588.18347  21051192.1134   21051194.7014
       241.0004        205.0004
  20635959.0054    -568122.68849   -445401.16547  20635958.2134   20635962.0444
       244.0004        208.0004
  22599597.1694   -2054837.60949  -1587078.13846  22599596.9254   22599602.2374
       224.0004        174.0004
  24487105.1944     548374.50749    416163.95045  24487104.8104   24487112.5214
       211.0004        143.0004
  20812455.3234    -483074.82649   -380505.71947  20812454.5484   20812458.2564
       241.0004        209.0004
  23017131.0644    1156098.31249    886229.91445  23017130.1124   23017137.8264
       216.0004        159.0004
  24006932.3354    1122098.23549    850898.98845  24006931.9674   24006938.5664
       206.0004        146.0004
  23974906.4154   -2064371.08549  -1594573.05845  23974905.6184   23974911.4464
       206.0004        145.0004
  24083143.1354    1293188.98349    989380.23845  24083143.2574   24083151.1764
       212.0004        148.0004
  23126229.4064   -3006378.00249  -2326495.25245  23126228.7554   23126233.6964
       217.0004        158.0004
 07  2 17 22 51 55.0000000  0 10G22G21G 3G24G18G 7G26G 9G 6G14
  21050295.9704   -1490979.38349  -1156259.45047  21050295.4044   21050297.8824
       243.0004        205.0004
  20636532.3634    -565109.66349   -443053.35547  20636531.3274   20636535.0794
       245.0004        208.0004
  22597860.7194   -2063962.80049  -1594188.67046  22597859.2984   22597865.8214
       225.0004        174.0004
  24489419.8304     560537.99649    425641.98045  24489419.2684   24489426.8024
       211.0004        144.0004
  20813135.9664    -479498.00949   -377718.58947  20813135.0764   20813138.7274
       242.0004        209.0004
  23020369.6774    1173117.17149    899491.35445  23020369.2504   23020376.0964
       218.0004        159.0004
  24010377.2594    1140201.48449    865005.41645  24010375.7434   24010383.1484
       204.0004        145.0004
  23972849.6184   -2075179.38049  -1602995.09645  23972848.4724   23972855.2594
       208.0004        145.0004
  24086596.4494    1311336.01549   1003520.76745  24086596.5364   24086603.9694
       212.0004        148.0004
  23122878.0944   -3023989.36549  -2340218.37945  23122877.4654   23122882.5314
       219.0004        158.0004
 07  2 17 22 52  0.0000000  0 10G22G21G 3G24G18G 7G26G 9G 6G14
  21049401.0104   -1495682.40649  -1159924.14447  21049400.5534   21049403.1874
       242.0004        205.0004
  20637107.5914    -562086.87449   -440697.93647  20637106.8984   20637110.6204
       244.0004        208.0004
  22596126.8384   -2073074.29649  -1601288.53746  22596126.4074   22596131.4154
       224.0004        174.0004
  24491735.3024     572705.85949    435123.41745  24491734.7154   24491742.7594
       212.0004        144.0004
  20813817.9484    -475914.18149   -374925.99747  20813817.0444   20813820.7214
       241.0004        209.0004
  23023609.2454    1190141.12949    912756.76545  23023609.0774   23023616.0634
       217.0004        159.0004
  24013823.6794    1158312.74649    879118.05645  24013822.9364   24013829.5084
       201.0004        144.0004
  23970794.5254   -2085978.66449  -1611410.11445  23970794.2644   23970800.2674
       206.0004        145.0004
  24090050.1494    1329485.30949   1017663.05845  24090049.6964   24090057.2194
       211.0004        148.0004
  23119527.8974   -3041594.74449  -2353936.84145  23119527.2544   23119532.8094
       218.0004        158.0004
 07  2 17 22 52  5.0000000  0 10G22G21G 3G24G18G 7G26G 9G 6G14
  21048507.4944   -1500377.90649  -1163582.97047  21048507.2324   21048509.4874
       241.0004        205.0004
  20637684.5184    -559055.15749   -438335.56547  20637683.6694   20637687.6154
       243.0004        208.0004
  22594395.4374   -2082172.84749  -1608378.31546  22594395.1664   22594399.7124
       224.0004        174.0004
  24494051.4494     584877.23549    444607.58645  24494051.0914   24494059.1894
       212.0004        145.0004
  20814501.0904    -472324.19049   -372128.60247  20814500.3314   20814503.9594
       240.0004        209.0004
  23026849.5904    1207169.26849    926025.43645  23026848.8144   23026855.9144
       217.0004        159.0004
  24017271.4544    1176431.18849    893236.29945  24017270.9694   24017277.2614
       201.0004        144.0004
  23968741.0204   -2096769.83049  -1619818.80145  23968740.1174   23968746.8244
       206.0004        145.0004
  24093504.1164    1347635.96049   1031806.41145  24093504.0844   24093511.0134
       211.0004        149.0004
  23116178.6794   -3059195.01349  -2367651.33045  23116177.7034   23116183.4364
       217.0004        158.0004
 07  2 17 22 52 10.0000000  0 10G22G21G 3G24G18G 7G26G 9G 6G14
  21047615.3904   -1505065.87249  -1167235.92547  21047615.0494   21047617.5744
       241.0004        205.0004
  20638263.1074    -556014.54249   -435966.25247  20638261.9994   20638266.1094
       243.0004        208.0004
  22592666.4974   -2091258.48049  -1615458.01846  22592665.7534   22592671.4704
       225.0004        174.0004
  24496368.2554     597052.10249    454094.48545  24496367.9774   24496375.3024
       213.0004        146.0004
  20815185.4084    -468728.03349   -369326.39647  20815184.5484   20815188.1464
       240.0004        209.0004
  23030090.7284    1224201.52049    939297.29845  23030089.9314   23030097.2044
       216.0004        159.0004
  24020720.5714    1194556.78049    907360.12145  24020721.2814   24020725.8704
       203.0004        143.0004
  23966689.0434   -2107552.86549  -1628221.15945  23966688.0974   23966695.4294
       208.0004        145.0004
  24096958.3444    1365788.03249   1045950.86945  24096958.7434   24096965.7104
       212.0004        150.0004
  23112830.4234   -3076790.13649  -2381361.80045  23112829.8014   23112834.5684
       216.0004        158.0004
 07  2 17 22 52 15.0000000  0 10G22G21G 3G24G18G 7G26G 9G 6G14
  21046724.9264   -1509745.25549  -1170882.19447  21046724.5764   21046726.9314
       241.0004        205.0004
  20638843.6044    -552963.96349   -433589.18247  20638842.8764   20638846.5514
       243.0004        208.0004
  22590940.2274   -2100330.15549  -1622526.86146  22590940.2674   22590945.0104
       225.0004        174.0004
  24498685.9504     609231.52949    463584.94145  24498685.5234   24498693.8364
       212.0004        147.0004
  20815871.1204    -465124.66249   -366518.57447  20815870.3534   20815874.0504
       241.0004        209.0004
  23033332.8344    1241238.94249    952573.20345  23033332.5464   23033339.4404
       217.0004        160.0004
  24024171.3194    1212690.57249    921490.33745  24024172.3124   24024177.1154
       201.0004        143.0004
  23964638.7994   -2118326.72749  -1636616.36845  23964637.7864   23964646.0074
       206.0004        145.0004
  24100413.0694    1383942.53149   1060097.22245  24100413.7614   24100420.7954
       214.0004        150.0004
  23109483.3824   -3094379.05049  -2395067.43045  23109482.8284   23109487.8794
       217.0004        158.0004
 07  2 17 22 52 20.0000000  0 10G22G21G 3G24G18G 7G26G 9G 6G14
  21045835.9264   -1514417.00449  -1174522.52047  21045835.6014   21045838.3064
       242.0004        205.0004
  20639425.8064    -549904.42249   -431205.12847  20639425.0734   20639428.7794
       244.0004        208.0004
  22589216.4284   -2109388.79849  -1629585.53546  22589215.8914   22589221.4304
       226.0004        174.0004
  24501004.3284     621414.54749    473078.18445  24501004.2384   24501012.4754
       213.0004        148.0004
  20816557.9804    -461515.04549   -363705.89047  20816557.3574   20816560.8844
       241.0004        209.0004
  23036575.7674    1258280.57749    965852.38945  23036575.3714   23036581.9664
       218.0004        160.0004
  24027623.4404    1230831.60849    935626.19845  24027623.3134   24027629.9594
       200.0004        143.0004
  23962590.1794   -2129092.24249  -1645005.07645  23962589.5144   23962597.2034
       208.0004        144.0004
  24103868.0214    1402098.41249   1074244.65045  24103868.8394   24103875.6854
       215.0004        151.0004
  23106137.2844   -3111962.73149  -2408768.98345  23106136.8444   23106142.0304
       216.0004        158.0004
 07  2 17 22 52 25.0000000  0 10G22G21G 3G24G18G 7G26G 9G 6G14
  21044948.4784   -1519080.61949  -1178156.50347  21044948.2164   21044950.5814
       241.0004        205.0004
  20640009.8174    -546835.39149   -428813.67447  20640009.1294   20640012.6824
       243.0004        208.0004
  22587495.2374   -2118433.85449  -1636633.63346  22587494.6634   22587500.0104
       225.0004        174.0004
  24503323.4964     633601.64949    482574.61345  24503323.6424   24503331.6864
       212.0004        148.0004
  20817246.1574    -457898.67549   -360887.94147  20817245.4114   20817249.0764
       240.0004        209.0004
  23039819.5874    1275326.95249    979135.26745  23039818.8254   23039826.6344
       217.0004        160.0004
  24031077.0094    1248980.24349    949767.97145  24031076.7124   24031083.7584
       201.0004        142.0004
  23960543.2384   -2139848.94349  -1653386.92245  23960542.1124   23960550.1924
       207.0004        144.0004
  24107323.3914    1420256.23049   1088393.57845  24107323.7074   24107331.0864
       213.0004        151.0004
  23102792.3324   -3129540.66349  -2422466.06345  23102792.0604   23102797.6884
       215.0004        158.0004
 07  2 17 22 52 30.0000000  0 10G22G21G 3G24G18G 7G26G 9G 6G14
  21044062.4644   -1523736.68749  -1181784.60547  21044062.2094   21044064.7064
       241.0004        205.0004
  20640595.5554    -543757.41649   -426415.25247  20640594.8644   20640598.3744
       243.0004        208.0004
  22585776.4824   -2127465.92049  -1643671.60746  22585776.3724   22585781.0094
       224.0004        174.0004
  24505643.2904     645792.24349    492073.77045  24505643.0764   24505651.0054
       214.0004        148.0004
  20817935.4954    -454276.14249   -358065.18547  20817934.9644   20817938.5804
       240.0004        209.0004
  23043064.1784    1292377.41749    992421.32845  23043063.4194   23043071.0854
       215.0004        160.0004
  24034531.9564    1267136.03349    963915.31945  24034530.6814   24034538.0564
       200.0004        142.0004
  23958497.8504   -2150597.45949  -1661762.38845  23958496.7484   23958504.0824
       208.0004        144.0004
  24110779.0104    1438415.46449   1102543.62045  24110779.5354   24110786.4844
       213.0004        151.0004
  23099448.3074   -3147113.44349  -2436159.12145  23099446.8564   23099453.3414
       217.0004        158.0004
 07  2 17 22 52 35.0000000  0 10G22G21G 3G24G18G 7G26G 9G 6G14
  21043177.9784   -1528384.70349  -1185406.43747  21043177.7014   21043179.8994
       241.0004        205.0004
  20641183.0534    -540669.99449   -424009.47347  20641182.3074   20641186.0444
       243.0004        208.0004
  22584060.3054   -2136484.57249  -1650699.12746  22584059.7914   22584065.3064
       225.0004        174.0004
  24507963.8754     657986.81449    501576.02145  24507964.0104   24507970.9644
       214.0004        148.0004
  20818626.1074    -450646.96449   -355237.25747  20818625.4464   20818629.3344
       240.0004        209.0004
  23046309.6564    1309432.52749   1005711.01545  23046309.5724   23046316.0514
       217.0004        160.0004
  24037988.3494    1285299.31949    978068.48945  24037988.3074   24037994.3994
       202.0004        142.0004
  23956454.1414   -2161337.26549  -1670131.05745  23956452.9134   23956459.7914
       207.0004        144.0004
  24114234.9734    1456576.49949   1116695.06345  24114235.2424   24114242.1924
       212.0004        152.0004
  23096105.4044   -3164680.50049  -2449847.72345  23096104.4104   23096110.1074
       216.0004        158.0004
 07  2 17 22 52 40.0000000  0 10G22G21G 3G24G18G 7G26G 9G 6G14
  21042294.9684   -1533024.87549  -1189022.15347  21042294.8724   21042297.2214
       241.0004        205.0004
  20641772.3264    -537573.35649   -421596.51047  20641771.7594   20641775.2684
       243.0004        208.0004
  22582346.6624   -2145489.95949  -1657716.30346  22582345.7574   22582351.5374
       225.0004        174.0004
  24510285.1644     670185.15449    511081.21745  24510284.8534   24510292.1934
       213.0004        148.0004
  20819317.9384    -447011.36049   -352404.32047  20819317.2174   20819320.9914
       240.0004        209.0004
  23049555.9584    1326491.95649   1019004.06345  23049555.7554   23049562.3494
       217.0004        160.0004
  24041446.1464    1303470.07649    992227.50945  24041446.8334   24041452.2574
       207.0004        142.0004
  23954412.0704   -2172068.52049  -1678493.07245  23954411.6864   23954417.8454
       208.0004        143.0004
  24117691.2254    1474739.11449   1130847.74345  24117691.3704   24117697.9354
       212.0004        152.0004
  23092763.5404   -3182242.06549  -2463532.04445  23092762.5934   23092767.8104
       215.0004        157.0004
 07  2 17 22 52 45.0000000  0 10G22G21G 3G24G18G 7G26G 9G 6G14
  21041413.3914   -1537657.58449  -1192632.04747  21041413.0034   21041415.4944
       243.0004        205.0004
  20642363.3044    -534467.84249   -419176.62647  20642362.5904   20642366.0204
       245.0004        208.0004
  22580635.4594   -2154482.37049  -1664723.36646  22580634.8124   22580640.2334
       226.0004        174.0004
  24512607.0964     682386.94849    520589.10645  24512606.8654   24512613.6904
       213.0004        148.0004
  20820010.9174    -443369.75049   -349566.69247  20820010.1874   20820013.7544
       242.0004        209.0004
  23052803.0184    1343555.38749   1032300.23445  23052802.2074   23052809.2894
       219.0004        160.0004
  24044905.2754    1321647.68349   1006391.86745  24044906.5884   24044911.5154
       205.0004        142.0004
  23952371.5354   -2182791.57349  -1686848.70045  23952371.2684   23952378.1064
       208.0004        144.0004
  24121147.7174    1492902.98149   1145001.39445  24121147.4974   24121154.7184
       216.0004        152.0004
  23089422.6344   -3199798.51349  -2477212.37645  23089421.4964   23089427.4674
       216.0004        157.0004
 07  2 17 22 52 50.0000000  0 10G22G21G 3G24G18G 7G26G 9G 6G14
  21040533.4724   -1542281.59649  -1196235.17247  21040533.0824   21040535.5204
       241.0004        205.0004
  20642956.1824    -531352.22449   -416748.87347  20642955.3694   20642959.0904
       243.0004        208.0004
  22578926.9484   -2163460.64549  -1671719.43446  22578926.7444   22578930.5794
       225.0004        174.0004
  24514929.9254     694593.42349    530100.64045  24514929.1484   24514937.0424
       212.0004        148.0004
  20820705.2784    -439720.83349   -346723.38647  20820704.4764   20820708.2904
       241.0004        209.0004
  23056051.0724    1360624.08549   1045600.51345  23056050.9984   23056057.4564
       217.0004        160.0004
  24048366.0204    1339833.63049   1020562.72445  24048365.7434   24048372.6704
       203.0004        142.0004
  23950332.8244   -2193505.15849  -1695196.94245  23950332.5604   23950339.0494
       208.0004        144.0004
  24124604.6964    1511069.36049   1159156.99245  24124604.4944   24124612.1194
       213.0004        152.0004
  23086082.9334   -3217348.58349  -2490887.73645  23086081.8384   23086087.2474
       216.0004        157.0004
 07  2 17 22 52 55.0000000  0 10G22G21G 3G24G18G 7G26G 9G 6G14
  21039655.0074   -1546898.07149  -1199832.42947  21039654.6604   21039656.9444
       241.0004        205.0004
  20643550.7724    -528227.61649   -414314.11847  20643550.2184   20643553.7194
       243.0004        208.0004
  22577220.9094   -2172425.94449  -1678705.37546  22577220.1164   22577225.7894
       225.0004        174.0004
  24517253.4004     706803.42349    539614.91845  24517253.2294   24517260.5464
       210.0004        147.0004
  20821400.8474    -436065.75449   -343875.27547  20821399.9954   20821404.0524
       240.0004        209.0004
  23059299.9424    1377696.85949   1058903.95645  23059299.4294   23059306.8664
       218.0004        160.0004
  24051828.0484    1358026.56649   1034739.02845  24051828.2264   24051835.0544
       200.0004        142.0004
  23948295.6904   -2204210.38049  -1703538.66745  23948295.3804   23948301.1054
       207.0004        145.0004
  24128061.9294    1529236.99349   1173313.57545  24128062.3304   24128069.3954
       213.0004        152.0004
  23082744.2534   -3234893.37349  -2504558.99745  23082743.8594   23082749.6184
       216.0004        157.0004
 07  2 17 22 53  0.0000000  0 10G22G21G 3G24G18G 7G26G 9G 6G14
  21038777.9884   -1551506.81449  -1203423.64947  21038777.4374   21038779.9774
       242.0004        205.0004
  20644147.1344    -525093.83149   -411872.20847  20644146.4454   20644149.9534
       244.0004        208.0004
  22575517.3644   -2181378.01249  -1685681.02346  22575516.6954   22575521.3024
       224.0004        174.0004
  24519577.5844     719017.12349    549132.08245  24519577.5204   24519584.1324
       211.0004        147.0004
  20822097.5774    -432404.32349   -341022.21047  20822096.8324   20822100.5524
       241.0004        209.0004
  23062549.5884    1394773.84949   1072210.69145  23062549.0004   23062555.5774
       218.0004        160.0004
  24055291.4444    1376226.75549   1048920.96945  24055291.2184   24055298.1364
       202.0004        142.0004
  23946260.1804   -2214907.14949  -1711873.80545  23946259.4004   23946266.0064
       207.0004        144.0004
  24131519.4224    1547406.12149   1187471.32745  24131519.8364   24131527.2834
       213.0004        152.0004
  23079406.6374   -3252432.67049  -2518225.96445  23079405.8204   23079411.1794
       216.0004        157.0004
 07  2 17 22 53  5.0000000  0 10G22G21G 3G24G18G 7G26G 9G 6G14
  21037902.5324   -1556107.42949  -1207008.54247  21037901.9844   21037904.7844
       241.0004        205.0004
  20644745.2914    -521950.50249   -409422.86147  20644744.5314   20644748.0504
       243.0004        208.0004
  22573816.4544   -2190316.36949  -1692645.96446  22573815.9424   22573821.5764
       225.0004        174.0004
  24521902.5654     731234.93249    558652.44545  24521901.7214   24521909.1744
       211.0004        147.0004
  20822795.6394    -428736.14849   -338163.89347  20822794.8694   20822798.4924
       240.0004        209.0004
  23065800.1394    1411855.42049   1085521.00245  23065799.9794   23065806.8214
       218.0004        160.0004
  24058756.2864    1394434.51349   1063108.81045  24058756.9394   24058761.8434
       207.0004        142.0004
  23944226.3794   -2225595.00049  -1720201.98545  23944225.2784   23944231.8624
       205.0004        144.0004
  24134977.3014    1565577.14149   1201630.55145  24134977.2834   24134985.1414
       214.0004        152.0004
  23076070.1284   -3269966.09049  -2531888.36245  23076069.3404   23076075.1714
       216.0004        157.0004
 07  2 17 22 53 10.0000000  0 10G22G21G 3G24G18G 7G26G 9G 6G14
  21037028.5394   -1560700.24149  -1210587.35647  21037027.9394   21037030.4834
       241.0004        205.0004
  20645345.2144    -518797.92249   -406966.30847  20645344.6554   20645347.8984
       244.0004        208.0004
  22572118.0434   -2199241.36849  -1699600.50546  22572117.3484   22572122.6474
       224.0004        174.0004
  24524228.2634     743456.52849    568175.75245  24524228.5004   24524235.5684
       212.0004        146.0004
  20823494.8854    -425061.59349   -335300.60647  20823494.2854   20823497.6744
       240.0004        209.0004
  23069051.5234    1428941.39549   1098834.73645  23069050.6894   23069058.9224
       218.0004        160.0004
  24062222.5384    1412649.61449   1077302.37545  24062222.6004   24062228.8224
       204.0004        142.0004
  23942194.1874   -2236274.23349  -1728523.45845  23942193.9444   23942200.0164
       205.0004        144.0004
  24138435.4494    1583749.69249   1215790.97245  24138435.5394   24138443.2874
       211.0004        152.0004
  23072734.6844   -3287493.94949  -2545546.41845  23072733.7294   23072739.2634
       215.0004        157.0004
 07  2 17 22 53 15.0000000  0 10G22G21G 3G24G18G 7G26G 9G 6G14
  21036156.0554   -1565285.17549  -1214160.03047  21036155.4234   21036158.0494
       241.0004        205.0004
  20645946.9454    -515635.97549   -404502.45147  20645946.1894   20645949.4734
       244.0004        208.0004
  22570422.2034   -2208152.94249  -1706544.59246  22570421.7224   22570427.1344
       225.0004        174.0004
  24526554.6914     755681.99749    577702.08145  24526554.6504   24526562.1494
       210.0004        146.0004
  20824195.3404    -421380.56849   -332432.27347  20824194.6304   20824198.3364
       240.0004        209.0004
  23072303.7374    1446031.69449   1112151.85145  23072302.9574   23072310.4824
       217.0004        160.0004
  24065690.1564    1430871.97149   1091501.60145  24065690.9294   24065695.3734
       207.0004        143.0004
  23940163.6324   -2246944.68549  -1736838.08145  23940163.2704   23940169.5824
       207.0004        143.0004
  24141893.9124    1601923.81849   1229952.61345  24141893.7054   24141901.2294
       212.0004        151.0004
  23069400.3064   -3305016.09349  -2559200.01845  23069399.6174   23069404.3474
       216.0004        157.0004
 07  2 17 22 53 20.0000000  0 10G22G21G 3G24G18G 7G26G 9G 6G14
  21035285.0674   -1569862.10749  -1217726.46747  21035284.5864   21035287.1574
       242.0004        205.0004
  20646550.4284    -512464.55849   -402031.21647  20646549.5214   20646552.8944
       244.0004        208.0004
  22568728.9504   -2217050.95849  -1713478.10046  22568728.1954   22568733.5654
       226.0004        175.0004
  24528881.8684     767911.45349    587231.52245  24528881.9384   24528889.2084
       210.0004        145.0004
  20824897.0864    -417692.90849   -329558.76947  20824896.2944   20824899.9824
       241.0004        209.0004
  23075556.8014    1463126.48649   1125472.45745  23075556.3354   23075563.5444
       218.0004        160.0004
  24069159.2254    1449101.85449   1105706.70545  24069159.9774   24069164.2624
       204.0004        142.0004
  23938134.7964   -2257606.29949  -1745145.81945  23938134.6044   23938140.1524
       208.0004        143.0004
  24145352.7034    1620099.68749   1244115.61245  24145352.7104   24145359.9344
       212.0004        151.0004
  23066067.0704   -3322532.47749  -2572849.13445  23066065.9854   23066071.2554
       216.0004        157.0004
 07  2 17 22 53 25.0000000  0 10G22G21G 3G24G18G 7G26G 9G 6G14
  21034415.5234   -1574431.61749  -1221287.11747  21034414.7384   21034417.2054
       242.0004        205.0004
  20647155.6224    -509284.32049   -399553.10647  20647154.7124   20647158.3044
       244.0004        208.0004
  22567038.1644   -2225936.09249  -1720401.56946  22567037.5754   22567043.1034
       226.0004        175.0004
  24531209.6954     780144.20249    596763.52945  24531209.4674   24531216.6664
       211.0004        145.0004
  20825599.9544    -413999.29749   -326680.62647  20825598.9484   20825602.7044
       241.0004        209.0004
  23078810.5544    1480225.07949   1138796.03045  23078808.6634   23078816.8664
       217.0004        160.0004
  24072629.5634    1467338.45649   1119917.04345  24072630.4354   24072635.1094
       200.0004        142.0004
  23936107.5194   -2268259.73949  -1753447.19545  23936108.0074   23936112.0754
       207.0004        142.0004
  24148811.7074    1638276.63749   1258279.45645  24148811.3564   24148819.0154
       210.0004        151.0004
  23062734.7914   -3340043.72449  -2586494.25045  23062734.0614   23062739.1064
       216.0004        157.0004
 07  2 17 22 53 30.0000000  0 10G22G21G 3G24G18G 7G26G 9G 6G14
  21033547.5974   -1578992.60949  -1224841.13747  21033547.0784   21033549.6334
       241.0004        205.0004
  20647762.7054    -506094.10049   -397067.22447  20647761.9724   20647765.5764
       244.0004        208.0004
  22565350.0414   -2234807.17849  -1727314.10746  22565349.5644   22565354.9924
       225.0004        175.0004
  24533538.3884     792381.45749    606299.04845  24533538.6154   24533544.4654
       209.0004        144.0004
  20826304.1754    -410298.58249   -323796.95547  20826303.4004   20826307.2154
       240.0004        209.0004
  23082065.2954    1497328.66849   1152123.48145  23082065.2194   23082071.8264
       216.0004        160.0004
  24076101.3884    1485582.94649   1134133.52945  24076101.3424   24076107.2074
       199.0004        141.0004
  23934082.0414   -2278903.75349  -1761741.23445  23934082.9694   23934087.3684
       209.0004        142.0004
  24152271.1134    1656455.83649   1272445.05145  24152270.7514   24152278.3164
       209.0004        150.0004
  23059403.7144   -3357548.62849  -2600134.41545  23059402.8884   23059407.5934
       217.0004        157.0004
 07  2 17 22 53 35.0000000  0 10G22G21G 3G24G18G 7G26G 9G 6G14
  21032681.1274   -1583545.91849  -1228389.16747  21032680.6484   21032683.2434
       242.0004        205.0004
  20648371.5274    -502894.69949   -394574.18647  20648370.9404   20648374.2584
       244.0004        208.0004
  22563664.4684   -2243665.02849  -1734216.32546  22563664.0104   22563669.9994
       226.0004        175.0004
  24535867.7604     804622.40349    615837.44645  24535867.1634   24535874.7184
       210.0004        144.0004
  20827009.5894    -406591.61649   -320908.40947  20827008.7824   20827012.6954
       241.0004        209.0004
  23085320.7984    1514436.40649   1165454.17745  23085320.5154   23085326.9824
       217.0004        160.0004
  24079574.5474    1503834.55649   1148355.55545  24079573.9584   24079580.6444
       197.0004        140.0004
  23932058.2314   -2289539.14049  -1770028.56145  23932058.1414   23932064.1604
       207.0004        142.0004
  24155730.7684    1674636.35849   1286611.68345  24155730.8364   24155738.3924
       211.0004        150.0004
  23056073.6894   -3375047.99749  -2613770.26845  23056072.6734   23056077.9124
       217.0004        157.0004
 07  2 17 22 53 40.0000000  0 10G22G21G 3G24G18G 7G26G 9G 6G14
  21031816.1384   -1588091.41249  -1231931.10747  21031815.6574   21031818.0234
       241.0004        205.0004
  20648982.1454    -499685.94449   -392073.85947  20648981.4384   20648984.9344
       244.0004        208.0004
  22561981.4464   -2252509.47649  -1741108.09946  22561980.6164   22561987.0534
       226.0004        175.0004
  24538197.8464     816867.18049    625378.82245  24538197.7494   24538205.1454
       208.0004        144.0004
  20827716.2184    -402878.29549   -318014.91447  20827715.5734   20827719.0764
       241.0004        209.0004
  23088577.1114    1531548.39149   1178788.17045  23088576.2614   23088584.4764
       217.0004        160.0004
  24083049.0374    1522093.36949   1162583.18945  24083048.6124   24083056.0164
       199.0004        140.0004
  23930036.0914   -2300165.78049  -1778309.05645  23930035.3814   23930041.7964
       207.0004        142.0004
  24159190.6874    1692818.41149   1300779.50245  24159190.5304   24159197.9004
       208.0004        150.0004
  23052744.7644   -3392541.70049  -2627401.71445  23052743.6284   23052748.8514
       217.0004        157.0004
 07  2 17 22 53 45.0000000  0 10G22G21G 3G24G18G 7G26G 9G 6G14
  21030952.5964   -1592629.26849  -1235467.10047  21030952.1654   21030954.6144
       241.0004        205.0004
  20649594.4974    -496468.06549   -389566.42347  20649593.9144   20649597.2114
       243.0004        208.0004
  22560300.9424   -2261340.66349  -1747989.54446  22560300.9094   22560305.8944
       225.0004        175.0004
  24540528.6434     829115.60749    634923.04445  24540528.4564   24540535.8674
       209.0004        144.0004
  20828424.0054    -399158.76449   -315116.57947  20828423.2934   20828427.1714
       240.0004        209.0004
  23091834.2264    1548664.46649   1192125.36945  23091833.0874   23091840.5644
       216.0004        160.0004
  24086524.8784    1540359.19649   1176816.27945  24086523.8674   24086531.7024
       200.0004        140.0004
  23928015.5784   -2310783.77949  -1786582.82045  23928014.7804   23928020.9154
       205.0004        142.0004
  24162650.8524    1711001.75749   1314948.32645  24162650.6754   24162658.5764
       210.0004        149.0004
  23049416.8844   -3410029.87749  -2641028.85345  23049416.2914   23049421.8284
       218.0004        157.0004
 07  2 17 22 53 50.0000000  0 10G22G21G 3G24G18G 7G26G 9G 6G14
  21030090.6204   -1597159.01849  -1238996.77547  21030090.2914   21030092.7254
       243.0004        205.0004
  20650208.6364    -493240.58949   -387051.50847  20650207.9494   20650211.6144
       245.0004        208.0004
  22558623.0054   -2270158.19349  -1754860.34546  22558622.9704   22558628.3854
       227.0004        175.0004
  24542860.2404     841368.13649    644470.46045  24542860.0324   24542867.5244
       210.0004        144.0004
  20829133.0754    -395432.54349   -312213.02947  20829132.2724   20829136.0964
       242.0004        209.0004
  23095092.1534    1565785.09149   1205466.09945  23095091.4714   23095098.3804
       216.0004        160.0004
  24090002.0984    1558632.50049   1191055.20245  24090001.6994   24090008.0034
       198.0004        140.0004
  23925996.7644   -2321392.72449  -1794849.53445  23925995.9184   23926001.1404
       205.0004        141.0004
  24166111.3534    1729186.94149   1329118.58745  24166111.4794   24166118.9804
       208.0004        148.0004
  23046090.1434   -3427512.07649  -2654651.33045  23046089.4644   23046094.4054
       218.0004        158.0004
 07  2 17 22 53 55.0000000  0 10G22G21G 3G24G18G 7G26G 9G 6G14
  21029230.1874   -1601680.52349  -1242520.02147  21029229.8874   21029232.4064
       241.0004        205.0004
  20650824.6794    -490003.35149   -384528.98547  20650824.0824   20650827.6504
       244.0004        208.0004
  22556947.7214   -2278961.85949  -1761720.34246  22556947.5204   22556953.0574
       226.0004        175.0004
  24545192.6044     853624.90049    654021.17545  24545192.0274   24545200.0594
       208.0004        145.0004
  20829843.4684    -391699.51849   -309304.17847  20829842.7804   20829846.4154
       241.0004        209.0004
  23098350.9924    1582910.37349   1218810.45945  23098350.1254   23098357.7984
       216.0004        160.0004
  24093480.7894    1576913.40149   1205300.05045  24093479.6814   24093486.6394
       199.0004        139.0004
  23923979.6814   -2331992.45649  -1803109.06345  23923979.6044   23923984.5474
       203.0004        140.0004
  24169572.2264    1747373.99949   1343290.30745  24169572.6734   24169580.5394
       206.0004        147.0004
  23042764.5484   -3444988.13449  -2668269.02345  23042763.9564   23042769.1744
       216.0004        158.0004
 07  2 17 22 54  0.0000000  0 10G22G21G 3G24G18G 7G26G 9G 6G14
  21028371.2084   -1606194.49349  -1246037.40047  21028370.5924   21028373.3754
       241.0004        205.0004
  20651442.4304    -486757.07749   -381999.42447  20651441.6244   20651445.2764
       243.0004        208.0004
  22555274.9744   -2287752.41949  -1768570.13046  22555274.4084   22555280.5664
       226.0004        175.0004
  24547525.6334     865885.16049    663574.62145  24547524.6824   24547534.0064
       206.0004        145.0004
  20830555.0074    -387960.41049   -306390.59047  20830554.3374   20830557.7794
       241.0004        209.0004
  23101610.5884    1600039.56749   1232157.87145  23101609.9784   23101617.7294
       215.0004        159.0004
  24096960.7894    1595201.24549   1219550.31045  24096960.8414   24096967.3904
       197.0004        138.0004
  23921964.2064   -2342583.68649  -1811361.95645  23921963.8294   23921968.7164
       203.0004        139.0004
  24173033.3104    1765562.22349   1357462.93245  24173033.5974   24173042.2104
       207.0004        147.0004
  23039440.0114   -3462458.73649  -2681882.47245  23039439.5584   23039444.8654
       217.0004        158.0004
 07  2 17 22 54  5.0000000  0 10G22G21G 3G24G18G 7G26G 9G 6G14
  21027513.7034   -1610700.75549  -1249548.77047  21027513.5454   21027515.8054
       241.0004        205.0004
  20652061.9044    -483501.57049   -379462.66547  20652061.1764   20652064.7274
       244.0004        208.0004
  22553604.7614   -2296529.59949  -1775409.48346  22553604.4754   22553610.1444
       226.0004        175.0004
  24549859.3614     878149.12049    673130.94545  24549858.5674   24549867.2814
       208.0004        145.0004
  20831267.7154    -384215.04149   -303472.11847  20831267.2744   20831270.6834
       241.0004        209.0004
  23104870.9274    1617172.83449   1245508.45145  23104871.1514   23104877.6254
       215.0004        159.0004
  24100442.1064    1613496.11949   1233806.04145  24100442.5114   24100448.0554
       196.0004        137.0004
  23919950.3384   -2353166.17049  -1819608.03145  23919948.0854   23919955.1804
       203.0004        139.0004
  24176494.6264    1783751.75649   1371636.58145  24176495.0314   24176503.1614
       206.0004        146.0004
  23036116.5284   -3479923.68349  -2695491.50745  23036115.8194   23036120.9384
       220.0004        158.0004
 07  2 17 22 54 10.0000000  0 10G22G21G 3G24G18G 7G26G 9G 6G14
  21026657.7584   -1615198.77149  -1253053.71947  21026657.3384   21026659.9314
       241.0004        205.0004
  20652683.2884    -480236.25949   -376918.27147  20652682.6754   20652686.2944
       243.0004        208.0004
  22551937.1724   -2305292.88749  -1782238.02146  22551936.7894   22551942.4974
       226.0004        175.0004
  24552193.9154     890417.35549    682690.60045  24552193.2304   24552201.3954
       206.0004        145.0004
  20831981.7514    -380462.87149   -300548.35647  20831981.0204   20831984.5814
       240.0004        209.0004
  23108132.1714    1634310.75549   1258862.65545  23108131.0044   23108138.9464
       215.0004        159.0004
  24103924.8654    1631798.45149   1248067.57545  24103924.2404   24103932.0514
       196.0004        136.0004
  23917938.3064   -2363739.30949  -1827846.82345  23917936.8974   23917944.5414
       205.0004        139.0004
  24179956.3614    1801943.22249   1385811.73545  24179956.3454   24179963.7904
       206.0004        145.0004
  23032794.2004   -3497382.43349  -2709095.71445  23032794.0284   23032797.7634
       219.0004        159.0004
 07  2 17 22 54 15.0000000  0 10G22G21G 3G24G18G 7G26G 9G 6G14
  21025803.2114   -1619689.51149  -1256552.98847  21025802.6904   21025805.2274
       243.0004        205.0004
  20653306.3004    -476962.17749   -374367.03647  20653305.4044   20653309.1144
       245.0004        208.0004
  22550272.0444   -2314043.21449  -1789056.44246  22550270.9624   22550276.1974
       228.0004        175.0004
  24554529.0824     902688.91349    692252.84245  24554528.5544   24554536.3324
       209.0004        145.0004
  20832696.8654    -376704.85749   -297620.02647  20832695.9354   20832699.7144
       242.0004        209.0004
  23111394.1064    1651452.34449   1272219.72945  23111393.1054   23111400.7594
       216.0004        159.0004
  24107408.9164    1650107.38449   1262334.26545  24107408.0694   24107415.5884
       200.0004        137.0004
  23915927.8604   -2374304.08949  -1836079.09945  23915926.8184   23915934.5154
       207.0004        139.0004
  24183418.2714    1820135.57749   1399987.58445  24183418.7384   24183425.2454
       207.0004        145.0004
  23029472.8994   -3514835.95649  -2722695.84945  23029472.5684   23029477.5914
       219.0004        159.0004
 07  2 17 22 54 20.0000000  0 10G22G21G 3G24G18G 7G26G 9G 6G14
  21024950.2554   -1624171.86649  -1260045.73347  21024949.9004   21024952.3874
       241.0004        205.0004
  20653931.2124    -473678.19849   -371808.09547  20653930.6814   20653934.0994
       243.0004        208.0004
  22548609.5944   -2322779.51249  -1795863.95146  22548608.9134   22548613.6634
       226.0004        175.0004
  24556865.1264     914964.86949    701818.51445  24556864.4764   24556872.3734
       208.0004        145.0004
  20833413.3284    -372939.87949   -294686.27947  20833412.5294   20833416.1224
       241.0004        209.0004
  23114656.9404    1668598.67249   1285580.48645  23114657.0664   23114663.9584
       215.0004        158.0004
  24110894.4524    1668424.04849   1276606.96745  24110893.6964   24110901.6214
       202.0004        138.0004
  23913919.2254   -2384859.37149  -1844303.98845  23913918.0894   23913926.1904
       206.0004        140.0004
  24186880.5924    1838329.90149   1414164.96145  24186880.4114   24186888.1464
       206.0004        144.0004
  23026152.8204   -3532283.11549  -2736291.03245  23026152.5164   23026156.8874
       218.0004        159.0004
 07  2 17 22 54 25.0000000  0 10G22G21G 3G24G18G 7G26G 9G 6G14
  21024098.8324   -1628646.10849  -1263532.15147  21024098.4304   21024100.6784
       241.0004        205.0004
  20654557.9844    -470384.55949   -369241.62247  20654557.4874   20654561.0514
       244.0004        208.0004
  22546949.7454   -2331502.01949  -1802660.71646  22546949.2324   22546954.4974
       226.0004        175.0004
  24559201.9614     927244.98049    711387.42945  24559201.3294   24559209.2314
       208.0004        145.0004
  20834131.0614    -369168.22049   -291747.32347  20834130.3524   20834133.9584
       240.0004        209.0004
  23117920.6254    1685749.49949   1298944.75145  23117919.6174   23117927.0494
       214.0004        158.0004
  24114381.4364    1686748.12049   1290885.44645  24114381.8414   24114388.1614
       204.0004        138.0004
  23911912.3854   -2395405.45349  -1852521.70845  23911911.6684   23911919.1714
       204.0004        140.0004
  24190343.2334    1856526.00349   1428343.72945  24190343.0744   24190350.8814
       205.0004        144.0004
  23022833.9224   -3549724.17349  -2749881.45145  23022833.5144   23022837.8824
       217.0004        160.0004
 07  2 17 22 54 30.0000000  0 10G22G21G 3G24G18G 7G26G 9G 6G14
  21023248.7334   -1633113.35349  -1267013.12047  21023248.3384   21023250.8004
       242.0004        205.0004
  20655186.3824    -467082.33449   -366668.46047  20655185.8824   20655189.4974
       245.0004        208.0004
  22545292.3634   -2340211.78449  -1809447.53846  22545291.8294   22545296.7214
       227.0004        175.0004
  24561539.4094     939528.12749    720958.70145  24561539.0204   24561546.9204
       208.0004        145.0004
  20834849.8404    -365390.97049   -288804.00947  20834849.0444   20834852.8874
       241.0004        209.0004
  23121184.9444    1702903.66149   1312311.62445  23121184.1774   23121191.1844
       216.0004        158.0004
  24117869.6034    1705078.41449   1305168.78145  24117870.1364   24117875.8334
       205.0004        139.0004
  23909907.0664   -2405943.41849  -1860733.09845  23909905.3074   23909913.2044
       206.0004        140.0004
  24193805.9694    1874722.66949   1442522.93245  24193805.8274   24193813.7084
       207.0004        143.0004
  23019515.9564   -3567160.21349  -2763467.96245  23019514.9014   23019520.5354
       218.0004        160.0004
 07  2 17 22 54 35.0000000  0 10G22G21G 3G24G18G 7G26G 9G 6G14
  21022400.2824   -1637572.04549  -1270487.42547  21022399.9554   21022402.3514
       241.0004        205.0004
  20655816.6824    -463770.01149   -364087.42847  20655815.9564   20655819.7384
       244.0004        208.0004
  22543637.6484   -2348907.32949  -1816223.28646  22543636.4654   22543641.8504
       225.0004        175.0004
  24563877.6954     951815.82349    730533.51845  24563877.6414   24563884.6234
       207.0004        145.0004
  20835569.9904    -361606.65549   -285855.19447  20835569.1464   20835572.9414
       240.0004        209.0004
  23124450.1974    1720062.67849   1325682.27045  23124449.9964   23124456.3004
       216.0004        158.0004
  24121359.2874    1723416.52149   1319458.20445  24121358.6714   24121365.6924
       202.0004        139.0004
  23907903.5674   -2416471.70949  -1868936.97045  23907902.1244   23907908.5394
       204.0004        140.0004
  24197269.1324    1892921.49149   1456703.82045  24197268.9994   24197276.5544
       205.0004        143.0004
  23016199.2334   -3584589.72349  -2777049.38745  23016197.4284   23016203.7214
       217.0004        160.0004
 07  2 17 22 54 40.0000000  0 10G22G21G 3G24G18G 7G26G 9G 6G14
  21021553.2104   -1642023.33849  -1273955.95847  21021552.8924   21021555.3074
       241.0004        205.0004
  20656448.7474    -460448.69249   -361499.38347  20656447.9494   20656451.7594
       243.0004        208.0004
  22541985.4554   -2357589.66649  -1822988.73046  22541984.6994   22541989.8464
       225.0004        175.0004
  24566216.6534     964106.97449    740111.02945  24566216.1424   24566223.9974
       208.0004        145.0004
  20836291.2634    -357816.39049   -282901.73547  20836290.4164   20836294.1204
       240.0004        209.0004
  23127716.1834    1737225.45649   1339055.84545  23127715.9054   23127722.8924
       216.0004        158.0004
  24124850.2174    1741761.30049   1333752.81445  24124849.2444   24124854.8684
       202.0004        139.0004
  23905901.6964   -2426991.43349  -1877134.15745  23905900.4404   23905908.0004
       206.0004        140.0004
  24200732.4424    1911121.33549   1470885.50645  24200731.9324   24200739.3914
       206.0004        143.0004
  23012883.5344   -3602013.79449  -2790626.57245  23012882.4734   23012887.1454
       217.0004        160.0004
 07  2 17 22 54 45.0000000  0 10G22G21G 3G24G18G 7G26G 9G 6G14
  21020707.6864   -1646466.71149  -1277418.32847  21020707.4174   21020709.5434
       241.0004        205.0004
  20657082.5884    -457117.85849   -358903.93447  20657081.9504   20657085.5034
       243.0004        208.0004
  22540335.8884   -2366258.33449  -1829743.53546  22540334.9114   22540340.9494
       225.0004        175.0004
  24568556.3844     976402.09349    749691.62345  24568556.0534   24568563.8364
       205.0004        145.0004
  20837013.7484    -354019.65749   -279943.24647  20837012.9764   20837016.7454
       240.0004        209.0004
  23130982.9844    1754392.48549   1352432.74345  23130982.4744   23130988.6854
       216.0004        158.0004
  24128342.5004    1760113.20049   1348052.97945  24128342.1264   24128347.6424
       206.0004        139.0004
  23903901.5784   -2437502.06449  -1885324.26145  23903900.6744   23903907.8234
       202.0004        140.0004
  24204196.0484    1929322.60349   1485068.30345  24204196.0044   24204203.4634
       205.0004        143.0004
  23009568.9604   -3619431.84149  -2804199.06445  23009568.5074   23009573.8174
       218.0004        160.0004
 07  2 17 22 54 50.0000000  0 10G22G21G 3G24G18G 7G26G 9G 6G14
  21019863.6644   -1650902.02549  -1280874.41347  21019863.2314   21019865.6814
       242.0004        205.0004
  20657718.2464    -453777.38149   -356300.96247  20657717.3904   20657720.9714
       244.0004        208.0004
  22538688.8984   -2374913.21049  -1836487.59846  22538688.3914   22538693.0014
       226.0004        175.0004
  24570896.8474     988701.30049    759275.40045  24570896.3224   24570904.2914
       206.0004        144.0004
  20837737.4944    -350216.33949   -276979.61947  20837736.5254   20837740.5064
       241.0004        209.0004
  23134250.6234    1771563.94749   1365813.09645  23134249.7624   23134256.3154
       216.0004        157.0004
  24131836.2374    1778472.45149   1362358.88345  24131836.5374   24131842.4124
       208.0004        139.0004
  23901903.1934   -2448003.48449  -1893507.18545  23901902.7974   23901908.9544
       204.0004        140.0004
  24207659.9584    1947525.54849   1499252.40345  24207660.2264   24207667.7314
       205.0004        142.0004
  23006255.5774   -3636843.75949  -2817766.78045  23006254.9314   23006259.2324
       218.0004        160.0004
 07  2 17 22 54 55.0000000  0 10G22G21G 3G24G18G 7G26G 9G 6G14
  21019021.0614   -1655329.97549  -1284324.76647  21019020.8454   21019023.1264
       241.0004        205.0004
  20658355.6244    -450427.99449   -353691.05347  20658354.7194   20658358.3614
       243.0004        208.0004
  22537044.3964   -2383555.05049  -1843221.50046  22537043.3104   22537049.8174
       225.0004        174.0004
  24573237.9954    1001003.91949    768861.84745  24573237.4624   24573245.7014
       205.0004        144.0004
  20838462.3734    -346407.12049   -274011.40047  20838461.7234   20838465.4704
       240.0004        209.0004
  23137518.9454    1788739.05949   1379196.28745  23137518.0404   23137525.5784
       215.0004        157.0004
  24135331.2104    1796838.21049   1376669.86645  24135331.4584   24135336.1704
       209.0004        140.0004
  23899906.4784   -2458496.28349  -1901683.38345  23899905.9994   23899912.0004
       203.0004        141.0004
  24211124.0574    1965729.43949   1513437.23745  24211124.1784   24211131.7404
       206.0004        142.0004
  23002943.2034   -3654250.24249  -2831330.26345  23002942.3744   23002947.0444
       216.0004        160.0004
 07  2 17 22 55  0.0000000  0 10G22G21G 3G24G18G 7G26G 9G 6G14
  21018180.0494   -1659749.49749  -1287768.54547  21018179.7474   21018182.0164
       241.0004        205.0004
  20658994.8764    -447068.69349   -351073.42347  20658994.2964   20658997.6214
       243.0004        207.0004
  22535402.6224   -2392182.68549  -1849944.32746  22535401.7964   22535406.8794
       225.0004        174.0004
  24575579.9434    1013310.95349    778451.72545  24575580.0104   24575587.8774
       207.0004        143.0004
  20839188.5904    -342590.93549   -271037.75047  20839187.8204   20839191.5574
       241.0004        209.0004
  23140788.1694    1805918.83549   1392583.10945  23140788.1464   23140794.5644
       215.0004        157.0004
  24138827.6524    1815211.56449   1390986.77145  24138828.1474   24138832.5434
       209.0004        140.0004
  23897911.5584   -2468979.47949  -1909852.08945  23897911.0904   23897916.9644
       205.0004        141.0004
  24214588.5314    1983935.23349   1527623.56045  24214588.6394   24214595.4384
       207.0004        141.0004
  22999632.0734   -3671650.21749  -2844888.67145  22999631.2874   22999636.3964
       217.0004        160.0004
 07  2 17 22 55  5.0000000  0 10G22G21G 3G24G18G 7G26G 9G 6G14
  21017340.3644   -1664161.95849  -1291206.82447  21017339.9984   21017342.5664
       242.0004        205.0004
  20659635.7694    -443700.66749   -348448.98447  20659635.0424   20659638.5934
       244.0004        207.0004
  22533763.2474   -2400797.48849  -1856657.15046  22533762.5914   22533767.8434
       226.0004        174.0004
  24577922.4874    1025621.07049    788044.01645  24577921.9894   24577930.4894
       203.0004        143.0004
  20839915.8504    -338769.17349   -268059.75147  20839914.9674   20839918.8894
       242.0004        209.0004
  23144058.0014    1823101.97949   1405972.56845  23144056.9334   23144064.8474
       216.0004        157.0004
  24142325.2864    1833591.15649   1405308.53745  24142326.1254   24142330.4084
       210.0004        141.0004
  23895918.2504   -2479454.39849  -1918014.34345  23895917.6204   23895924.4674
       203.0004        141.0004
  24218053.1314    2002141.70549   1541810.40945  24218053.4904   24218060.1504
       206.0004        140.0004
  22996321.9154   -3689045.02449  -2858443.04545  22996320.6194   22996325.9634
       217.0004        160.0004
 07  2 17 22 55 10.0000000  0 10G22G21G 3G24G18G 7G26G 9G 6G14
  21016502.2714   -1668566.11949  -1294638.63447  21016501.9284   21016504.3684
       242.0004        205.0004
  20660278.6004    -440322.68449   -345816.78747  20660277.7674   20660281.3944
       244.0004        207.0004
  22532126.5644   -2409398.24249  -1863359.03846  22532125.9944   22532131.7074
       225.0004        174.0004
  24580265.8164    1037935.51549    797639.67845  24580264.8674   24580274.0384
       205.0004        144.0004
  20840644.4304    -334940.57249   -265076.42547  20840643.5234   20840647.3384
       241.0004        209.0004
  23147328.7384    1840289.67349   1419365.56745  23147328.3284   23147334.4594
       216.0004        157.0004
  24145824.3164    1851978.30249   1419636.18945  24145824.7934   24145829.8244
       206.0004        141.0004
  23893926.7264   -2489919.78949  -1926169.17345  23893925.2604   23893932.8504
       206.0004        141.0004
  24221518.0754    2020349.94249   1555998.63045  24221517.7124   24221525.8214
       206.0004        140.0004
  22993012.9854   -3706433.44249  -2871992.45045  22993011.8694   22993017.4644
       217.0004        159.0004
 07  2 17 22 55 15.0000000  0 10G22G21G 3G24G18G 7G26G 9G 6G14
  21015665.7164   -1672962.25349  -1298064.19547  21015665.5084   21015667.8574
       242.0004        205.0004
  20660923.2534    -436935.03149   -343177.06147  20660922.8314   20660926.0894
       244.0004        207.0004
  22530492.5444   -2417985.14549  -1870050.12446  22530491.7354   22530497.2864
       225.0004        174.0004
  24582609.9304    1050254.02349    807238.51545  24582609.2744   24582617.1014
       205.0004        144.0004
  20841374.2574    -331105.39649   -262087.97947  20841373.3674   20841377.0774
       240.0004        209.0004
  23150600.2644    1857481.66049   1432761.91245  23150599.9334   23150606.2274
       217.0004        157.0004
  24149324.6724    1870372.61349   1433969.40645  24149325.6204   24149330.4544
       205.0004        141.0004
  23891937.0074   -2500375.80249  -1934316.69045  23891936.1674   23891943.2744
       207.0004        142.0004
  24224983.2904    2038559.72549   1570188.05845  24224982.9534   24224990.8684
       205.0004        140.0004
  22989705.2064   -3723815.67249  -2885537.02645  22989704.5594   22989709.7604
       217.0004        159.0004
 07  2 17 22 55 20.0000000  0 10G22G21G 3G24G18G 7G26G 9G 6G14
  21014830.6214   -1677350.79849  -1301483.83647  21014830.2264   21014832.6714
       241.0004        205.0004
  20661569.6584    -433538.15049   -340530.14247  20661569.0034   20661572.1824
       244.0004        207.0004
  22528861.0524   -2426558.69749  -1876730.82346  22528861.3744   22528865.0824
       225.0004        174.0004
  24584954.7354    1062576.18349    816840.19845  24584954.1904   24584960.9494
       206.0004        144.0004
  20842105.2334    -327264.09449   -259094.76047  20842104.3214   20842108.1054
       240.0004        209.0004
  23153872.5414    1874677.51349   1446161.26645  23153871.8084   23153878.3204
       215.0004        157.0004
  24152826.3284    1888773.64849   1448307.86345  24152826.8364   24152833.7644
       209.0004        141.0004
  23889948.9444   -2510822.95849  -1942457.31545  23889948.2134   23889955.7204
       208.0004        142.0004
  24228448.7434    2056770.59749   1584378.33145  24228447.8654   24228456.2634
       203.0004        140.0004
  22986398.5824   -3741192.14349  -2899077.12045  22986397.5184   22986402.5764
       216.0004        159.0004
 07  2 17 22 55 25.0000000  0 10G22G21G 3G24G18G 7G26G 9G 6G14
  21013997.0074   -1681731.56749  -1304897.41947  21013996.7134   21013998.9664
       242.0004        205.0004
  20662217.8704    -430131.86649   -337875.89547  20662217.1854   20662220.4434
       244.0004        207.0004
  22527232.1394   -2435118.70249  -1883400.94746  22527230.9234   22527237.9324
       226.0004        175.0004
  24587300.2694    1074902.12949    826444.82145  24587299.8574   24587306.8664
       207.0004        143.0004
  20842837.4084    -323416.49349   -256096.62947  20842836.6544   20842840.2754
       240.0004        209.0004
  23157145.5664    1891877.41049   1459563.77145  23157144.2234   23157153.1424
       215.0004        156.0004
  24156329.2544    1907181.58949   1462651.69745  24156329.1314   24156336.7514
       210.0004        141.0004
  23887962.6434   -2521261.02049  -1950590.85645  23887962.0584   23887969.2184
       208.0004        142.0004
  24231914.4114    2074982.75449   1598569.60645  24231913.4054   24231921.7284
       204.0004        140.0004
  22983093.0544   -3758562.69649  -2912612.60845  22983091.6774   22983097.6864
       218.0004        160.0004
 07  2 17 22 55 30.0000000  0 10G22G21G 3G24G18G 7G26G 9G 6G14
  21013164.8854   -1686104.46549  -1308304.87047  21013164.7294   21013166.8664
       241.0004        205.0004
  20662867.8564    -426716.15649   -335214.30447  20662867.1954   20662870.4474
       243.0004        207.0004
  22525605.8204   -2443665.02249  -1890060.41846  22525605.2984   22525611.2864
       225.0004        175.0004
  24589646.5764    1087232.01349    836052.51245  24589647.1424   24589653.5634
       205.0004        144.0004
  20843570.7594    -319562.52049   -253093.53447  20843569.8574   20843573.7164
       240.0004        209.0004
  23160419.3884    1909081.33749   1472969.42145  23160418.9764   23160426.2164
       215.0004        156.0004
  24159833.5164    1925596.47949   1477000.94245  24159834.3054   24159840.7764
       208.0004        142.0004
  23885978.0904   -2531689.96549  -1958717.30445  23885977.1924   23885984.6974
       208.0004        142.0004
  24235380.3424    2093196.21749   1612761.88845  24235379.7264   24235388.5544
       205.0004        140.0004
  22979788.7084   -3775927.20049  -2926143.37045  22979786.8254   22979793.5284
       216.0004        159.0004
 07  2 17 22 55 35.0000000  0 11G22G21G 3G24G18G19G 7G26G 9G 6G14
  21012334.0884   -1690470.30849  -1311706.82047  21012333.5844   21012336.0484
       241.0004        205.0004
  20663519.5064    -423291.72849   -332545.91547  20663518.9734   20663522.0864
       243.0004        207.0004
  22523981.9744   -2452198.46249  -1896709.84646  22523980.6934   22523986.7144
       225.0004        174.0004
  24591993.5124    1099565.01849    845662.64245  24591993.8274   24592001.0024
       205.0004        143.0004
  20844305.2344    -315702.92849   -250086.05447  20844304.3484   20844308.0294
       240.0004        209.0004
  24775465.4334   -2622528.01959  -1807481.93845  24775464.9234   24775466.7124
       211.0004        140.0004
  23163693.8464    1926288.66049   1486377.71345  23163693.0994   23163699.1594
       215.0004        156.0004
  24163338.9524    1944017.58749   1491355.04845  24163339.2384   24163345.9234
       210.0004        142.0004
  23883995.1514   -2542110.51149  -1966837.20345  23883994.6654   23884001.3124
       208.0004        142.0004
  24238846.4174    2111410.33649   1626954.69245  24238846.3164   24238853.5924
       206.0004        139.0004
  22976485.3434   -3793286.44049  -2939670.04445  22976484.1314   22976489.7964
       217.0004        160.0004
 07  2 17 22 55 40.0000000  0 11G22G21G 3G24G18G19G 7G26G 9G 6G14
  21011504.7124   -1694828.64949  -1315102.93047  21011504.3584   21011506.5844
       242.0004        205.0004
  20664172.9034    -419858.14549   -329870.40047  20664172.3414   20664175.7624
       244.0004        207.0004
  22522360.6304   -2460718.52649  -1903348.84646  22522360.0754   22522365.9874
       224.0004        174.0004
  24594341.1044    1111901.58649    855275.54445  24594341.2024   24594349.3484
       207.0004        143.0004
  20845040.7934    -311837.34849   -247073.91547  20845039.8594   20845043.7114
       241.0004        209.0004
  24772424.4564   -2638508.37249  -1819934.16145  24772423.8584   24772425.7894
       209.0004        139.0004
  23166969.0314    1943499.66449   1499788.86645  23166968.3624   23166975.6714
       216.0004        156.0004
  24166845.6164    1962445.23449   1505714.25345  24166846.5704   24166851.2764
       209.0004        143.0004
  23882013.8814   -2552522.16949  -1974950.18445  23882013.2764   23882019.7904
       206.0004        143.0004
  24242312.6264    2129625.37449   1641148.22245  24242312.9964   24242319.9004
       204.0004        139.0004
  22973183.0524   -3810640.02549  -2953192.30145  22973181.7374   22973187.4384
       217.0004        160.0004
 07  2 17 22 55 45.0000000  0 11G22G21G 3G24G18G19G 7G26G 9G 6G14
  21010676.9164   -1699178.72149  -1318492.59547  21010676.6614   21010678.8384
       241.0004        205.0004
  20664828.1904    -416414.63249   -327187.14247  20664827.4784   20664831.0354
       244.0004        207.0004
  22520742.0084   -2469224.43149  -1909976.82346  22520741.0454   22520747.1614
       225.0004        174.0004
  24596689.5654    1124242.46349    864891.80845  24596689.5064   24596696.0564
       205.0004        143.0004
  20845777.6704    -307965.01749   -244056.51447  20845776.7494   20845780.4314
       240.0004        209.0004
  24769384.6264   -2654482.60049  -1832381.61245  24769383.2734   24769386.7154
       208.0004        139.0004
  23170245.0054    1960715.09049   1513203.47745  23170244.5234   23170251.6804
       214.0004        155.0004
  24170353.6764    1980880.29749   1520079.23845  24170354.5324   24170359.5174
       208.0004        143.0004
  23880034.4624   -2562924.21849  -1983055.68045  23880034.0164   23880039.5424
       205.0004        142.0004
  24245779.1634    2147842.14149   1655343.08445  24245778.5374   24245786.8214
       202.0004        140.0004
  22969881.9924   -3827987.13649  -2966709.52045  22969881.6224   22969886.9294
       216.0004        160.0004
 07  2 17 22 55 50.0000000  0 11G22G21G 3G24G18G19G 7G26G 9G 6G14
  21009850.5514   -1703521.29149  -1321876.41247  21009850.1934   21009852.7904
       242.0004        205.0004
  20665485.2274    -412961.91449   -324496.71347  20665484.5334   20665488.2944
       244.0004        207.0004
  22519125.9084   -2477716.96649  -1916594.38946  22519125.4344   22519131.0244
       224.0004        174.0004
  24599038.6794    1136586.92449    874510.85645  24599039.6994   24599046.6124
       205.0004        142.0004
  20846515.6974    -304086.64849   -241034.41047  20846514.6884   20846518.7084
       240.0004        209.0004
  24766345.8424   -2670451.42949  -1844824.85745  24766345.4164   24766347.7114
       211.0004        138.0004
  23173521.7444    1977934.27949   1526621.01045  23173521.4354   23173528.0534
       215.0004        155.0004
  24173862.9804    1999321.93449   1534449.33945  24173863.6624   24173869.4924
       208.0004        143.0004
  23878056.7324   -2573317.29149  -1991154.18145  23878056.2864   23878062.4674
       205.0004        141.0004
  24249245.9144    2166059.98249   1669538.79045  24249245.4274   24249254.4994
       205.0004        139.0004
  22966582.0574   -3845328.49149  -2980222.25145  22966580.9374   22966586.0574
       217.0004        160.0004
 07  2 17 22 55 55.0000000  0 11G22G21G 3G24G18G19G 7G26G 9G 6G14
  21009025.7204   -1707855.92249  -1325254.04447  21009025.4044   21009027.8224
       242.0004        205.0004
  20666144.1004    -409499.58449   -321798.79647  20666143.5074   20666146.9104
       244.0004        207.0004
  22517512.4344   -2486195.70449  -1923201.19146  22517511.8314   22517517.7164
       226.0004        174.0004
  24601388.5524    1148935.38349    884133.02745  24601389.5324   24601395.3554
       203.0004        142.0004
  20847254.9554    -300201.85949   -238007.29947  20847254.1564   20847257.9164
       241.0004        209.0004
  24763308.1334   -2686414.43549  -1857263.56845  24763307.4994   24763310.6944
       210.0004        138.0004
  23176799.2554    1995157.59749   1540041.76645  23176799.1564   23176804.3464
       215.0004        155.0004
  24177373.6284    2017770.62649   1548824.92845  24177372.9734   24177380.1554
       207.0004        143.0004
  23876080.7634   -2583701.02549  -1999245.39545  23876080.2644   23876085.9124
       206.0004        140.0004
  24252712.9214    2184279.19549   1683735.56045  24252713.0064   24252720.6164
       203.0004        139.0004
  22963283.2864   -3862663.67149  -2993730.17145  22963282.1114   22963288.2854
       218.0004        160.0004
 07  2 17 22 56  0.0000000  0 11G22G21G 3G24G18G19G 7G26G 9G 6G14
  21008202.2974   -1712182.99849  -1328625.78947  21008201.8744   21008204.0544
       242.0004        205.0004
  20666804.7244    -406028.03449   -319093.68747  20666803.9194   20666807.5194
       244.0004        207.0004
  22515901.5434   -2494661.06349  -1929797.56546  22515900.5364   22515906.7614
       224.0004        174.0004
  24603739.1074    1161287.46349    893758.01945  24603738.7064   24603746.6534
       202.0004        141.0004
  20847995.3504    -296311.03049   -234975.48247  20847994.3744   20847998.1074
       241.0004        209.0004
  24760271.4904   -2702372.01749  -1869698.04145  24760270.3624   24760274.2244
       210.0004        138.0004
  23180077.4644    2012384.63449   1553465.42145  23180076.6974   23180082.9684
       215.0004        155.0004
  24180885.5374    2036225.82749   1563205.59045  24180885.0424   24180893.1814
       207.0004        143.0004
  23874106.5194   -2594075.79749  -2007329.62545  23874105.8904   23874112.3134
       207.0004        140.0004
  24256180.1134    2202499.36049   1697933.07245  24256180.4364   24256188.5034
       204.0004        139.0004
  22959985.6034   -3879993.01849  -3007233.55045  22959984.2444   22959990.4424
       218.0004        160.0004
 07  2 17 22 56  5.0000000  0 11G22G21G 3G24G18G19G 7G26G 9G 6G14
  21007380.4874   -1716501.60049  -1331990.93447  21007380.1434   21007382.6444
       243.0004        205.0004
  20667467.2674    -402546.26849   -316380.62947  20667466.5514   20667470.2064
       245.0004        207.0004
  22514293.3604   -2503112.00349  -1936382.71346  22514293.3794   22514298.0654
       227.0004        174.0004
  24606090.5014    1173644.12049    903386.56545  24606089.8884   24606097.5624
       203.0004        141.0004
  20848737.0694    -292413.16349   -231938.19047  20848736.3904   20848739.9194
       242.0004        209.0004
  24757236.0644   -2718323.14349  -1882127.47245  24757234.9934   24757238.6624
       211.0004        139.0004
  23183356.5684    2029616.33749   1566892.71145  23183355.5874   23183363.1794
       215.0004        155.0004
  24184398.8754    2054688.58949   1577592.14145  24184399.0594   24184405.6834
       213.0004        143.0004
  23872134.2024   -2604440.59649  -2015406.08145  23872133.8264   23872140.2754
       208.0004        141.0004
  24259647.6514    2220721.42849   1712132.06745  24259647.9854   24259655.9854
       203.0004        139.0004
  22956689.2514   -3897315.55749  -3020731.61045  22956688.8954   22956693.6234
       219.0004        160.0004
 07  2 17 22 56 10.0000000  0 11G22G21G 3G24G18G19G 7G26G 9G 6G14
  21006560.1024   -1720812.70749  -1335350.23547  21006559.9114   21006562.2174
       241.0004        205.0004
  20668131.5824    -399055.30349   -313660.39547  20668130.9814   20668134.5334
       243.0004        207.0004
  22512687.7804   -2511549.47249  -1942957.36446  22512686.4614   22512692.8194
       225.0004        174.0004
  24608442.5864    1186004.36249    913017.91245  24608441.1314   24608449.5224
       201.0004        141.0004
  20849479.9344    -288509.29749   -228896.21347  20849478.9764   20849482.6654
       240.0004        209.0004
  24754201.6674   -2734268.86449  -1894552.69445  24754200.1344   24754204.0744
       210.0004        139.0004
  23186636.3914    2046851.74249   1580322.87945  23186635.6164   23186643.7664
       215.0004        155.0004
  24187913.4624    2073157.84149   1591983.75645  24187913.4664   24187919.6584
       208.0004        142.0004
  23870163.5794   -2614796.39549  -2023475.52145  23870162.6304   23870169.2304
       208.0004        141.0004
  24263115.4014    2238944.48849   1726331.84045  24263115.4154   24263123.9764
       204.0004        139.0004
  22953393.9944   -3914632.27349  -3034225.14145  22953393.3664   22953398.5074
       217.0004        161.0004
 07  2 17 22 56 15.0000000  0 11G22G21G 3G24G18G19G 7G26G 9G 6G14
  21005741.1864   -1725116.04749  -1338703.48447  21005740.9084   21005743.1964
       241.0004        205.0004
  20668797.6964    -395554.86649   -310932.78447  20668797.0904   20668800.6384
       243.0004        207.0004
  22511084.7794   -2519973.23749  -1949521.33746  22511084.7904   22511089.7074
       225.0004        174.0004
  24610795.3894    1198368.46149    922652.26445  24610792.4334   24610802.6934
       203.0004        140.0004
  20850224.0124    -284599.13549   -225849.33647  20850223.3014   20850227.1774
       240.0004        209.0004
  24751168.3834   -2750208.85449  -1906973.45445  24751167.3134   24751170.3784
       212.0004        139.0004
  23189916.9334    2064091.07049   1593756.10945  23189916.4854   23189924.0194
       216.0004        155.0004
  24191429.3484    2091633.96649   1606380.73045  24191428.7724   24191434.8024
       209.0004        142.0004
  23868194.7124   -2625142.94249  -2031537.75245  23868193.7734   23868200.6904
       208.0004        142.0004
  24266583.3734    2257168.69649   1740532.50745  24266582.9044   24266591.3104
       203.0004        139.0004
  22950099.8874   -3931942.89449  -3047713.93545  22950098.8874   22950103.7824
       218.0004        161.0004
 07  2 17 22 56 20.0000000  0 11G22G21G 3G24G18G19G 7G26G 9G 6G14
  21004923.8094   -1729411.52149  -1342050.60747  21004923.2244   21004925.9014
       242.0004        205.0004
  20669465.6444    -392044.87549   -308197.72447  20669464.9674   20669468.5344
       244.0004        207.0004
  22509484.4034   -2528383.21949  -1956074.56646  22509484.2884   22509488.9124
       225.0004        174.0004
  24613148.8944    1210736.47249    932289.66345  24613146.3734   24613156.8084
       202.0004        140.0004
  20850969.3074    -280682.60549   -222797.49347  20850968.4954   20850972.3834
       241.0004        209.0004
  24748136.2164   -2766143.04349  -1919389.70245  24748135.0334   24748138.3434
       206.0004        139.0004
  23193198.2764    2081334.39249   1607192.45045  23193197.6834   23193205.1814
       217.0004        155.0004
  24194946.5394    2110116.94049   1620783.04645  24194945.8784   24194951.0994
       207.0004        141.0004
  23866227.6514   -2635480.11349  -2039592.66845  23866227.0454   23866233.6404
       207.0004        143.0004
  24270051.5614    2275394.19449   1754734.17545  24270049.9744   24270058.9804
       201.0004        138.0004
  22946806.9544   -3949247.31449  -3061197.88645  22946805.6074   22946811.5424
       219.0004        161.0004
 07  2 17 22 56 25.0000000  0 11G22G21G 3G24G18G19G 7G26G 9G 6G14
  21004107.8984   -1733699.12749  -1345391.59547  21004107.7294   21004110.1124
       241.0004        205.0004
  20670135.4134    -388525.29449   -305455.19747  20670134.8234   20670138.3904
       244.0004        207.0004
  22507886.6634   -2536779.36249  -1962617.01446  22507885.6454   22507891.1864
       225.0004        174.0004
  24615503.1444    1223108.44649    941930.16145  24615501.4834   24615510.6474
       201.0004        139.0004
  20851715.8194    -276759.68949   -219740.67747  20851714.9484   20851718.7924
       241.0004        209.0004
  24745105.1594   -2782071.38149  -1931801.38945  24745104.1314   24745108.2254
       209.0004        138.0004
  23196480.3684    2098581.74349   1620631.93445  23196479.9014   23196487.7164
       217.0004        155.0004
  24198465.0504    2128606.82549   1635190.74845  24198464.9014   24198469.1084
       203.0004        140.0004
  23864262.3594   -2645807.86149  -2047640.25445  23864261.5464   23864269.1174
       208.0004        143.0004
  24273519.9904    2293621.03049   1768936.88745  24273518.6334   24273527.6634
       202.0004        138.0004
  22943515.2194   -3966545.51549  -3074676.98645  22943514.5154   22943519.3004
       218.0004        161.0004
 07  2 17 22 56 30.0000000  0 11G22G21G 3G24G18G19G 7G26G 9G 6G14
  21003293.4394   -1737979.09349  -1348726.63047  21003292.9534   21003295.1924
       241.0004        205.0004
  20670806.9484    -384996.32949   -302705.35147  20670806.1194   20670809.5964
       243.0004        207.0004
  22506291.5224   -2545161.91749  -1969148.86646  22506290.8694   22506296.7884
       224.0004        174.0004
  24617858.0994    1235484.16349    951573.56345  24617856.5934   24617865.1614
       201.0004        139.0004
  20852463.4924    -272830.63249   -216679.07347  20852462.9004   20852466.4534
       240.0004        209.0004
  24742075.1494   -2797994.10649  -1944208.69645  24742072.6904   24742077.8024
       207.0004        138.0004
  23199763.1934    2115832.89349   1634074.37145  23199763.1084   23199769.0874
       216.0004        156.0004
  24201984.7984    2147103.33049   1649603.60845  24201985.1544   24201989.2774
       205.0004        139.0004
  23862298.7694   -2656126.43349  -2055680.68945  23862298.1754   23862305.3554
       208.0004        144.0004
  24276988.6244    2311848.82249   1783140.33445  24276988.6114   24276997.1744
       198.0004        137.0004
  22940224.6104   -3983837.67349  -3088151.38345  22940223.7544   22940229.6254
       218.0004        161.0004
 07  2 17 22 56 35.0000000  0 11G22G21G 3G24G18G19G 7G26G 9G 6G14
  21002480.5544   -1742250.76149  -1352055.19947  21002480.0064   21002482.5594
       241.0004        205.0004
  20671480.3964    -381457.34549   -299947.70247  20671479.6324   20671483.3344
       243.0004        207.0004
  22504699.0574   -2553530.38849  -1975669.74646  22504698.8214   22504703.4454
       225.0004        174.0004
  24620213.9184    1247864.21249    961220.35145  24620213.5314   24620220.8814
       202.0004        138.0004
  20853212.4614    -268894.80449   -213612.19847  20853211.8724   20853215.5734
       241.0004        208.0004
  24739046.3144   -2813910.52349  -1956611.09745  24739043.7964   24739049.7064
       208.0004        138.0004
  23203046.8714    2133088.42449   1647520.23745  23203046.1954   23203053.2944
       216.0004        156.0004
  24205505.9084    2165607.05949   1664022.09845  24205505.7674   24205511.1304
       206.0004        138.0004
  23860337.0824   -2666435.22149  -2063713.50245  23860336.9024   23860342.4934
       208.0004        144.0004
  24280457.5884    2330078.33449   1797345.12445  24280457.2694   24280465.3734
       200.0004        137.0004
  22936935.2594   -4001123.19449  -3101620.60945  22936934.6414   22936939.7944
       219.0004        162.0004
 07  2 17 22 56 40.0000000  0 11G22G21G 3G24G18G19G 7G26G 9G 6G14
  21001669.0634   -1746515.19849  -1355378.13847  21001668.4974   21001671.2964
       241.0004        205.0004
  20672155.5534    -377909.41449   -297183.08347  20672154.6454   20672158.4264
       243.0004        207.0004
  22503109.0964   -2561885.69649  -1982180.37446  22503108.2724   22503114.1214
       224.0004        174.0004
  24622570.3754    1260247.61649    970869.74845  24622570.0794   24622577.3314
       202.0004        138.0004
  20853962.5144    -264953.25449   -210540.86047  20853961.7734   20853965.7424
       240.0004        208.0004
  24736018.5024   -2829821.66849  -1969009.39645  24736016.9724   24736022.7264
       208.0004        138.0004
  23206331.1964    2150347.31949   1660968.71245  23206330.3924   23206337.1164
       215.0004        156.0004
  24209028.1914    2184117.01949   1678445.43645  24209028.5984   24209034.3704
       206.0004        137.0004
  23858377.0764   -2676735.21349  -2071739.46745  23858377.0094   23858382.7934
       208.0004        144.0004
  24283926.7074    2348308.45749   1811550.39245  24283925.9884   24283934.8214
       204.0004        136.0004
  22933647.0364   -4018403.06449  -3115085.44145  22933646.2174   22933651.1974
       218.0004        162.0004
 07  2 17 22 56 45.0000000  0 11G22G21G 3G24G18G19G 7G26G 9G 6G14
  21000859.1344   -1750771.46649  -1358694.70847  21000859.2084   21000861.0874
       242.0004        205.0004
  20672832.5924    -374351.55149   -294410.72347  20672831.6664   20672835.5014
       243.0004        207.0004
  22501521.8464   -2570226.78549  -1988679.92446  22501521.7114   22501526.5404
       225.0004        174.0004
  24624927.6684    1272635.27149    980522.45645  24624927.6774   24624935.2194
       202.0004        138.0004
  20854713.8424    -261005.02449   -207464.31647  20854713.1434   20854716.6554
       241.0004        208.0004
  24732991.8834   -2845726.62049  -1981402.86445  24732990.0574   24732996.3654
       208.0004        139.0004
  23209616.3144    2167610.48049   1674420.51145  23209615.3084   23209622.2784
       215.0004        156.0004
  24212551.7904    2202634.03649   1692874.26045  24212553.1684   24212558.8104
       206.0004        137.0004
  23856418.9004   -2687025.44749  -2079757.82045  23856418.9454   23856424.8784
       210.0004        145.0004
  24287396.1154    2366540.12249   1825756.86845  24287396.5054   24287404.8484
       200.0004        136.0004
  22930360.0154   -4035676.36249  -3128545.13645  22930359.3234   22930364.8464
       218.0004        162.0004
 07  2 17 22 56 50.0000000  0 11G22G21G 3G24G18G19G 7G26G 9G 6G14
  21000050.6614   -1755020.01349  -1362005.25847  21000050.6374   21000052.6454
       243.0004        205.0004
  20673511.4194    -370784.22849   -291630.99147  20673510.5764   20673514.4794
       244.0004        207.0004
  22499937.2054   -2578554.17849  -1995168.80046  22499937.3084   22499942.6404
       227.0004        174.0004
  24627285.6954    1285026.73949    990178.13245  24627286.0254   24627292.1624
       202.0004        137.0004
  20855466.3464    -257050.59249   -204382.93947  20855465.7714   20855469.3584
       241.0004        208.0004
  24729966.3474   -2861625.84549  -1993791.86045  24729964.5224   24729970.2534
       207.0004        140.0004
  23212902.1344    2184877.44549   1687875.28045  23212901.2734   23212908.1514
       215.0004        156.0004
  24216076.7304    2221157.71349   1707308.28145  24216077.7084   24216083.0604
       207.0004        136.0004
  23854462.5254   -2697306.36049  -2087768.91045  23854462.4994   23854468.6784
       210.0004        144.0004
  24290865.7114    2384772.87649   1839964.19545  24290866.0934   24290874.8424
       201.0004        136.0004
  22927074.2054   -4052943.50349  -3142000.04546  22927073.2374   22927079.0614
       219.0004        163.0004
 07  2 17 22 56 55.0000000  0 11G22G21G 3G24G18G19G 7G26G 9G 6G14
  20999243.6564   -1759260.91349  -1365309.85947  20999243.5364   20999245.7994
       241.0004        205.0004
  20674192.0164    -367207.50749   -288843.93747  20674191.3454   20674194.7764
       243.0004        207.0004
  22498355.1814   -2586867.87249  -2001647.00246  22498355.0634   22498359.7904
       225.0004        174.0004
  24629644.4574    1297421.95749    999836.73445  24629644.0424   24629651.6354
       203.0004        137.0004
  20856220.0154    -253090.04449   -201296.80447  20856219.4204   20856222.9264
       240.0004        208.0004
  24726941.8644   -2877519.37949  -2006176.42545  24726939.7064   24726945.7724
       205.0004        139.0004
  23216188.6054    2202148.12849   1701332.93745  23216188.2874   23216194.7494
       213.0004        156.0004
  24219602.9164    2239687.95349   1721747.41645  24219603.3284   24219608.2824
       209.0004        136.0004
  23852507.9124   -2707577.99249  -2095772.77345  23852507.2834   23852514.0264
       205.0004        145.0004
  24294335.4914    2403006.60449   1854172.28445  24294334.6324   24294343.3364
       199.0004        135.0004
  22923789.5424   -4070204.58149  -3155450.22045  22923788.8314   22923793.6524
       218.0004        162.0004
 07  2 17 22 57  0.0000000  0 11G22G21G 3G24G18G19G 7G26G 9G 6G14
  20998438.1974   -1763493.62349  -1368608.06647  20998437.7844   20998440.2834
       241.0004        205.0004
  20674874.5534    -363620.79749   -286049.09947  20674873.7334   20674877.2374
       243.0004        207.0004
  22496775.8404   -2595167.35649  -2008114.12346  22496774.6474   22496780.5044
       226.0004        175.0004
  24632004.0324    1309821.45049   1009498.66745  24632003.5894   24632011.0574
       204.0004        138.0004
  20856974.9524    -249122.82249   -198205.45847  20856974.1474   20856978.0284
       240.0004        208.0004
  24723918.6024   -2893406.62649  -2018556.08845  24723916.7494   24723921.2964
       206.0004        139.0004
  23219475.8984    2219423.08949   1714793.92345  23219475.1224   23219481.7174
       212.0004        156.0004
  24223130.4494    2258225.31249   1736192.10045  24223130.1164   24223135.4724
       208.0004        135.0004
  23850555.1704   -2717839.79649  -2103768.97245  23850554.2254   23850561.1584
       206.0004        145.0004
  24297805.5614    2421241.83549   1868381.54745  24297804.6404   24297811.8704
       199.0004        134.0004
  22920506.1574   -4087458.99749  -3168895.20945  22920505.5644   22920510.5574
       217.0004        162.0004
 07  2 17 22 57  5.0000000  0 11G22G21G 3G24G18G19G 7G26G 9G 6G14
  20997634.1384   -1767719.05449  -1371900.60647  20997633.7414   20997636.0854
       242.0004        205.0004
  20675558.7664    -360025.07949   -283247.24247  20675558.0694   20675561.5714
       244.0004        207.0004
  22495199.0474   -2603453.55549  -2014570.90146  22495197.7094   22495204.4784
       225.0004        175.0004
  24634364.2584    1322224.27549   1019163.19645  24634364.6644   24634371.4194
       204.0004        137.0004
  20857730.9594    -245149.88349   -195109.66547  20857730.1944   20857734.0974
       241.0004        208.0004
  24720896.3194   -2909288.50149  -2030931.56345  24720893.1024   24720899.1894
       207.0004        137.0004
  23222763.7994    2236701.37449   1728257.50445  23222763.3954   23222770.6444
       212.0004        155.0004
  24226659.2024    2276768.82349   1750641.57545  24226658.5234   24226663.3094
       208.0004        134.0004
  23848604.1004   -2728092.63949  -2111758.18045  23848603.1464   23848609.8354
       208.0004        145.0004
  24301275.7324    2439477.77749   1882591.36145  24301275.1574   24301281.7954
       200.0004        133.0004
  22917223.8034   -4104707.70449  -3182335.74945  22917223.0174   22917227.4314
       217.0004        162.0004
 07  2 17 22 57 10.0000000  0 11G22G21G 3G24G18G19G 7G26G 9G 6G14
  20996831.5814   -1771936.51449  -1375186.94047  20996831.1964   20996833.4594
       241.0004        205.0004
  20676244.8794    -356419.63849   -280437.80947  20676244.2944   20676247.7034
       243.0004        207.0004
  22493624.9284   -2611725.70949  -2021016.72646  22493623.8584   22493629.9544
       225.0004        175.0004
  24636725.2854    1334631.16149   1028830.88945  24636725.3204   24636733.8734
       204.0004        138.0004
  20858488.2174    -241170.52649   -192008.86747  20858487.6194   20858491.3194
       240.0004        208.0004
  24717875.2234   -2925164.28049  -2043302.30345  24717873.1424   24717878.7184
       206.0004        137.0004
  23226052.5024    2253983.72349   1741724.25045  23226050.8604   23226058.9624
       214.0004        155.0004
  24230189.2504    2295319.19249   1765096.41145  24230188.9394   24230193.1654
       209.0004        133.0004
  23846654.8974   -2738335.80349  -2119739.84445  23846654.2554   23846660.4744
       209.0004        145.0004
  24304746.1654    2457714.96949   1896802.14545  24304745.0154   24304752.8114
       198.0004        132.0004
  22913942.7024   -4121949.95249  -3195771.26045  22913941.9084   22913946.8824
       217.0004        162.0004
 07  2 17 22 57 15.0000000  0 11G22G21G 3G24G18G19G 7G26G 9G 6G14
  20996030.4404   -1776146.51849  -1378467.45947  20996030.0914   20996032.4374
       242.0004        205.0004
  20676932.7224    -352804.96149   -277621.17847  20676932.1684   20676935.5084
       244.0004        207.0004
  22492053.3374   -2619984.32349  -2027452.00946  22492052.1364   22492058.4944
       225.0004        175.0004
  24639086.9464    1347041.59849   1038501.34445  24639087.8044   24639094.6754
       204.0004        137.0004
  20859246.5904    -237185.22849   -188903.43847  20859245.7954   20859249.5594
       241.0004        208.0004
  24714855.2234   -2941034.47149  -2055668.69345  24714853.5434   24714858.7204
       206.0004        137.0004
  23229341.8514    2271269.53349   1755193.70645  23229340.4224   23229348.5094
       213.0004        155.0004
  24233720.5054    2313875.90549   1779556.18745  24233718.5464   24233724.9274
       208.0004        133.0004
  23844707.4364   -2748569.80249  -2127714.37445  23844706.8634   23844713.1114
       209.0004        146.0004
  24308216.7344    2475952.95849   1911013.56144  24308215.5934   24308223.8514
       196.0004        131.0004
  22910662.7364   -4139186.26149  -3209202.13745  22910661.7894   22910667.2254
       219.0004        162.0004
 07  2 17 22 57 20.0000000  0 11G22G21G 3G24G18G19G 7G26G 9G 6G14
  20995230.9094   -1780348.12749  -1381741.43947  20995230.4544   20995232.8554
       241.0004        205.0004
  20677622.5124    -349180.09649   -274796.60747  20677621.9604   20677625.1324
       244.0004        207.0004
  22490484.5334   -2628228.51749  -2033876.05846  22490483.2024   22490489.7414
       225.0004        175.0004
  24641449.4944    1359456.56449   1048175.33345  24641450.3494   24641456.5114
       201.0004        137.0004
  20860006.2864    -233193.04549   -185792.64747  20860005.5594   20860009.6014
       240.0004        208.0004
  24711836.4714   -2956898.11249  -2068029.97645  24711835.0534   24711839.8034
       205.0004        137.0004
  23232632.1014    2288559.78449   1768666.62145  23232630.1954   23232638.2724
       213.0004        154.0004
  24237253.1364    2332439.84549   1794021.60045  24237252.4994   24237256.8324
       211.0004        133.0004
  23842761.9044   -2758793.70049  -2135681.03245  23842761.0904   23842767.5584
       209.0004        146.0004
  24311687.6374    2494192.63349   1925226.27944  24311686.4104   24311696.0624
       201.0004        131.0004
  22907384.0674   -4156415.67049  -3222627.64145  22907383.1394   22907387.9964
       220.0004        162.0004
 07  2 17 22 57 25.0000000  0 11G22G21G 3G24G18G19G 7G26G 9G 6G14
  20994432.7754   -1784542.30949  -1385009.62747  20994432.2874   20994434.6754
       241.0004        205.0004
  20678314.0724    -345545.98849   -271964.83547  20678313.3724   20678316.8014
       244.0004        207.0004
  22488918.2444   -2636459.30949  -2040289.64946  22488917.4164   22488923.5254
       225.0004        175.0004
  24643812.6474    1371875.04749   1057852.06845  24643813.1334   24643818.0714
       199.0004        137.0004
  20860767.0984    -229194.94749   -182677.24447  20860766.3724   20860769.9114
       240.0004        208.0004
  24708818.7774   -2972756.24049  -2080386.95245  24708817.6414   24708821.3394
       203.0004        137.0004
  23235923.0264    2305853.55249   1782142.27145  23235921.9164   23235930.7004
       213.0004        153.0004
  24240786.9374    2351010.02949   1808491.86945  24240787.3824   24240791.7294
       211.0004        133.0004
  23840818.0954   -2769008.40149  -2143640.52745  23840818.1354   23840823.6314
       208.0004        147.0004
  24315158.6454    2512433.03549   1939439.55644  24315158.6964   24315167.1914
       198.0004        130.0004
  22904106.5234   -4173639.14549  -3236048.52645  22904105.8674   22904110.8194
       218.0004        162.0004
 07  2 17 22 57 30.0000000  0 11G22G21G 3G24G18G19G 7G26G 9G 6G14
  20993636.1194   -1788728.68949  -1388271.74447  20993635.7084   20993637.9444
       242.0004        205.0004
  20679007.4984    -341902.26449   -269125.57347  20679006.9114   20679010.3794
       245.0004        207.0004
  22487354.6224   -2644676.22649  -2046692.45346  22487354.2694   22487359.4424
       226.0004        175.0004
  24646176.5574    1384297.44749   1067531.85445  24646176.8174   24646182.7244
       202.0004        137.0004
  20861529.1224    -225190.56149   -179556.94847  20861528.2054   20861532.1764
       241.0004        208.0004
  24705802.2384   -2988608.35249  -2092739.23845  24705801.0104   24705805.7004
       202.0004        137.0004
  23239214.6774    2323151.12349   1795620.87745  23239213.8174   23239221.0954
       214.0004        153.0004
  24244322.0224    2369586.84949   1822967.31745  24244323.1944   24244327.1054
       213.0004        134.0004
  23838876.1144   -2779213.53649  -2151592.57545  23838876.8894   23838881.7824
       209.0004        147.0004
  24318629.8964    2530674.56149   1953653.71344  24318629.3934   24318637.9034
       199.0004        130.0004
  22900830.2244   -4190856.25049  -3249464.44045  22900830.0654   22900834.7634
       219.0004        162.0004
 07  2 17 22 57 35.0000000  0 11G22G21G 3G24G18G19G 7G26G 9G 6G14
  20992840.9114   -1792907.62149  -1391528.05047  20992840.4194   20992842.9284
       243.0004        205.0004
  20679702.6624    -338249.28049   -266279.09147  20679701.8604   20679705.4744
       246.0004        207.0004
  22485793.5924   -2652879.61149  -2053084.69146  22485791.6604   22485798.4404
       227.0004        175.0004
  24648541.1184    1396723.41649   1077214.42545  24648541.3404   24648547.2184
       202.0004        137.0004
  20862292.2664    -221180.25449   -176432.03247  20862291.2664   20862295.1314
       242.0004        208.0004
  24702786.7414   -3004454.84949  -2105087.14045  24702785.4284   24702790.8224
       204.0004        137.0004
  23242506.9634    2340452.14549   1809102.17745  23242505.7484   23242512.5444
       213.0004        153.0004
  24247858.3094    2388169.97649   1837447.68445  24247859.2164   24247864.2494
       215.0004        135.0004
  23836935.8934   -2789409.46649  -2159537.43745  23836935.7334   23836941.7294
       209.0004        147.0004
  24322101.2744    2548916.83349   1967868.44244  24322101.8894   24322109.4824
       202.0004        130.0004
  22897555.0684   -4208067.32349  -3262875.65246  22897553.9934   22897558.6414
       221.0004        163.0004
 07  2 17 22 57 40.0000000  0 11G22G21G 3G24G18G19G 7G26G 9G 6G14
  20992047.2084   -1797078.42749  -1394778.02747  20992046.6884   20992049.3884
       241.0004        205.0004
  20680399.6954    -334586.34649   -263424.85547  20680398.9084   20680402.4144
       244.0004        207.0004
  22484235.2254   -2661068.76449  -2059465.84146  22484234.2694   22484240.1894
       225.0004        175.0004
  24650906.5014    1409153.65349   1086900.31745  24650907.6024   24650913.3014
       200.0004        137.0004
  20863056.6574    -217163.36249   -173301.98847  20863055.7374   20863059.5864
       240.0004        208.0004
  24699772.4324   -3020295.03249  -2117430.12745  24699771.8544   24699774.8814
       204.0004        136.0004
  23245800.0584    2357757.26649   1822586.68445  23245799.2384   23245806.6944
       214.0004        152.0004
  24251395.9064    2406760.10349   1851933.49845  24251396.5874   24251402.2544
       212.0004        136.0004
  23834997.5924   -2799595.47249  -2167474.56945  23834996.6454   23835003.0844
       210.0004        147.0004
  24325572.9434    2567160.47349   1982084.25044  24325574.2654   24325581.6084
       201.0004        131.0004
  22894281.2054   -4225271.68549  -3276281.63546  22894280.0504   22894285.6874
       219.0004        163.0004
 07  2 17 22 57 45.0000000  0 11G22G21G 3G24G18G19G 7G26G 9G 6G14
  20991254.9294   -1801241.87049  -1398022.26547  20991254.3374   20991256.8694
       242.0004        205.0004
  20681098.4974    -330914.20749   -260563.44947  20681097.8144   20681101.2814
       244.0004        207.0004
  22482679.4734   -2669244.45049  -2065836.51146  22482678.4664   22482683.9614
       225.0004        175.0004
  24653272.5404    1421587.37549   1096588.92245  24653272.2154   24653280.4854
       203.0004        137.0004
  20863822.1474    -213140.64049   -170167.40047  20863821.4374   20863825.3004
       241.0004        208.0004
  24696759.1844   -3036129.65749  -2129768.79045  24696758.1904   24696760.9174
       205.0004        135.0004
  23249093.7604    2375065.78149   1836073.82245  23249093.4484   23249100.4824
       213.0004        152.0004
  24254934.6804    2425356.36349   1866424.08745  24254935.3984   24254940.5314
       210.0004        136.0004
  23833061.0184   -2809772.27049  -2175404.52445  23833059.9264   23833066.4684
       209.0004        147.0004
  24329044.7464    2585404.74949   1996300.54344  24329045.2324   24329052.8064
       202.0004        131.0004
  22891008.4304   -4242470.10249  -3289682.99046  22891007.3954   22891012.4374
       219.0004        163.0004
 07  2 17 22 57 50.0000000  0 11G22G21G 3G24G18G19G 7G26G 9G 6G14
  20990464.2234   -1805397.07549  -1401260.08347  20990463.8144   20990466.2384
       242.0004        205.0004
  20681799.2384    -327232.00649   -257694.20047  20681798.3694   20681801.9354
       243.0004        207.0004
  22481126.4004   -2677405.79649  -2072195.99946  22481126.0804   22481131.5474
       224.0004        175.0004
  24655639.4124    1434025.45649   1106280.92345  24655639.1964   24655647.5864
       201.0004        137.0004
  20864588.9074    -209111.20449   -167027.57847  20864587.9764   20864591.8244
       240.0004        208.0004
  24693747.1574   -3051957.82849  -2142102.44045  24693745.5764   24693747.8374
       199.0004        134.0004
  23252388.2654    2392378.50149   1849564.22945  23252387.4774   23252394.8804
       214.0004        152.0004
  24258474.7734    2443959.67649   1880920.17145  24258475.3774   24258480.7734
       210.0004        135.0004
  23831126.3764   -2819938.94249  -2183326.58945  23831124.9464   23831131.4644
       210.0004        146.0004
  24332516.8174    2603650.52449   2010518.01544  24332517.6994   24332524.9794
       205.0004        131.0004
  22887736.9834   -4259661.67449  -3303079.01446  22887735.6704   22887741.4904
       218.0004        163.0004
 07  2 17 22 57 55.0000000  0 11G22G21G 3G24G18G19G 7G26G 9G 6G14
  20989674.8834   -1809544.99449  -1404492.23147  20989674.7614   20989676.9634
       241.0004        205.0004
  20682501.6734    -323540.68749   -254817.85847  20682500.9934   20682504.5354
       243.0004        207.0004
  22479575.8684   -2685553.77549  -2078545.06546  22479576.0034   22479581.0974
       225.0004        175.0004
  24658006.9734    1446466.95349   1115975.58345  24658006.5074   24658015.4724
       200.0004        137.0004
  20865356.7764    -205076.08349   -163883.33447  20865356.1654   20865359.7504
       240.0004        208.0004
  24690736.1584   -3067780.51049  -2154431.80445  24690734.7904   24690739.6414
       198.0004        134.0004
  23255683.3684    2409694.48849   1863057.20245  23255682.3464   23255689.3514
       213.0004        152.0004
  24262016.0064    2462569.00449   1895420.94145  24262015.9264   24262021.7694
       211.0004        136.0004
  23829193.4804   -2830096.45449  -2191241.51245  23829192.6334   23829199.1684
       208.0004        146.0004
  24335988.9934    2621896.82049   2024735.89845  24335989.9854   24335996.9754
       202.0004        132.0004
  22884466.6524   -4276847.33149  -3316470.42346  22884465.6544   22884471.6284
       218.0004        163.0004
 07  2 17 22 58  0.0000000  0 11G22G21G 3G24G18G19G 7G26G 9G 6G14
  20988887.0944   -1813684.98349  -1407718.19247  20988886.8164   20988889.0494
       241.0004        205.0004
  20683205.9694    -319839.58049   -251933.87947  20683205.3254   20683208.7374
       243.0004        207.0004
  22478028.0414   -2693687.72049  -2084883.20146  22478027.2464   22478033.2934
       226.0004        175.0004
  24660375.2764    1458912.51449   1125673.40645  24660374.6884   24660384.2194
       199.0004        137.0004
  20866125.8514    -201034.57249   -160734.10347  20866125.0124   20866128.8674
       240.0004        208.0004
  24687726.3504   -3083596.98349  -2166756.31845  24687725.7734   24687729.3884
       200.0004        134.0004
  23258979.2254    2427014.38049   1876553.20445  23258978.8944   23258985.3434
       212.0004        152.0004
  24265558.4894    2481184.97949   1909926.88645  24265558.4234   24265563.8464
       210.0004        136.0004
  23827262.4414   -2840244.19649  -2199148.82945  23827261.7304   23827267.7244
       208.0004        147.0004
  24339461.4214    2640144.29449   2038954.69945  24339460.9224   24339469.2144
       201.0004        132.0004
  22881197.5704   -4294026.44049  -3329856.73046  22881196.2074   22881201.5184
       218.0004        163.0004
 07  2 17 22 58  5.0000000  0 11G22G21G 3G24G18G19G 7G26G 9G 6G14
  20988100.7174   -1817817.39249  -1410938.24547  20988100.2814   20988102.6844
       242.0004        205.0004
  20683912.0544    -316129.07749   -249042.57447  20683911.3064   20683914.6234
       244.0004        207.0004
  22476482.7934   -2701807.97649  -2091210.67546  22476482.0254   22476487.4224
       225.0004        175.0004
  24662744.3014    1471361.76549   1135374.10745  24662744.1584   24662752.3694
       201.0004        137.0004
  20866896.0784    -196987.04449   -157580.18547  20866895.4194   20866899.0714
       241.0004        208.0004
  24684717.6504   -3099407.64249  -2179076.29445  24684716.6064   24684720.7104
       201.0004        134.0004
  23262275.7584    2444337.76249   1890051.93245  23262275.9514   23262282.9104
       213.0004        152.0004
  24269102.2144    2499807.39349   1924437.84845  24269102.9604   24269107.6064
       214.0004        136.0004
  23825333.1854   -2850382.49149  -2207048.78445  23825332.6554   23825338.1784
       209.0004        147.0004
  24342933.9364    2658392.54649   2053174.10545  24342933.5684   24342941.5484
       204.0004        132.0004
  22877929.6554   -4311199.33549  -3343238.19746  22877928.4104   22877933.7404
       219.0004        164.0004
 07  2 17 22 58 10.0000000  0 11G22G21G 3G24G18G19G 7G26G 9G 6G14
  20987315.8674   -1821941.75549  -1414152.03347  20987315.4844   20987317.8974
       241.0004        205.0004
  20684620.0064    -312408.65149   -246143.54547  20684619.1764   20684622.8924
       243.0004        207.0004
  22474940.2454   -2709913.99949  -2097527.04846  22474940.0434   22474945.0354
       226.0004        175.0004
  24665114.1064    1483815.19549   1145078.05945  24665114.1674   24665122.8934
       203.0004        137.0004
  20867667.5194    -192932.99549   -154421.18747  20867666.8754   20867670.4344
       240.0004        208.0004
  24681710.1744   -3115211.90049  -2191391.28645  24681708.7894   24681714.3734
       200.0004        135.0004
  23265573.0244    2461665.14349   1903553.77645  23265572.5294   23265579.2494
       215.0004        153.0004
  24272647.2174    2518436.47249   1938954.00645  24272646.8064   24272653.9424
       209.0004        136.0004
  23823405.7944   -2860510.88749  -2214941.03245  23823405.3204   23823411.1404
       210.0004        147.0004
  24346406.7314    2676642.12649   2067394.55745  24346404.8054   24346413.5594
       205.0004        132.0004
  22874663.0244   -4328365.50149  -3356614.42146  22874662.1114   22874667.1244
       219.0004        163.0004
 07  2 17 22 58 15.0000000  0 11G22G21G 3G24G18G19G 7G26G 9G 6G14
  20986532.4714   -1826058.55549  -1417359.92447  20986532.0964   20986534.5434
       242.0004        205.0004
  20685329.7834    -308678.80149   -243237.16547  20685328.7254   20685332.4024
       243.0004        207.0004
  22473400.3404   -2718006.31349  -2103832.74746  22473400.3394   22473405.0634
       226.0004        175.0004
  24667484.6334    1496272.31749   1154784.89545  24667484.8664   24667492.5564
       199.0004        137.0004
  20868440.1294    -188872.93849   -151257.50247  20868439.5004   20868443.0074
       241.0004        208.0004
  24678703.8494   -3131010.30449  -2203701.72045  24678702.5904   24678707.5764
       202.0004        135.0004
  23268870.9874    2478996.04649   1917058.37045  23268870.3964   23268877.2664
       216.0004        153.0004
  24276193.4454    2537071.97749   1953475.18445  24276193.3214   24276198.5994
       213.0004        137.0004
  23821480.2184   -2870629.78749  -2222825.87745  23821480.2324   23821485.5404
       211.0004        147.0004
  24349879.6704    2694892.51549   2081615.63144  24349878.7104   24349888.4164
       202.0004        130.0004
  22871397.6014   -4345525.45749  -3369985.79946  22871397.3414   22871401.8364
       219.0004        164.0004
 07  2 17 22 58 20.0000000  0 11G22G21G 3G24G18G19G 7G26G 9G 6G14
  20985750.5644   -1830167.59949  -1420561.77447  20985750.3274   20985752.7514
       243.0004        205.0004
  20686041.3814    -304939.31649   -240323.28347  20686040.6724   20686044.0734
       244.0004        207.0004
  22471863.1184   -2726084.62049  -2110127.54046  22471863.3634   22471867.9264
       227.0004        175.0004
  24669855.9574    1508733.32049   1164494.76345  24669855.8944   24669862.7654
       203.0004        136.0004
  20869213.9354    -184806.65949   -148088.97647  20869213.0844   20869217.1104
       241.0004        208.0004
  24675698.6914   -3146802.59749  -2216007.39545  24675697.5604   24675702.1004
       201.0004        135.0004
  23272169.6564    2496330.63849   1930565.83145  23272169.4624   23272175.7904
       217.0004        153.0004
  24279740.8854    2555713.91949   1968001.37845  24279740.7354   24279745.8894
       213.0004        137.0004
  23819556.5084   -2880739.00849  -2230703.18145  23819556.2544   23819561.3804
       210.0004        146.0004
  24353352.7814    2713143.82549   2095837.42444  24353351.7154   24353359.9234
       202.0004        129.0004
  22868133.3944   -4362678.95949  -3383352.15046  22868132.1824   22868137.5194
       221.0004        164.0004
 07  2 17 22 58 25.0000000  0 11G22G21G 3G24G18G19G 7G26G 9G 6G14
  20984970.0444   -1834269.21749  -1423757.84147  20984969.7884   20984972.1914
       242.0004        206.0004
  20686754.7414    -301190.49249   -237402.12647  20686754.1184   20686757.3754
       243.0004        207.0004
  22470328.4734   -2734149.30349  -2116411.69646  22470328.2154   22470333.0504
       227.0004        176.0004
  24672227.9604    1521197.88849   1174207.40845  24672227.7024   24672234.2154
       200.0004        136.0004
  20869988.8364    -180734.51349   -144915.87947  20869988.0784   20869991.6764
       240.0004        208.0004
  24672694.6164   -3162589.13449  -2228308.58745  24672692.7404   24672697.5454
       198.0004        134.0004
  23275468.9824    2513668.58649   1944075.90445  23275468.9484   23275475.4344
       216.0004        153.0004
  24283289.5084    2574361.98249   1982532.32945  24283290.0684   24283295.3944
       204.0004        138.0004
  23817634.5794   -2890838.78449  -2238573.11745  23817634.0454   23817639.5084
       211.0004        146.0004
  24356826.0194    2731395.83949   2110059.76544  24356822.9224   24356830.1514
       200.0004        128.0004
  22864870.3464   -4379826.28949  -3396713.71146  22864869.7504   22864874.6684
       219.0004        164.0004
 07  2 17 22 58 30.0000000  0 11G22G21G 3G24G18G19G 7G26G 9G 6G14
  20984191.1104   -1838362.62749  -1426947.50947  20984190.6574   20984193.0224
       242.0004        206.0004
  20687470.0464    -297431.54049   -234473.07547  20687469.1834   20687472.8234
       242.0004        207.0004
  22468796.5934   -2742199.51949  -2122684.59146  22468795.9764   22468801.3524
       226.0004        176.0004
  24674600.7804    1533666.84349   1183923.46645  24674600.6794   24674607.5144
       200.0004        136.0004
  20870765.0024    -176655.70049   -141737.57847  20870764.3314   20870768.0484
       240.0004        208.0004
  24669691.7734   -3178369.07449  -2240604.63845  24669690.6194   24669695.6614
       202.0004        135.0004
  23278769.0864    2531010.67049   1957589.21045  23278768.7044   23278775.6094
       216.0004        154.0004
  24286839.4574    2593017.03849   1997068.72245  24286838.6514   24286846.5094
       206.0004        138.0004
  23815714.6304   -2900928.36749  -2246435.12545  23815713.8144   23815720.1594
       212.0004        147.0004
  24360299.5214    2749649.32049   2124283.25744  24360298.0574   24360304.7564
       201.0004        127.0004
  22861608.6324   -4396966.65549  -3410069.82446  22861607.6784   22861612.4354
       220.0004        164.0004
 07  2 17 22 58 35.0000000  0 11G22G21G 3G24G18G19G 7G26G 9G 6G14
  20983413.5654   -1842448.68249  -1430131.43647  20983413.1754   20983415.5074
       243.0004        206.0004
  20688187.1164    -293663.37949   -231536.84347  20688186.2574   20688189.9754
       245.0004        207.0004
  22467267.2764   -2750236.23449  -2128946.96246  22467267.0654   22467272.5134
       228.0004        176.0004
  24676974.2264    1546139.27649   1193642.24145  24676973.7774   24676980.8184
       198.0004        136.0004
  20871542.2694    -172571.09449   -138554.77147  20871541.4234   20871545.2144
       242.0004        208.0004
  24666690.0184   -3194143.36749  -2252896.27945  24666689.0664   24666694.2034
       203.0004        136.0004
  23282069.8064    2548355.98249   1971105.03145  23282069.3894   23282075.3244
       217.0004        154.0004
  24290390.5284    2611678.13449   2011609.82345  24290390.1434   24290397.1214
       211.0004        138.0004
  23813796.3994   -2911008.60849  -2254289.85545  23813795.3234   23813803.0604
       210.0004        148.0004
  24363773.1464    2767903.28249   2138507.11444  24363773.0114   24363779.4254
       203.0004        126.0004
  22858348.0734   -4414100.98349  -3423421.24146  22858347.4954   22858352.0144
       221.0004        164.0004
 07  2 17 22 58 40.0000000  0 11G22G21G 3G24G18G19G 7G26G 9G 6G14
  20982637.4044   -1846527.49549  -1433309.73547  20982637.0734   20982639.4974
       242.0004        206.0004
  20688905.8874    -289886.06549   -228593.48447  20688905.0094   20688908.6274
       244.0004        207.0004
  22465740.5194   -2758259.48249  -2135198.84246  22465739.7424   22465744.5794
       226.0004        176.0004
  24679348.2944    1558615.09649   1203363.64045  24679347.5034   24679355.2584
       199.0004        135.0004
  20872320.6274    -168480.81849   -135367.54247  20872319.6544   20872323.5654
       241.0004        208.0004
  24663689.3684   -3209911.97449  -2265183.49045  24663688.3844   24663693.8814
       195.0004        136.0004
  23285371.1324    2565704.44449   1984623.30645  23285371.0634   23285378.0584
       215.0004        154.0004
  24293942.7394    2630345.13249   2026155.50745  24293942.3544   24293950.2584
       210.0004        139.0004
  23811879.9354   -2921079.62149  -2262137.38445  23811878.9594   23811886.0454
       210.0004        148.0004
  24367246.8284    2786157.62349   2152731.27544  24367247.5464   24367254.4734
       200.0004        125.0004
  22855088.6634   -4431229.31649  -3436767.98746  22855087.7624   22855092.7384
       222.0004        164.0004
 07  2 17 22 58 45.0000000  0 11G22G21G 3G24G18G19G 7G26G 9G 6G14
  20981862.8654   -1850597.67849  -1436481.30447  20981862.5894   20981864.9144
       241.0004        206.0004
  20689626.7094    -286098.22349   -225641.92147  20689625.6804   20689629.3414
       243.0004        207.0004
  22464216.5874   -2766267.82549  -2141439.10746  22464215.9874   22464220.9844
       226.0004        176.0004
  24681723.2144    1571095.66249   1213088.74545  24681721.3204   24681730.7144
       201.0004        136.0004
  20873100.3394    -164383.45449   -132174.79247  20873099.5944   20873103.3194
       240.0004        208.0004
  24660690.0164   -3225673.60649  -2277465.26545  24660688.2114   24660694.2404
       201.0004        137.0004
  23288673.3314    2583057.42549   1998145.09045  23288672.5274   23288680.1394
       216.0004        154.0004
  24297496.3194    2649019.41349   2040706.87245  24297497.1734   24297502.3304
       210.0004        138.0004
  23809965.5144   -2931139.98149  -2269976.61045  23809964.3354   23809971.1324
       211.0004        149.0004
  24370720.8954    2804413.85349   2166956.90644  24370720.9414   24370728.7654
       202.0004        124.0004
  22851830.6744   -4448350.21349  -3450108.93646  22851830.4574   22851835.1244
       221.0004        164.0004
 07  2 17 22 58 50.0000000  0 11G22G21G 3G24G18G19G 7G26G 9G 6G14
  20981089.6764   -1854660.79949  -1439647.36747  20981089.3044   20981091.6574
       242.0004        205.0004
  20690349.2094    -282301.38649   -222683.34347  20690348.0904   20690352.0424
       243.0004        207.0004
  22462695.1754   -2774262.90749  -2147669.03146  22462694.4204   22462700.1514
       227.0004        176.0004
  24684098.7754    1583579.47749   1222816.38545  24684096.8154   24684105.3264
       200.0004        136.0004
  20873881.0774    -160280.59149   -128977.75947  20873880.2534   20873884.0834
       240.0004        208.0004
  24657691.7324   -3241429.74049  -2289742.75745  24657689.5674   24657695.2994
       202.0004        137.0004
  23291976.0584    2600413.38349   2011669.19945  23291975.1014   23291982.5504
       214.0004        154.0004
  24301051.0014    2667699.43449   2055262.72145  24301052.3824   24301056.1864
       212.0004        139.0004
  23808052.8214   -2941191.16649  -2277808.68645  23808051.0894   23808058.4604
       209.0004        149.0004
  24374195.0154    2822670.26649   2181182.67644  24374194.7864   24374201.7404
       202.0004        124.0004
  22848573.8074   -4465465.24949  -3463445.32046  22848573.2124   22848578.1494
       220.0004        165.0004
 07  2 17 22 58 55.0000000  0 11G22G21G 3G24G18G19G 7G26G 9G 6G14
  20980317.9494   -1858716.31249  -1442807.50347  20980317.4884   20980319.9194
       242.0004        206.0004
  20691073.5234    -278494.97149   -219717.30947  20691072.4794   20691076.2934
       243.0004        207.0004
  22461176.4024   -2782244.14849  -2153888.18446  22461175.1624   22461180.8954
       227.0004        176.0004
  24686475.0724    1596067.04149   1232546.94045  24686473.2404   24686482.2124
       203.0004        136.0004
  20874662.9724    -156171.67049   -125776.00247  20874662.1424   20874665.8494
       241.0004        208.0004
  24654694.5874   -3257179.82449  -2302015.54145  24654692.7814   24654697.4944
       201.0004        137.0004
  23295279.4724    2617772.82149   2025196.01545  23295278.0354   23295285.7334
       213.0004        154.0004
  24304606.9094    2686385.72549   2069823.45245  24304607.4404   24304612.7284
       210.0004        139.0004
  23806141.9474   -2951232.75649  -2285633.28945  23806140.1224   23806148.0864
       208.0004        149.0004
  24377669.2634    2840927.45649   2195409.04844  24377670.2204   24377676.0864
       203.0004        124.0004
  22845318.1604   -4482573.89449  -3476776.72246  22845316.9864   22845322.5704
       222.0004        165.0004
 07  2 17 22 59  0.0000000  0 11G22G21G 3G24G18G19G 7G26G 9G 6G14
  20979547.7414   -1862763.73149  -1445961.33747  20979547.5314   20979549.7474
       241.0004        206.0004
  20691799.7694    -274678.52649   -216743.45947  20691799.1164   20691802.3194
       243.0004        207.0004
  22459660.3574   -2790211.04349  -2160096.15546  22459659.6814   22459665.3474
       226.0004        176.0004
  24688852.1844    1608558.90849   1242280.85345  24688850.8944   24688859.5404
       202.0004        137.0004
  20875446.1284    -152056.15449   -122569.11247  20875445.6504   20875449.0994
       240.0004        208.0004
  24651698.6504   -3272923.39649  -2314283.25445  24651696.8354   24651701.3864
       201.0004        138.0004
  23298583.6094    2635136.25149   2038725.94745  23298583.2464   23298590.9364
       212.0004        153.0004
  24308164.0704    2705078.72349   2084389.41845  24308163.9984   24308169.7194
       210.0004        138.0004
  23804233.0134   -2961264.09949  -2293449.90545  23804232.1534   23804239.2684
       209.0004        150.0004
  24381143.8004    2859185.92049   2209636.40844  24381144.5154   24381149.4704
       205.0004        125.0004
  22842063.8144   -4499675.59549  -3490102.71046  22842062.9494   22842068.0164
       219.0004        165.0004
 07  2 17 22 59  5.0000000  0 11G22G21G 3G24G18G19G 7G26G 9G 6G14
  20978778.9514   -1866803.74449  -1449109.39647  20978778.6544   20978780.9414
       241.0004        206.0004
  20692527.7824    -270852.74649   -213762.33447  20692526.8324   20692530.6364
       243.0004        206.0004
  22458146.8824   -2798164.28249  -2166293.48046  22458146.1494   22458151.5344
       226.0004        176.0004
  24691229.9804    1621054.30249   1252017.51245  24691229.6574   24691237.2234
       201.0004        136.0004
  20876230.4054    -147934.82949   -119357.68847  20876229.6374   20876233.2734
       240.0004        208.0004
  24648703.8154   -3288661.11049  -2326546.40545  24648702.4184   24648706.3794
       200.0004        138.0004
  23301888.3704    2652502.92449   2052258.42045  23301887.4394   23301894.9824
       211.0004        153.0004
  24311722.4044    2723777.76449   2098960.10545  24311721.4554   24311727.6644
       208.0004        137.0004
  23802325.8784   -2971285.96349  -2301259.14145  23802325.0834   23802331.8334
       206.0004        150.0004
  24384618.3984    2877444.97549   2223864.22744  24384618.1804   24384625.1984
       204.0004        126.0004
  22838810.6614   -4516771.05749  -3503423.84446  22838809.9314   22838814.9354
       221.0004        165.0004
 07  2 17 22 59 10.0000000  0 11G22G21G 3G24G18G19G 7G26G 9G 6G14
  20978011.6254   -1870836.07449  -1452251.46747  20978011.3954   20978013.6754
       242.0004        206.0004
  20693257.6154    -267017.37449   -210773.73147  20693256.9764   20693260.4694
       245.0004        206.0004
  22456636.0634   -2806103.60349  -2172479.96146  22456635.6754   22456640.8104
       227.0004        176.0004
  24693608.4874    1633553.56049   1261757.18845  24693608.7804   24693615.5054
       201.0004        136.0004
  20877015.8324    -143807.41449   -116141.51947  20877015.3034   20877018.7724
       242.0004        208.0004
  24645710.1364   -3304392.65049  -2338804.74445  24645709.5904   24645713.2914
       201.0004        139.0004
  23305193.8074    2669873.10549   2065793.60845  23305192.3214   23305200.2554
       213.0004        152.0004
  24315281.9324    2742483.08349   2113535.68645  24315281.4914   24315287.8854
       209.0004        137.0004
  23800420.5574   -2981298.03149  -2309060.74445  23800420.5324   23800426.9904
       208.0004        149.0004
  24388093.1644    2895704.83349   2238092.67044  24388090.9464   24388100.7304
       204.0004        127.0004
  22835558.7474   -4533859.98149  -3516739.87846  22835557.8124   22835562.8614
       222.0004        165.0004
 07  2 17 22 59 15.0000000  0 11G22G21G 3G24G18G19G 7G26G 9G 6G14
  20977245.7464   -1874860.77849  -1455387.59547  20977245.2154   20977247.5694
       243.0004        206.0004
  20693989.2784    -263172.42149   -207777.66247  20693988.3504   20693991.8694
       245.0004        206.0004
  22455127.9064   -2814029.00849  -2178655.59646  22455128.1084   22455133.1984
       229.0004        176.0004
  24695987.7164    1646056.61749   1271499.83145  24695987.9034   24695995.6854
       200.0004        135.0004
  20877802.4264    -139673.92749   -112920.62047  20877801.6594   20877805.4234
       242.0004        208.0004
  24642717.6144   -3320118.08849  -2351058.32645  24642717.0624   24642721.5114
       204.0004        140.0004
  23308499.9204    2687246.75449   2079331.49045  23308499.0024   23308505.9104
       213.0004        152.0004
  24318842.6564    2761194.64949   2128116.11045  24318842.3364   24318849.0664
       209.0004        137.0004
  23798517.1244   -2991300.32549  -2316854.73245  23798516.4304   23798523.4794
       209.0004        149.0004
  24391568.0744    2913965.34649   2252321.62844  24391566.2904   24391576.8844
       205.0004        127.0004
  22832308.0604   -4550942.43249  -3530050.86446  22832307.2234   22832312.6074
       221.0004        165.0004
 07  2 17 22 59 20.0000000  0 11G22G21G 3G24G18G19G 7G26G 9G 6G14
  20976481.3484   -1878877.55349  -1458517.55247  20976481.0144   20976483.3124
       241.0004        206.0004
  20694722.8714    -259317.55249   -204773.87247  20694722.3624   20694725.5844
       243.0004        206.0004
  22453622.4884   -2821940.08649  -2184820.07646  22453622.1014   22453626.8224
       226.0004        176.0004
  24698367.7374    1658563.77749   1281245.66845  24698367.2364   24698375.1794
       198.0004        135.0004
  20878590.2104    -135534.05449   -109694.75047  20878589.6334   20878593.0964
       240.0004        208.0004
  24639726.3174   -3335837.10349  -2363306.90045  24639725.5534   24639730.4994
       202.0004        141.0004
  23311806.7154    2704624.19049   2092872.33745  23311805.9834   23311812.0884
       211.0004        151.0004
  24322404.5794    2779912.67749   2142701.57345  24322405.0094   24322411.4014
       209.0004        137.0004
  23796615.6024   -3001292.53949  -2324640.85445  23796614.9064   23796621.2234
       207.0004        148.0004
  24395043.1794    2932226.96749   2266551.44744  24395041.9944   24395051.4684
       205.0004        127.0004
  22829058.6824   -4568018.07049  -3543356.55646  22829058.2524   22829063.3564
       219.0004        165.0004
 07  2 17 22 59 25.0000000  0 11G22G21G 3G24G18G19G 7G26G 9G 6G14
  20975718.4514   -1882886.70849  -1461641.56547  20975718.1034   20975720.3854
       242.0004        206.0004
  20695458.2554    -255453.10449   -201762.61547  20695457.5734   20695461.0184
       243.0004        206.0004
  22452119.6904   -2829837.31349  -2190973.76046  22452119.4214   22452124.2974
       225.0004        176.0004
  24700748.5014    1671074.68249   1290994.42145  24700746.9594   24700755.7244
       198.0004        135.0004
  20879379.1344    -131388.18049   -106464.19847  20879378.3274   20879382.1984
       240.0004        208.0004
  24636736.1884   -3351549.99549  -2375550.70645  24636735.8734   24636740.7354
       201.0004        142.0004
  23315114.1534    2722005.02149   2106415.81445  23315114.2524   23315121.1424
       212.0004        151.0004
  24325967.7024    2798636.95649   2157291.90145  24325968.8524   24325973.7854
       209.0004        136.0004
  23794715.9604   -3011274.97549  -2332419.35245  23794715.0024   23794721.1104
       206.0004        148.0004
  24398518.4234    2950489.32949   2280781.84844  24398517.8484   24398526.9294
       203.0004        129.0004
  22825810.5384   -4585087.23149  -3556657.19346  22825809.5814   22825814.6664
       220.0004        165.0004
 07  2 17 22 59 30.0000000  0 11G22G21G 3G24G18G19G 7G26G 9G 6G14
  20974956.9594   -1886888.42649  -1464759.78647  20974956.7504   20974958.9624
       242.0004        206.0004
  20696195.4204    -251579.28349   -198744.05347  20696194.8824   20696198.1994
       243.0004        206.0004
  22450619.4924   -2837720.77249  -2197116.71146  22450618.6004   22450623.9824
       225.0004        176.0004
  24703129.9564    1683589.18749   1300745.98445  24703128.0604   24703137.4284
       196.0004        135.0004
  20880169.1994    -127236.45049   -103229.08347  20880168.3104   20880172.2614
       240.0004        208.0004
  24633747.1744   -3367256.99249  -2387789.91845  24633746.7624   24633751.2814
       200.0004        142.0004
  23318422.2324    2739389.09249   2119961.83645  23318420.7834   23318428.2004
       211.0004        151.0004
  24329531.9574    2817367.18449   2171886.87045  24329531.9754   24329537.5334
       211.0004        137.0004
  23792818.1874   -3021247.79749  -2340190.36545  23792817.2854   23792823.8374
       204.0004        149.0004
  24401993.7724    2968752.20449   2295012.64644  24401994.7814   24402001.7034
       204.0004        129.0004
  22822563.5524   -4602150.06449  -3569952.88846  22822562.8294   22822567.3904
       220.0004        165.0004
 07  2 17 22 59 35.0000000  0 11G22G21G 3G24G18G19G 7G26G 9G 6G14
  20974196.9704   -1890882.18949  -1467871.80547  20974196.5364   20974198.8504
       241.0004        206.0004
  20696934.4994    -247695.50449   -195717.73147  20696933.8414   20696937.4164
       244.0004        206.0004
  22449122.0404   -2845589.92649  -2203248.51346  22449120.8674   22449126.4944
       226.0004        176.0004
  24705512.1764    1696107.85049   1310500.77045  24705511.0814   24705519.7884
       200.0004        134.0004
  20880960.4494    -123078.31749    -99988.97647  20880959.6724   20880963.4114
       241.0004        208.0004
  24630759.4344   -3382957.42149  -2400024.00545  24630759.0004   24630763.8204
       199.0004        142.0004
  23321731.0384    2756777.01349   2133510.86245  23321730.4324   23321737.0654
       212.0004        150.0004
  24333097.4664    2836103.93149   2186486.93045  24333098.9364   24333102.8344
       211.0004        137.0004
  23790922.3254   -3031210.37849  -2347953.40045  23790921.0384   23790928.3024
       209.0004        149.0004
  24405469.3094    2987016.14349   2309244.27744  24405469.4354   24405476.3444
       204.0004        130.0004
  22819317.8854   -4619205.96749  -3583243.19046  22819317.0954   22819322.4914
       220.0004        165.0004
 07  2 17 22 59 40.0000000  0 11G22G21G 3G24G18G19G 7G26G 9G 6G14
  20973438.4464   -1894868.30749  -1470977.87047  20973438.1814   20973440.3234
       241.0004        206.0004
  20697675.3934    -243802.12449   -192683.92947  20697674.7184   20697678.1684
       243.0004        206.0004
  22447627.2384   -2853445.15149  -2209369.47346  22447626.4924   22447632.0424
       226.0004        176.0004
  24707895.1174    1708630.28149   1320258.49345  24707894.7604   24707903.6354
       198.0004        134.0004
  20881752.8634    -118914.15249    -96744.17347  20881752.0544   20881755.6824
       240.0004        208.0004
  24627772.8684   -3398651.71049  -2412253.31345  24627772.0784   24627777.0634
       199.0004        142.0004
  23325040.4884    2774168.27449   2147062.47945  23325040.3214   23325046.3624
       211.0004        150.0004
  24336664.1584    2854846.91649   2201091.85345  24336664.9074   24336669.7164
       211.0004        136.0004
  23789028.3574   -3041163.12249  -2355708.76945  23789027.3694   23789034.8224
       212.0004        150.0004
  24408944.9724    3005280.79549   2323476.47344  24408944.9594   24408951.0274
       204.0004        131.0004
  22816073.4634   -4636255.33349  -3596528.40346  22816072.5624   22816078.0824
       218.0004        165.0004
 07  2 17 22 59 45.0000000  0 11G22G21G 3G24G18G19G 7G26G 9G 6G14
  20972681.3364   -1898846.83249  -1474078.01347  20972680.8154   20972683.2934
       241.0004        206.0004
  20698418.0874    -239899.19249   -189642.68547  20698417.2444   20698421.0074
       243.0004        206.0004
  22446135.0874   -2861286.44949  -2215479.56146  22446134.3954   22446140.6024
       226.0004        176.0004
  24710278.7934    1721156.50649   1330019.18445  24710278.5604   24710286.1514
       201.0004        134.0004
  20882546.4314    -114744.00649    -93494.70847  20882545.6054   20882549.4484
       241.0004        208.0004
  24624787.4424   -3414339.84349  -2424477.82345  24624786.1754   24624791.5424
       205.0004        143.0004
  23328350.5994    2791562.89549   2160616.71045  23328350.2694   23328357.9294
       211.0004        150.0004
  24340232.0084    2873595.93349   2215701.47145  24340232.5284   24340237.9404
       213.0004        136.0004
  23787136.2734   -3051106.05349  -2363456.49745  23787135.7094   23787142.8834
       212.0004        151.0004
  24412420.7664    3023546.12749   2337709.17844  24412420.7834   24412428.5584
       205.0004        131.0004
  22812830.2834   -4653298.14849  -3609808.50146  22812829.6174   22812834.3084
       220.0004        165.0004
 07  2 17 22 59 50.0000000  0 11G22G21G 3G24G18G19G 7G26G 9G 6G14
  20971925.6604   -1902817.96149  -1477172.40147  20971925.2184   20971927.8474
       242.0004        206.0004
  20699162.5934    -235986.79249   -186594.06347  20699161.7494   20699165.2684
       243.0004        206.0004
  22444645.5664   -2869113.95949  -2221578.92646  22444645.2354   22444650.6774
       227.0004        176.0004
  24712663.1714    1733686.37749   1339782.70345  24712663.0194   24712669.9824
       199.0004        134.0004
  20883341.0864    -110568.05449    -90240.72447  20883340.5944   20883344.0974
       241.0004        208.0004
  24621803.2184   -3430021.95449  -2436697.63745  24621801.3224   24621806.8854
       201.0004        144.0004
  23331661.3074    2808960.72849   2174173.44945  23331660.4284   23331668.4824
       211.0004        150.0004
  24343800.9854    2892350.92749   2230315.75945  24343801.9474   24343805.9904
       210.0004        136.0004
  23785246.0584   -3061039.30949  -2371196.68945  23785245.8474   23785252.6064
       213.0004        151.0004
  24415896.6804    3041811.97049   2351942.28645  24415896.2474   24415905.5124
       205.0004        132.0004
  22809588.3344   -4670334.56749  -3623083.63146  22809586.7324   22809592.3564
       220.0004        164.0004
 07  2 17 22 59 55.0000000  0 11G22G21G 3G24G18G19G 7G26G 9G 6G14
  20971171.5234   -1906780.89049  -1480260.39247  20971171.1204   20971173.4704
       241.0004        205.0004
  20699909.0264    -232064.20249   -183537.50047  20699908.2624   20699912.1864
       243.0004        206.0004
  22443158.8334   -2876926.91549  -2227666.93946  22443157.7554   22443163.3674
       225.0004        176.0004
  24715048.3794    1746220.59249   1349549.60945  24715048.4684   24715055.8694
       199.0004        133.0004
  20884137.0094    -106385.51949    -86981.60347  20884136.2734   20884140.0384
       240.0004        208.0004
  24618820.2724   -3445697.24849  -2448912.14345  24618818.5674   24618824.4094
       204.0004        145.0004
  23334972.7954    2826362.52949   2187733.28345  23334972.5054   23334980.1324
       212.0004        149.0004
  24347371.2474    2911112.63649   2244935.28845  24347372.5354   24347376.7374
       210.0004        135.0004
  23783357.8374   -3070962.04849  -2378928.68145  23783357.3944   23783363.9924
       210.0004        152.0004
  24419372.7814    3060079.02349   2366176.33945  24419373.6294   24419379.6204
       206.0004        132.0004
  22806347.7594   -4687363.83549  -3636353.18646  22806346.7854   22806352.6144
       221.0004        164.0004
 07  2 17 23  0  0.0000000  0 11G22G21G 3G24G18G19G 7G26G 9G 6G14
  20970418.7694   -1910736.67749  -1483342.82247  20970418.2824   20970420.8174
       242.0004        206.0004
  20700657.1804    -228132.50249   -180473.84147  20700656.3944   20700660.1304
       243.0004        206.0004
  22441674.6304   -2884726.39549  -2233744.45146  22441673.9024   22441679.4994
       226.0004        176.0004
  24717434.2014    1758758.14349   1359319.10945  24717435.0264   24717442.1144
       198.0004        133.0004
  20884933.9944    -102197.44349    -83718.16847  20884933.1824   20884936.8394
       241.0004        208.0004
  24615838.3934   -3461366.91249  -2461122.26645  24615837.1614   24615842.2374
       205.0004        145.0004
  23338284.8224    2843767.18649   2201295.34145  23338283.8624   23338291.9404
       214.0004        150.0004
  24350942.5564    2929879.91349   2259559.14745  24350942.7934   24350947.6554
       212.0004        135.0004
  23781471.3914   -3080875.37649  -2386653.34445  23781471.6704   23781476.7684
       213.0004        152.0004
  24422848.9434    3078346.23049   2380410.50945  24422849.3934   24422856.1044
       206.0004        132.0004
  22803108.3524   -4704386.96449  -3649617.95146  22803107.3174   22803112.5394
       221.0004        165.0004
 07  2 17 23  0  5.0000000  0 11G22G21G 3G24G18G19G 7G26G 9G 6G14
  20969667.5124   -1914684.50149  -1486419.04547  20969667.2714   20969669.4714
       242.0004        205.0004
  20701407.2784    -224190.77849   -177402.36747  20701406.5344   20701410.2254
       243.0004        206.0004
  22440193.1674   -2892511.38049  -2239810.66846  22440192.2684   22440198.2304
       226.0004        176.0004
  24719820.8274    1771299.85249   1369091.85445  24719820.5344   24719828.9734
       200.0004        132.0004
  20885732.1834     -98002.97649    -80449.75347  20885731.3194   20885735.2034
       240.0004        208.0004
  24612857.8124   -3477029.94749  -2473327.22645  24612856.8344   24612861.4824
       202.0004        146.0004
  23341597.5374    2861175.55449   2214860.29145  23341597.5884   23341603.5364
       213.0004        150.0004
  24354515.0894    2948653.63949   2274188.01645  24354515.3304   24354520.6074
       214.0004        136.0004
  23779586.8994   -3090778.44249  -2394370.01845  23779586.6654   23779592.1964
       212.0004        152.0004
  24426325.3024    3096614.52849   2394645.53645  24426326.2964   24426333.1764
       203.0004        132.0004
  22799870.2914   -4721403.10449  -3662877.26846  22799868.7194   22799875.0844
       220.0004        165.0004
 07  2 17 23  0 10.0000000  0 11G22G21G 3G24G18G19G 7G26G 9G 6G14
  20968917.6674   -1918624.95249  -1489489.52047  20968917.0414   20968919.6844
       241.0004        205.0004
  20702159.1534    -220239.64349   -174323.55947  20702158.5044   20702161.9494
       243.0004        206.0004
  22438714.3694   -2900282.52449  -2245866.10046  22438713.8724   22438719.5444
       227.0004        176.0004
  24722208.1414    1783845.13149   1378867.38445  24722207.5724   24722215.4304
       199.0004        132.0004
  20886531.4824     -93802.70049    -77176.81147  20886530.6264   20886534.3264
       240.0004        208.0004
  24609878.3914   -3492686.89949  -2485527.44045  24609876.6274   24609881.5284
       201.0004        145.0004
  23344910.8824    2878587.04549   2228427.67245  23344910.0554   23344916.7434
       214.0004        150.0004
  24358088.7694    2967433.19749   2288821.44045  24358088.4064   24358095.3704
       211.0004        137.0004
  23777704.2804   -3100671.77149  -2402079.10245  23777704.0584   23777709.8954
       214.0004        152.0004
  24429801.6594    3114883.16949   2408880.82545  24429801.2214   24429808.8834
       204.0004        132.0004
  22796633.4504   -4738412.83949  -3676131.59246  22796633.0294   22796637.3034
       220.0004        165.0004
 07  2 17 23  0 15.0000000  0 11G22G21G 3G24G18G19G 7G26G 9G 6G14
  20968169.2294   -1922558.03949  -1492554.26547  20968168.7894   20968171.3834
       241.0004        206.0004
  20702912.8094    -216279.06249   -171237.39747  20702912.1524   20702915.7744
       243.0004        206.0004
  22437238.1794   -2908039.95549  -2251910.85446  22437237.9934   22437242.6454
       226.0004        176.0004
  24724596.1464    1796394.01949   1388645.73245  24724595.9284   24724603.0274
       202.0004        133.0004
  20887331.8484     -89596.64349    -73899.36747  20887331.0124   20887334.6184
       240.0004        208.0004
  24606900.1214   -3508337.81149  -2497722.94545  24606899.0284   24606903.8124
       204.0004        146.0004
  23348224.8144    2896001.62149   2241997.46745  23348223.6614   23348231.7204
       214.0004        151.0004
  24361663.5294    2986218.59849   2303459.41345  24361663.0124   24361669.5754
       209.0004        137.0004
  23775823.5124   -3110555.36849  -2409780.59745  23775823.3104   23775829.6964
       214.0004        153.0004
  24433278.1054    3133152.25149   2423116.46445  24433278.0044   24433285.1644
       204.0004        133.0004
  22793397.8174   -4755416.15849  -3689380.92246  22793397.0404   22793402.0204
       220.0004        165.0004
 07  2 17 23  0 20.0000000  0 11G22G21G 3G24G18G19G 7G26G 9G 6G14
  20967422.3294   -1926482.93149  -1495612.62047  20967421.8864   20967424.2704
       241.0004        205.0004
  20703668.4154    -212308.26349   -168143.26847  20703667.8694   20703671.5184
       242.0004        206.0004
  22435764.7484   -2915782.85449  -2257944.27946  22435764.3344   22435770.1724
       226.0004        177.0004
  24726984.9584    1808947.26849   1398427.48045  24726985.3644   24726990.7634
       202.0004        134.0004
  20888133.4784     -85384.03649    -70616.81547  20888132.5974   20888136.3604
       240.0004        208.0004
  24603923.1754   -3523981.82549  -2509913.07545  24603923.0194   24603926.7944
       205.0004        146.0004
  23351539.4854    2913420.17649   2255570.35945  23351538.1674   23351546.1034
       213.0004        151.0004
  24365239.5584    3005010.71449   2318102.63145  24365238.9964   24365245.2954
       212.0004        137.0004
  23773944.7704   -3120428.39649  -2417473.85845  23773944.7514   23773950.7104
       214.0004        153.0004
  24436754.7844    3151422.56249   2437353.05145  24436754.8774   24436761.5954
       205.0004        134.0004
  22790163.5714   -4772412.22949  -3702624.60946  22790162.6994   22790168.0554
       221.0004        165.0004
 07  2 17 23  0 25.0000000  0 11G22G21G 3G24G18G19G 7G26G 9G 6G14
  20966676.8724   -1930400.39949  -1498665.19247  20966676.6324   20966678.7534
       241.0004        206.0004
  20704425.8504    -208327.99649   -165041.76047  20704425.1454   20704428.6944
       243.0004        206.0004
  22434293.9714   -2923511.89449  -2263966.90246  22434293.7624   22434299.3904
       226.0004        177.0004
  24729374.4724    1821504.15949   1408212.07245  24729374.1414   24729380.0854
       202.0004        134.0004
  20888936.2214     -81165.56949    -67329.70047  20888935.4714   20888939.1624
       239.0004        208.0004
  24600947.4194   -3539619.70549  -2522098.43345  24600947.0994   24600951.2174
       201.0004        147.0004
  23354854.7424    2930841.84949   2269145.67445  23354854.0514   23354861.3804
       214.0004        151.0004
  24368816.6964    3023808.66749   2332750.39045  24368816.7494   24368822.2334
       211.0004        138.0004
  23772067.8674   -3130291.59749  -2425159.46545  23772067.6004   23772073.4364
       214.0004        153.0004
  24440231.5634    3169693.30449   2451589.97845  24440231.1504   24440238.0314
       206.0004        134.0004
  22786930.5594   -4789401.76449  -3715863.19346  22786929.9774   22786935.2084
       219.0004        165.0004
 07  2 17 23  0 30.0000000  0 11G22G21G 3G24G18G19G 7G26G 9G 6G14
  20965932.7754   -1934310.71849  -1501712.18847  20965932.3674   20965934.6514
       242.0004        206.0004
  20705185.0234    -204338.48549   -161933.04947  20705183.9194   20705188.1134
       244.0004        206.0004
  22432825.7654   -2931227.28849  -2269978.89246  22432825.4384   22432830.5564
       227.0004        177.0004
  24731764.6284    1834064.41649   1417999.28245  24731764.5064   24731771.0794
       202.0004        135.0004
  20889740.0234     -76941.53949    -64038.24547  20889739.1554   20889743.1854
       241.0004        208.0004
  24597972.7564   -3555251.70449  -2534279.20445  24597971.9884   24597977.0254
       203.0004        147.0004
  23358170.5314    2948266.35949   2282723.20145  23358169.2164   23358177.6964
       213.0004        152.0004
  24372394.8904    3042612.17849   2347402.47945  24372394.2634   24372400.8534
       208.0004        138.0004
  23770192.7804   -3140145.22549  -2432837.60145  23770192.1584   23770197.7534
       212.0004        154.0004
  24443708.3674    3187964.21249   2465827.03645  24443707.3934   24443714.8604
       206.0004        135.0004
  22783698.7584   -4806385.06949  -3729096.92446  22783697.7644   22783703.6134
       220.0004        165.0004
 07  2 17 23  0 35.0000000  0 11G22G21G 3G24G18G19G 7G26G 9G 6G14
  20965190.2324   -1938212.81649  -1504752.78047  20965189.9614   20965192.1454
       242.0004        206.0004
  20705946.1894    -200338.67149   -158816.31347  20705945.3024   20705949.1454
       242.0004        206.0004
  22431360.3834   -2938927.96949  -2275979.41746  22431360.2324   22431365.6364
       226.0004        177.0004
  24734155.6144    1846629.11749   1427789.95445  24734154.7514   24734162.7014
       202.0004        135.0004
  20890545.0794     -72710.90849    -60741.64747  20890544.3074   20890547.9564
       240.0004        208.0004
  24594999.4064   -3570876.75349  -2546454.54945  24594998.4074   24595003.6384
       201.0004        148.0004
  23361487.0724    2965694.78549   2296303.77545  23361486.0304   23361493.3714
       212.0004        152.0004
  24375974.3394    3061422.35549   2362059.74645  24375973.6654   24375980.3614
       203.0004        137.0004
  23768319.6924   -3149988.20049  -2440507.44445  23768318.9654   23768325.0124
       212.0004        154.0004
  24447185.4204    3206236.33549   2480065.03845  24447184.9864   24447192.1414
       205.0004        136.0004
  22780468.3174   -4823361.00749  -3742324.91946  22780467.3814   22780472.6044
       220.0004        165.0004
 07  2 17 23  0 40.0000000  0 11G22G21G 3G24G18G19G 7G26G 9G 6G14
  20964449.1174   -1942107.42849  -1507787.54047  20964448.9944   20964450.8954
       242.0004        206.0004
  20706709.1354    -196329.32749   -155692.15247  20706708.3344   20706712.1184
       243.0004        206.0004
  22429897.6304   -2946614.70049  -2281969.08046  22429897.4554   22429902.4484
       227.0004        177.0004
  24736547.2804    1859197.49249   1437583.49245  24736545.8364   24736555.0914
       203.0004        135.0004
  20891351.2774     -68474.46049    -57440.52447  20891350.6894   20891354.1654
       240.0004        208.0004
  24592027.2304   -3586495.58949  -2558625.04945  24592026.0254   24592030.8844
       205.0004        148.0004
  23364804.1744    2983126.38049   2309886.81945  23364803.4434   23364811.0374
       212.0004        152.0004
  24379554.8734    3080238.39849   2376721.59445  24379554.5664   24379560.4394
       208.0004        136.0004
  23766448.4954   -3159821.24449  -2448169.54345  23766448.2304   23766454.5224
       213.0004        154.0004
  24450662.5884    3224508.94649   2494303.42545  24450662.8484   24450669.7804
       208.0004        137.0004
  22777239.1484   -4840330.38249  -3755547.80146  22777237.9564   22777243.2744
       219.0004        165.0004
 07  2 17 23  0 45.0000000  0 10G22G21G 3G24G18G19G 7G 9G 6G14
  20963709.4434   -1945994.49949  -1510816.42947  20963708.9264   20963711.2344
       242.0004        206.0004
  20707473.9344    -192310.33349   -152560.47047  20707473.0754   20707476.8374
       243.0004        206.0004
  22428437.5754   -2954287.45049  -2287947.85546  22428436.8064   22428442.8204
       227.0004        177.0004
  24738939.6804    1871769.63549   1447379.95545  24738937.3704   24738947.4454
       203.0004        135.0004
  20892158.5744     -64232.06949    -54134.76847  20892157.8804   20892161.5824
       241.0004        208.0004
  24589056.2544   -3602108.13549  -2570790.65345  24589054.9314   24589059.8624
       205.0004        148.0004
  23368121.9344    3000561.24649   2323472.41245  23368121.5464   23368129.2924
       212.0004        153.0004
  23764579.2164   -3169644.32249  -2455823.87545  23764578.4254   23764585.2944
       214.0004        154.0004
  24454139.8554    3242782.08349   2508542.21645  24454140.8014   24454147.3554
       209.0004        137.0004
  22774011.2134   -4857293.04449  -3768765.44746  22774010.6904   22774015.8524
       221.0004        165.0004
 07  2 17 23  0 50.0000000  0 10G22G21G 3G24G18G19G 7G 9G 6G14
  20962971.2074   -1949873.98649  -1513839.40347  20962970.6874   20962973.0704
       242.0004        206.0004
  20708240.5384    -188281.68049   -149421.25947  20708239.9144   20708243.5344
       243.0004        206.0004
  22426980.1684   -2961946.11649  -2293915.63646  22426980.3254   22426984.9454
       228.0004        177.0004
  24741332.8324    1884345.59549   1457179.38445  24741332.0824   24741340.3634
       201.0004        135.0004
  20892967.0144     -59983.70849    -50824.35747  20892966.3004   20892969.9304
       241.0004        208.0004
  24586086.4874   -3617714.30449  -2582951.29145  24586086.0274   24586090.4864
       209.0004        149.0004
  23371440.2954    3017999.32549   2337060.50745  23371439.8594   23371447.6284
       211.0004        153.0004
  23762711.8484   -3179457.25949  -2463470.30945  23762710.9284   23762717.8984
       213.0004        154.0004
  24457617.2514    3261055.84549   2522781.49445  24457617.6744   24457624.7954
       208.0004        138.0004
  22770784.5944   -4874248.96349  -3781977.83346  22770784.1444   22770789.0234
       220.0004        165.0004
 07  2 17 23  0 55.0000000  0 10G22G21G 3G24G18G19G 7G 9G 6G14
  20962234.3784   -1953746.03349  -1516856.57847  20962234.0974   20962236.3484
       241.0004        206.0004
  20709008.9804    -184243.52949   -146274.64947  20709008.1624   20709011.7474
       243.0004        206.0004
  22425525.4114   -2969590.89249  -2299872.59946  22425525.7324   22425529.8704
       228.0004        178.0004
  24743726.6644    1896925.16149   1466981.62845  24743727.2744   24743735.2524
       200.0004        135.0004
  20893776.5504     -55729.56049    -47509.43447  20893775.8604   20893779.4044
       241.0004        208.0004
  24583117.9194   -3633314.29249  -2595107.12245  24583117.7224   24583122.1394
       207.0004        150.0004
  23374759.2374    3035440.43049   2350650.96045  23374758.5914   23374765.9564
       211.0004        153.0004
  23760846.4064   -3189260.27749  -2471109.01445  23760845.8594   23760852.4894
       213.0004        154.0004
  24461094.6954    3279329.89249   2537020.99745  24461094.8464   24461102.4484
       209.0004        138.0004
  22767559.1934   -4891198.33149  -3795185.12746  22767558.3474   22767563.8104
       219.0004        165.0004
 07  2 17 23  1  0.0000000  0 10G22G21G 3G24G18G19G 7G 9G 6G14
  20961499.0174   -1957610.44349  -1519867.80347  20961498.5274   20961500.9034
       242.0004        206.0004
  20709779.2714    -180195.63449   -143120.44647  20709778.8684   20709782.2484
       243.0004        206.0004
  22424073.3734   -2977221.46049  -2305818.49046  22424072.5784   22424077.3904
       228.0004        178.0004
  24746121.2474    1909508.62649   1476786.91545  24746120.5174   24746128.1484
       204.0004        135.0004
  20894587.2344     -51469.38249    -44189.81247  20894586.4994   20894590.3104
       241.0004        208.0004
  24580150.6104   -3648907.81949  -2607257.92045  24580150.7064   24580154.6664
       204.0004        151.0004
  23378078.8374    3052884.90149   2364244.03545  23378077.7744   23378085.5224
       211.0004        153.0004
  23758982.9044   -3199053.14249  -2478739.81245  23758982.0794   23758988.5064
       213.0004        154.0004
  24464572.3134    3297604.63749   2551261.03545  24464572.3794   24464580.1174
       211.0004        139.0004
  22764335.1254   -4908140.89249  -3808387.10146  22764334.8294   22764339.9034
       220.0004        165.0004
 07  2 17 23  1  5.0000000  0 10G22G21G 3G24G18G19G 7G 9G 6G14
  20960765.1414   -1961467.05549  -1522872.95347  20960764.5454   20960767.1874
       241.0004        206.0004
  20710551.4544    -176137.83849   -139958.52847  20710550.7444   20710554.2744
       243.0004        206.0004
  22422624.0684   -2984837.73549  -2311753.25346  22422623.6814   22422628.3074
       227.0004        178.0004
  24748516.6024    1922096.11049   1486595.33345  24748517.7184   24748523.5244
       205.0004        134.0004
  20895399.0944     -47203.01049    -40865.36947  20895398.3974   20895401.9014
       241.0004        208.0004
  24577184.5354   -3664494.73049  -2619403.55445  24577183.9904   24577188.4814
       203.0004        150.0004
  23381399.0464    3070332.78249   2377839.77045  23381398.3054   23381405.3484
       211.0004        153.0004
  23757121.3354   -3208835.69949  -2486362.57945  23757120.4284   23757126.3374
       215.0004        154.0004
  24468050.0344    3315880.06749   2565501.60945  24468050.3914   24468057.8254
       210.0004        140.0004
  22761112.3504   -4925076.43549  -3821583.62446  22761111.4904   22761116.7334
       219.0004        165.0004
 07  2 17 23  1 10.0000000  0 10G22G21G 3G24G18G19G 7G 9G 6G14
  20960032.6624   -1965316.20849  -1525872.28847  20960032.3024   20960034.5044
       241.0004        206.0004
  20711325.4474    -172070.47849   -136789.15547  20711324.8084   20711328.2184
       243.0004        206.0004
  22421177.4104   -2992440.04449  -2317677.12746  22421176.5824   22421182.5504
       227.0004        178.0004
  24750912.6644    1934687.27749   1496406.62145  24750912.4304   24750920.2484
       206.0004        134.0004
  20896212.0544     -42930.79649    -37536.36947  20896211.2544   20896214.8694
       240.0004        208.0004
  24574219.6184   -3680075.36449  -2631544.28845  24574218.4734   24574222.8464
       206.0004        150.0004
  23384719.9044    3087783.78249   2391437.93745  23384719.6154   23384726.7064
       211.0004        153.0004
  23755261.6694   -3218608.26449  -2493977.56645  23755261.2654   23755267.1154
       214.0004        154.0004
  24471527.8534    3334155.92449   2579742.51645  24471527.8044   24471535.2194
       211.0004        141.0004
  22757890.8774   -4942005.32449  -3834774.94846  22757889.7414   22757895.5124
       221.0004        166.0004
 07  2 17 23  1 15.0000000  0 10G22G21G 3G24G18G19G 7G 9G 6G14
  20959301.6254   -1969157.80649  -1528865.74247  20959301.2584   20959303.6414
       242.0004        206.0004
  20712101.2834    -167993.44649   -133612.25247  20712100.7314   20712104.1574
       243.0004        206.0004
  22419733.4184   -3000028.16749  -2323589.95546  22419732.9624   22419737.8874
       226.0004        178.0004
  24753309.4634    1947282.20249   1506220.84245  24753308.6714   24753316.5474
       204.0004        134.0004
  20897026.1654     -38652.62249    -34202.72847  20897025.4604   20897029.1804
       240.0004        208.0004
  24571255.9124   -3695649.55449  -2643680.00745  24571255.2344   24571259.6084
       209.0004        151.0004
  23388041.3174    3105237.93949   2405038.56245  23388040.6564   23388048.0534
       211.0004        153.0004
  23753403.9584   -3228370.70849  -2501584.66145  23753403.6014   23753409.8384
       215.0004        154.0004
  24475005.7724    3352432.23649   2593983.77745  24475006.2064   24475012.4934
       212.0004        142.0004
  22754670.6904   -4958927.45849  -3847961.02546  22754670.3604   22754675.4144
       222.0004        166.0004
 07  2 17 23  1 20.0000000  0 10G22G21G 3G24G18G19G 7G 9G 6G14
  20958572.0224   -1972991.83249  -1531853.29347  20958571.5334   20958573.8744
       242.0004        206.0004
  20712878.9534    -163906.73949   -130427.80447  20712878.1234   20712882.1234
       243.0004        206.0004
  22418292.1394   -3007602.18349  -2329491.78446  22418291.2604   22418297.4914
       227.0004        178.0004
  24755706.9684    1959880.93449   1516038.02945  24755707.0414   24755714.6994
       206.0004        134.0004
  20897841.3984     -34368.47349    -30864.43347  20897840.7764   20897844.2744
       241.0004        208.0004
  24568293.4704   -3711217.35049  -2655810.74945  24568293.1954   24568297.8524
       206.0004        151.0004
  23391363.3584    3122695.28449   2418641.67945  23391362.3874   23391370.0754
       210.0004        153.0004
  23751548.1754   -3238122.99349  -2509183.83845  23751548.1254   23751554.3584
       216.0004        155.0004
  24478483.7734    3370709.01449   2608225.39645  24478484.3984   24478490.1024
       211.0004        142.0004
  22751451.8224   -4975842.76049  -3861141.77346  22751451.5184   22751455.9274
       221.0004        166.0004
 07  2 17 23  1 25.0000000  0 10G22G21G 3G24G18G19G 7G 9G 6G14
  20957843.8794   -1976818.33049  -1534834.97247  20957843.2474   20957845.8634
       243.0004        206.0004
  20713658.4974    -159810.37449   -127235.83147  20713657.7634   20713661.3674
       244.0004        206.0004
  22416853.4964   -3015162.11249  -2335382.63146  22416852.4064   22416859.1784
       228.0004        178.0004
  24758105.1684    1972483.40049   1525858.13645  24758104.0314   24758112.2044
       205.0004        134.0004
  20898657.7874     -30078.40249    -27521.51547  20898656.8714   20898660.5884
       241.0004        208.0004
  24565332.2274   -3726778.76349  -2667936.51745  24565331.5454   24565336.1924
       207.0004        152.0004
  23394685.9934    3140155.79349   2432247.24745  23394684.1774   23394693.3124
       212.0004        153.0004
  23749694.3274   -3247865.12449  -2516775.10345  23749694.0594   23749700.0964
       218.0004        156.0004
  24481961.8734    3388986.27749   2622467.39345  24481961.9304   24481968.2934
       212.0004        143.0004
  22748234.2684   -4992751.27549  -3874317.21746  22748233.6064   22748238.5504
       222.0004        166.0004
 07  2 17 23  1 30.0000000  0 10G22G21G 3G24G18G19G 7G 9G 6G14
  20957117.2044   -1980636.93049  -1537810.50447  20957116.8504   20957119.3084
       242.0004        206.0004
  20714439.9334    -155704.00249   -124036.06547  20714439.3824   20714442.8664
       243.0004        206.0004
  22415417.6214   -3022707.71149  -2341262.31646  22415417.1804   22415422.2724
       228.0004        178.0004
  24760504.1754    1985089.99249   1535681.44545  24760503.4804   24760511.5024
       206.0004        134.0004
  20899475.3644     -25782.08049    -24173.73447  20899474.7954   20899478.3764
       241.0004        208.0004
  24562372.3044   -3742333.41749  -2680057.01945  24562371.4244   24562376.3774
       205.0004        152.0004
  23398009.2604    3157619.75149   2445855.50245  23398008.9054   23398016.0374
       213.0004        153.0004
  23747842.5114   -3257596.73149  -2524358.15845  23747842.6314   23747848.2034
       216.0004        156.0004
  24485440.1164    3407264.37749   2636710.04345  24485440.3024   24485446.3314
       212.0004        143.0004
  22745018.0714   -5009652.66049  -3887487.12446  22745018.1524   22745022.3574
       221.0004        166.0004
 07  2 17 23  1 35.0000000  0 10G22G21G 3G24G18G19G 7G 9G 6G14
  20956391.9184   -1984448.41449  -1540780.49347  20956391.5924   20956393.8614
       242.0004        206.0004
  20715223.1254    -151588.37849   -120829.08547  20715222.4104   20715226.3214
       243.0004        206.0004
  22413984.3624   -3030239.62949  -2347131.34446  22413984.0824   22413989.0674
       226.0004        178.0004
  24762903.7714    1997699.93449   1545507.37045  24762904.0384   24762911.3504
       204.0004        134.0004
  20900293.9714     -21480.28149    -20821.68547  20900293.4084   20900296.8384
       241.0004        208.0004
  24559413.5054   -3757882.06149  -2692172.82645  24559412.4434   24559417.7484
       204.0004        152.0004
  23401333.0434    3175086.36849   2459465.83645  23401332.5554   23401339.8384
       211.0004        154.0004
  23745992.5214   -3267318.58249  -2531933.61445  23745992.4024   23745998.0864
       215.0004        157.0004
  24488918.3614    3425542.47949   2650952.69945  24488918.5844   24488925.3284
       212.0004        144.0004
  22741803.0894   -5026547.66849  -3900652.04846  22741803.0874   22741807.9134
       221.0004        166.0004
 07  2 17 23  1 40.0000000  0 10G22G21G 3G24G18G19G 7G 9G 6G14
  20955668.1134   -1988251.99249  -1543744.31047  20955667.8034   20955670.1214
       243.0004        206.0004
  20716008.2134    -147462.67449   -117614.24947  20716007.2374   20716010.9904
       244.0004        206.0004
  22412553.8574   -3037757.05149  -2352989.06646  22412554.0124   22412558.9904
       228.0004        178.0004
  24765304.1634    2010314.02249   1555336.52645  24765303.9374   24765311.2414
       203.0004        134.0004
  20901113.7854     -17172.18949    -17464.72647  20901113.0714   20901116.7024
       241.0004        208.0004
  24556456.0174   -3773423.88049  -2704283.31545  24556455.2004   24556460.5034
       205.0004        152.0004
  23404657.5114    3192556.51149   2473078.91745  23404656.5034   23404664.2754
       213.0004        153.0004
  23744144.5344   -3277029.84049  -2539500.81845  23744144.3614   23744150.4724
       214.0004        157.0004
  24492396.7864    3443821.42149   2665196.03145  24492396.8074   24492403.9194
       213.0004        144.0004
  22738589.4764   -5043435.44649  -3913811.34246  22738589.2224   22738593.7834
       222.0004        166.0004
 07  2 17 23  1 45.0000000  0 10G22G21G 3G24G18G19G 7G 9G 6G14
  20954945.7714   -1992047.99649  -1546702.23647  20954945.6034   20954947.8014
       241.0004        206.0004
  20716795.1774    -143327.22849   -114391.82747  20716794.4324   20716798.0584
       242.0004        206.0004
  22411126.0214   -3045260.36449  -2358835.80046  22411125.6514   22411130.9664
       227.0004        178.0004
  24767705.2924    2022931.93849   1565168.65545  24767705.2144   24767712.1964
       204.0004        134.0004
  20901934.7114     -12858.15449    -14103.14047  20901934.1724   20901937.8164
       241.0004        208.0004
  24553499.7714   -3788959.15349  -2716388.70845  24553499.3364   24553504.0054
       207.0004        152.0004
  23407982.5614    3210029.83049   2486694.47945  23407982.0114   23407989.4314
       212.0004        153.0004
  23742298.4734   -3286730.83749  -2547060.02545  23742298.2994   23742304.1304
       215.0004        157.0004
  24495875.2624    3462100.88849   2679439.79045  24495875.3284   24495882.2984
       212.0004        144.0004
  22735377.1504   -5060316.33849  -3926965.27946  22735377.2464   22735381.5554
       221.0004        166.0004
